     2.10           OBSERVATION DATA    G (GPS)             RINEX VERSION / TYPE
teqc 2002Mar14 20050606 10:10:54UTC                         PGM / RUN BY / DATE
MSWin2000|IAx86-PII|bcc32 5.0|MSWin95/98/NT/2000|486/DX+    COMMENT
DAT2RINW 3.10 001 RegAbr 01APR05 11:20:15                   COMMENT
----------------------------------------------------------- COMMENT
Offset from BOTTOM OF ANTENNA to PHASE CENTER is 62.5 mm    COMMENT
----------------------------------------------------------- COMMENT
*** Above antenna height is from mark to BOTTOM OF ANTENNA. COMMENT
----------------------------------------------------------- COMMENT
Note: The above offsets are CORRECTED.                      COMMENT
Raw Offsets: H= 1.6143 E= 0.0000 N= 0.0000                  COMMENT
----------------------------------------------------------- COMMENT
Caramanico                                                  MARKER NAME
Caramanico                                                  MARKER NUMBER
RegAbr RegAbr                                               OBSERVER / AGENCY
20172246 TRIMBLE 4700 Nav 1.30 Sig 0.00                     REC # / TYPE / VERS
0000 TRM22020.00-GP                                         ANT # / TYPE
  4594628.7443  1146471.6415  4259304.0414                  APPROX POSITION XYZ
        1.5518        0.0000        0.0000                  ANTENNA: DELTA H/E/N
     1     1                                                WAVELENGTH FACT L1/2
     5    L1    C1    L2    P2    D1                        # / TYPES OF OBSERV
    15.0000                                                 INTERVAL
Forced Modulo Decimation to 15 seconds                      COMMENT
teqc windowed: start @ 2005 Mar 15 06:00:15.000             COMMENT
  2005     3    15     6     0   15.0000000     GPS         TIME OF FIRST OBS
                                                            END OF HEADER
 05  3 15  6  0 15.0000000  0  7G 1G 2G 5G 6G21G25G30
    194115.349 1  23930218.236 1    954557.49645  23930217.67845     -2591.152
   2716946.569 6  22850333.701 6   2124107.40647  22850327.39047     -3503.936
   9435258.211 5  22257706.380 5   7371663.85247  22257703.03147     -3601.782
  -9653101.857 8  20248144.850 8  -8495790.79149  20248140.18949      -651.177
  -1932049.723 5  23553028.798 5  -1451053.00947  23553024.52247      2551.714
  -5532010.629 7  22069248.802 7  -5565703.38048  22069244.45648       641.387
  -7466900.753 8  20192195.434 8  -5972197.82049  20192191.25849     -1930.688
 05  3 15  6  0 30.0000000  0  7G 1G 2G 5G 6G21G25G30
    233034.144 1  23937623.764 1    984883.71145  23937623.84845     -2597.661
   2769562.575 6  22860346.337 6   2165106.87547  22860339.82147     -3511.455
   9489314.907 5  22267993.007 5   7413785.93147  22267989.52847     -3605.708
  -9643289.973 8  20250011.970 8  -8488145.18549  20250007.35249      -657.056
  -1970310.956 6  23545747.950 6  -1480866.96947  23545743.64847      2549.829
  -5541572.179 7  22067429.253 7  -5573153.95148  22067424.94748       633.623
  -7437891.898 8  20197715.650 8  -5949593.52849  20197711.50749     -1937.095
 05  3 15  6  0 45.0000000  0  7G 1G 2G 5G 6G21G25G30
    272051.535 1  23945048.117 1   1015286.79946  23945049.45046     -2604.590
   2822289.950 6  22870380.061 6   2206193.10647  22870373.49947     -3519.043
   9543428.356 5  22278290.485 5   7455952.22047  22278286.82947     -3609.697
  -9633391.157 8  20251895.636 8  -8480431.81449  20251891.09149      -663.008
  -2008545.437 6  23538472.229 6  -1510660.07047  23538467.85547      2547.881
  -5551017.489 7  22065631.814 7  -5580513.93148  22065627.52948       625.562
  -7408789.246 8  20203253.714 8  -5926916.14749  20203249.57749     -1943.491
 05  3 15  6  1  0.0000000  0  7G 1G 2G 5G 6G21G25G30
    311168.988 3  23952492.075 3   1045767.96446  23952492.42746     -2611.172
   2875130.138 6  22880435.255 6   2247367.24647  22880428.66147     -3526.509
   9597600.177 6  22288599.085 6   7498163.98647  22288595.36447     -3613.506
  -9623403.657 8  20253796.177 8  -8472649.35349  20253791.72449      -668.882
  -2046750.901 6  23531201.962 6  -1540430.60046  23531197.52646      2545.952
  -5560344.610 7  22063856.914 7  -5587781.83148  22063852.60848       617.754
  -7379590.944 8  20208809.974 8  -5904164.24049  20208805.80749     -1949.834
 05  3 15  6  1 15.0000000  0  7G 1G 2G 5G 6G21G25G30
    350386.082 2  23959954.997 2   1076326.75146  23959955.02746     -2617.573
   2928082.699 6  22890511.861 6   2288628.93347  22890505.21947     -3533.638
   9651830.344 5  22298918.768 5   7540421.23047  22298915.08347     -3617.119
  -9613327.666 7  20255713.543 7  -8464797.93649  20255709.18249      -674.458
  -2084926.981 5  23523937.228 5  -1570178.19646  23523932.74746      2544.414
  -5569553.411 7  22062104.546 7  -5594957.52348  22062100.18348       610.225
  -7350297.070 8  20214384.431 8  -5881337.85849  20214380.17849     -1955.903
 05  3 15  6  1 30.0000000  0  7G 1G 2G 5G 6G21G25G30
    389700.601 2  23967436.473 2   1106961.39446  23967436.32446     -2624.287
   2981145.405 6  22900609.386 6   2329976.47047  22900602.77347     -3541.275
   9706116.787 6  22309249.148 6   7582722.32847  22309245.53647     -3620.991
  -9603165.120 7  20257647.378 7  -8456879.07249  20257643.09849      -680.488
  -2123075.533 6  23516677.706 6  -1599904.34846  23516673.22646      2542.202
  -5578645.632 7  22060374.361 7  -5602042.37148  22060369.93048       602.187
  -7320909.586 8  20219976.711 8  -5858438.52849  20219972.39349     -1962.358
 05  3 15  6  1 45.0000000  0  7G 1G 2G 5G 6G21G25G30
    429113.844 3  23974936.813 3   1137672.97246  23974936.40146     -2630.591
   3034319.385 6  22910728.067 6   2371410.73247  22910721.49547     -3548.408
   9760460.952 6  22319590.610 6   7625068.41247  22319586.97347     -3624.688
  -9592914.592 8  20259597.964 8  -8448891.65949  20259593.71749      -686.221
  -2161194.639 5  23509423.874 5  -1629607.54546  23509419.35146      2540.513
  -5587619.518 7  22058666.711 7  -5609035.02148  22058662.21348       594.517
  -7291426.978 8  20225587.069 8  -5835465.08349  20225582.78949     -1968.530
 05  3 15  6  2  0.0000000  0  7G 1G 2G 5G 6G21G25G30
    468623.251 2  23982455.450 2   1168459.49946  23982454.72646     -2637.051
   3087602.240 5  22920867.412 5   2412929.82847  22920860.92247     -3555.752
   9814860.490 6  22329942.569 6   7667457.64647  22329938.90347     -3628.564
  -9582578.390 7  20261564.838 7  -8440837.48349  20261560.59349      -691.924
  -2199286.083 5  23502175.381 5  -1659289.20847  23502170.69447      2538.481
  -5596477.027 7  22056981.163 7  -5615936.97748  22056976.62848       586.631
  -7261851.372 8  20231215.120 8  -5812419.17149  20231210.86849     -1974.805
 05  3 15  6  2 15.0000000  0  7G 1G 2G 5G 6G21G25G30
    508230.157 2  23989992.591 2   1199322.05346  23989991.59246     -2643.691
   3140995.317 5  22931027.657 5   2454534.80746  22931021.37646     -3563.130
   9869317.065 6  22340305.394 6   7709891.30647  22340301.62147     -3632.319
  -9572154.831 7  20263548.344 7  -8432715.24249  20263544.03749      -697.910
  -2237348.005 6  23494932.544 6  -1688947.84747  23494927.61047      2536.528
  -5605216.239 7  22055318.120 7  -5622746.76148  22055313.57648       578.618
  -7232181.087 8  20236861.185 8  -5789299.47549  20236856.94949     -1981.216
 05  3 15  6  2 30.0000000  0  7G 1G 2G 5G 6G21G25G30
    547935.212 3  23997548.320 3   1230261.02946  23997547.15746     -2650.308
   3194499.203 6  22941209.050 6   2496226.11446  22941203.03146     -3570.586
   9923831.536 6  22350679.204 6   7752370.10147  22350675.34047     -3636.323
  -9561643.109 8  20265548.641 8  -8424524.30649  20265544.27849      -703.765
  -2275379.107 5  23487695.548 5  -1718582.44047  23487690.38247      2534.404
  -5613836.055 7  22053677.808 7  -5629463.50348  22053673.29048       570.713
  -7202415.146 8  20242525.456 8  -5766105.24249  20242521.24049     -1987.544
 05  3 15  6  2 45.0000000  0  7G 1G 2G 5G 6G21G25G30
    587737.467 3  24005122.451 3   1261275.74646  24005121.24546     -2656.831
   3248112.879 6  22951411.393 6   2538002.99246  22951405.62946     -3577.861
   9978403.071 6  22361063.892 6   7794893.33947  22361059.89147     -3639.980
  -9551044.049 8  20267565.573 8  -8416265.30949  20267561.19849      -709.546
  -2313379.785 5  23480464.273 5  -1748193.30746  23480458.93246      2532.358
  -5622336.906 7  22052060.158 7  -5636087.56848  22052055.67248       562.812
  -7172554.187 8  20248207.811 8  -5742836.96649  20248203.58649     -1993.901
 05  3 15  6  3  0.0000000  0  7G 1G 2G 5G 6G21G25G30
    627634.864 3  24012714.764 3   1292364.57146  24012713.41446     -2662.993
   3301834.356 5  22961634.226 5   2579863.84446  22961628.75946     -3585.064
  10033029.832 6  22371459.111 6   7837459.62647  22371454.89447     -3643.686
  -9540359.222 8  20269598.846 8  -8407939.46549  20269594.50049      -715.259
  -2351351.535 6  23473238.437 6  -1777781.66447  23473232.98447      2530.415
  -5630720.353 7  22050464.880 7  -5642620.12148  22050460.36448       554.814
  -7142600.117 8  20253907.873 8  -5719496.15649  20253903.65449     -2000.127
 05  3 15  6  3 15.0000000  0  7G 1G 2G 5G 6G21G25G30
    667629.974 2  24020325.533 2   1323529.58146  24020324.22046     -2669.463
   3355666.177 6  22971877.958 6   2621810.64046  22971872.81646     -3592.358
  10087714.722 6  22381865.356 6   7880071.19947  22381860.97247     -3647.383
  -9529586.140 8  20271648.938 8  -8399544.86149  20271644.64749      -720.952
  -2389291.136 6  23466018.740 6  -1807344.98847  23466013.18847      2528.379
  -5638983.314 7  22048892.563 7  -5649058.80548  22048887.97448       546.958
  -7112549.887 8  20259626.239 8  -5696080.40649  20259622.03349     -2006.387
 05  3 15  6  3 30.0000000  0  7G 1G 2G 5G 6G21G25G30
    707720.204 1  24027954.220 1   1354768.70845  24027953.17545     -2675.732
   3409605.589 5  22982142.211 5   2663841.37046  22982137.13346     -3599.551
  10142455.434 6  22392282.211 6   7922726.24747  22392277.75947     -3651.284
  -9518726.993 8  20273715.397 8  -8391083.18949  20273711.17649      -726.865
  -2427200.533 6  23458804.755 6  -1836884.74447  23458799.28447      2526.226
  -5647127.776 7  22047342.789 7  -5655405.13648  22047338.12648       538.955
  -7082405.800 8  20265362.492 8  -5672591.51849  20265358.30449     -2012.793
 05  3 15  6  3 45.0000000  0  7G 1G 2G 5G 6G21G25G30
    747903.644 2  24035600.842 2   1386080.44446  24035599.87746     -2681.729
   3463650.804 6  22992426.701 6   2705954.47746  22992421.51346     -3606.377
  10197250.193 6  22402709.359 6   7965423.43547  22402704.86147     -3654.678
  -9507783.492 8  20275797.884 8  -8382555.78749  20275793.71949      -732.251
  -2465080.927 6  23451596.329 6  -1866401.90847  23451591.01847      2524.458
  -5655155.289 7  22045815.283 7  -5661660.34948  22045810.53048       531.357
  -7052169.496 8  20271116.285 8  -5649030.77549  20271112.13449     -2018.672
 05  3 15  6  4  0.0000000  0  7G 1G 2G 5G 6G21G25G30
    788181.585 3  24043265.606 3   1417465.80546  24043264.56846     -2688.340
   3517803.165 5  23002731.546 5   2748151.10646  23002726.21746     -3613.740
  10252100.741 6  22413147.095 6   8008164.07347  22413142.58347     -3658.584
  -9496753.946 7  20277896.740 7  -8373961.33649  20277892.57549      -738.267
  -2502930.274 6  23444393.824 6  -1895894.89247  23444388.69947      2522.148
  -5663063.882 7  22044310.398 7  -5667822.88648  22044305.54848       523.193
  -7021839.153 8  20276887.971 8  -5625396.75249  20276883.80449     -2025.205
 05  3 15  6  4 15.0000000  0  7G 1G 2G 5G 6G21G25G30
    828554.233 3  24050948.361 3   1448924.91846  24050947.29546     -2694.746
   3572062.839 6  23013056.858 6   2790431.37546  23013051.12946     -3620.874
  10307007.255 6  22423595.432 6   8050948.33847  22423591.06647     -3662.246
  -9485638.105 7  20280012.009 7  -8365299.63449  20280007.79549      -743.970
  -2540747.873 6  23437197.333 6  -1925363.14547  23437192.42747      2520.078
  -5670852.910 7  22042828.240 7  -5673892.26648  22042823.35848       515.269
  -6991414.442 8  20282677.608 8  -5601689.19249  20282673.40549     -2031.455
 05  3 15  6  4 30.0000000  0  7G 1G 2G 5G 6G21G25G30
    869021.253 5  24058649.136 5   1480457.69646  24058647.93246     -2700.991
   3626429.508 6  23023402.586 6   2832794.94846  23023396.28046     -3628.184
  10361969.696 6  22434054.410 6   8093776.17147  22434050.19647     -3666.128
  -9474435.938 8  20282143.714 8  -8356570.67849  20282139.41749      -749.717
  -2578533.550 6  23430006.901 6  -1954806.52947  23430002.19647      2517.925
  -5678522.201 7  22041368.827 7  -5679868.34748  22041364.00648       507.251
  -6960895.300 7  20288485.203 7  -5577908.05849  20288480.99649     -2037.783
 05  3 15  6  4 45.0000000  0  7G 1G 2G 5G 6G21G25G30
    909583.428 3  24066367.931 3   1512064.60646  24066366.62946     -2707.290
   3680903.852 6  23033768.786 6   2875242.47747  23033762.09947     -3635.102
  10416989.123 6  22444524.244 6   8136648.39447  22444520.13847     -3669.731
  -9463146.502 8  20284292.051 8  -8347773.72549  20284287.63749      -755.503
  -2616285.810 6  23422822.830 6  -1984223.87447  23422818.17147      2515.796
  -5686070.329 7  22039932.454 7  -5685750.01848  22039927.76848       499.258
  -6930280.635 7  20294310.956 7  -5554052.48449  20294306.80849     -2044.004
 05  3 15  6  5  0.0000000  0  7G 1G 2G 5G 6G21G25G30
    950240.679 4  24074104.862 4   1543745.58446  24074103.37846     -2713.472
   3735485.791 6  23044155.515 6   2917773.79547  23044148.59047     -3642.270
  10472065.582 6  22455004.948 6   8179565.12347  22455000.81947     -3673.477
  -9451769.656 8  20286457.017 8  -8338908.65149  20286452.53249      -761.318
  -2654004.367 5  23415645.186 5  -2013614.96747  23415640.51747      2513.540
  -5693496.949 7  22038519.220 7  -5691537.00848  22038514.69648       491.133
  -6899570.172 8  20300154.945 8  -5530122.26449  20300150.88649     -2050.449
 05  3 15  6  5 15.0000000  0  7G 1G 2G 5G 6G21G25G30
    990991.913 2  24081859.670 2   1575499.71446  24081858.02146     -2719.873
   3790174.290 6  23054562.501 6   2960388.20147  23054555.41247     -3649.390
  10527198.305 6  22465496.382 6   8222525.66547  22465492.21447     -3677.417
  -9440306.193 8  20288638.453 8  -8329976.08949  20288633.96049      -767.080
  -2691689.404 6  23408473.939 6  -2042979.90047  23408469.19747      2511.269
  -5700802.627 7  22037129.001 7  -5697229.75848  22037124.62348       482.988
  -6868764.739 8  20306016.994 8  -5506118.03549  20306013.00349     -2056.787
 05  3 15  6  5 30.0000000  0  7G 1G 2G 5G 6G21G25G30
   1031836.524 4  24089632.242 4   1607326.64145  24089630.38145     -2725.845
   3844968.826 6  23064989.661 6   3003085.20747  23064982.48147     -3656.558
  10582386.870 6  22475998.442 6   8265529.73347  22475994.24647     -3681.060
  -9428756.439 8  20290836.303 8  -8320976.29049  20290831.82449      -772.798
  -2729340.745 5  23401309.142 5  -2072318.59047  23401304.31747      2508.945
  -5707987.460 7  22035761.790 7  -5702828.35448  22035757.45948       474.976
  -6837864.463 7  20311897.087 7  -5482039.91049  20311893.10849     -2063.140
 05  3 15  6  5 45.0000000  0  7G 1G 2G 5G 6G21G25G30
   1072773.265 5  24097422.344 5   1639225.39545  24097420.20645     -2732.046
   3899868.011 5  23075436.671 5   3045863.76747  23075429.61947     -3663.320
  10637630.292 6  22486510.939 6   8308576.50747  22486506.83047     -3684.580
  -9417121.492 8  20293050.350 8  -8311910.09949  20293045.87149      -778.413
  -2766959.299 6  23394150.601 6  -2101631.73147  23394145.69247      2506.875
  -5715052.136 7  22034417.442 7  -5708333.29148  22034413.08748       467.070
  -6806870.452 8  20317795.015 8  -5457888.74249  20317791.03749     -2069.321
 05  3 15  6  6  0.0000000  0  7G 1G 2G 5G 6G21G25G30
   1113802.283 5  24105230.001 5   1671196.03145  24105227.56645     -2738.213
   3954872.057 5  23085903.525 5   3088724.03947  23085896.76847     -3670.415
  10692928.976 6  22497033.938 6   8351666.35047  22497030.01047     -3688.291
  -9405400.863 8  20295280.683 8  -8302777.14749  20295276.23849      -784.307
  -2804544.074 6  23386998.509 6  -2130918.56847  23386993.53847      2504.614
  -5721995.966 7  22033096.084 7  -5713744.05848  22033091.65148       458.896
  -6775782.174 8  20323710.900 8  -5433664.11049  20323706.92049     -2075.684
 05  3 15  6  6 15.0000000  0  7G 1G 2G 5G 6G21G25G30
   1154922.855 4  24113055.098 4   1703238.01346  24113052.36946     -2744.683
   4009980.186 5  23096390.268 5   3131665.44447  23096383.63447     -3677.407
  10748282.530 6  22507567.404 6   8394798.95147  22507563.60547     -3692.124
  -9393595.165 7  20297527.204 7  -8293577.90349  20297522.82049      -789.932
  -2842095.302 6  23379852.791 6  -2160179.23747  23379847.81347      2502.217
  -5728819.219 7  22031797.678 7  -5719060.88348  22031793.10048       450.752
  -6744599.958 8  20329644.659 8  -5409366.29849  20329640.69449     -2081.992
 05  3 15  6  6 30.0000000  0  7G 1G 2G 5G 6G21G25G30
   1196136.740 4  24120897.904 4   1735352.77646  24120894.95346     -2750.840
   4065194.349 4  23106897.114 4   3174689.43547  23106890.68847     -3684.551
  10803692.959 6  22518111.684 6   8437975.91447  22518107.95947     -3696.025
  -9381702.198 8  20299790.333 8  -8284310.65649  20299786.02049      -795.942
  -2879610.545 6  23372713.916 6  -2189411.89747  23372708.89047      2499.648
  -5735519.482 7  22030522.668 7  -5724281.86648  22030517.95048       442.432
  -6713321.716 8  20335596.717 8  -5384993.65949  20335592.73649     -2088.565
 05  3 15  6  6 45.0000000  0  7G 1G 2G 5G 6G21G25G30
   1237443.014 4  24128758.261 4   1767539.41446  24128755.24446     -2756.909
   4120513.441 5  23117423.908 5   3217795.22647  23117417.75147     -3691.636
  10859159.501 6  22528666.665 6   8481196.54047  22528662.98747     -3699.722
  -9369722.784 8  20302069.925 8  -8274976.05149  20302065.66149      -801.597
  -2917090.156 6  23365581.832 6  -2218616.78947  23365576.71047      2497.266
  -5742097.304 7  22029270.926 7  -5729407.44648  22029266.12948       434.297
  -6681948.138 8  20341566.920 8  -5360546.72749  20341562.88249     -2094.912
 05  3 15  6  7  0.0000000  0  7G 1G 2G 5G 6G21G25G30
   1278841.362 4  24136636.171 4   1799797.87346  24136633.11846     -2762.661
   4175937.015 5  23127970.628 5   3260982.39147  23127964.69147     -3698.096
  10914682.076 6  22539232.309 6   8524460.85347  22539228.62247     -3703.223
  -9357657.046 7  20304365.957 7  -8265574.18249  20304361.71849      -807.031
  -2954533.669 6  23358456.617 6  -2247793.56147  23358451.41047      2495.161
  -5748552.675 7  22028042.508 7  -5734437.61048  22028037.61748       426.519
  -6650479.138 8  20347555.300 8  -5336025.44449  20347551.20249     -2100.898
 05  3 15  6  7 15.0000000  0  7G 1G 2G 5G 6G21G25G30
   1320330.582 5  24144531.454 5   1832127.06746  24144528.28146     -2768.774
   4231463.972 5  23138537.131 5   3304250.09647  23138531.29147     -3705.029
  10970259.741 6  22549808.457 6   8567768.09547  22549804.69747     -3706.729
  -9345505.849 8  20306678.257 8  -8256105.71949  20306674.04449      -812.695
  -2991941.814 7  23351338.158 7  -2276942.75448  23351332.90848      2492.847
  -5754886.056 7  22026837.322 7  -5739372.72148  22026832.34548       418.359
  -6618915.656 8  20353561.661 8  -5311430.52749  20353557.56449     -2107.178
 05  3 15  6  7 30.0000000  0  7G 1G 2G 5G 6G21G25G30
   1361911.547 4  24152444.211 4   1864527.74246  24152440.86846     -2775.073
   4287095.171 6  23149123.508 6   3347599.04047  23149117.77147     -3712.207
  11025893.624 6  22560395.301 6   8611119.15847  22560391.48447     -3710.810
  -9333267.992 8  20309007.055 8  -8246569.73949  20309002.88249      -818.740
  -3029313.028 7  23344226.732 7  -2306063.20047  23344221.47947      2490.200
  -5761096.043 7  22025655.623 7  -5744211.68148  22025650.62248       409.917
  -6587256.460 8  20359586.239 8  -5286761.04549  20359582.15749     -2113.843
 05  3 15  6  7 45.0000000  0  7G 1G 2G 5G 6G21G25G30
   1403582.984 4  24160374.165 4   1896998.94246  24160370.68246     -2781.186
   4342829.326 5  23159729.478 5   3391028.24947  23159723.85247     -3719.238
  11081582.534 6  22570992.612 6   8654513.05447  22570988.72047     -3714.380
  -9320944.654 8  20311352.114 8  -8236967.13949  20311347.96649      -824.458
  -3066647.898 6  23337122.136 6  -2335155.30247  23337116.97247      2487.685
  -5767183.520 7  22024497.231 7  -5748955.18148  22024492.26348       401.650
  -6555502.534 8  20365628.850 8  -5262017.74649  20365624.74649     -2120.171
 05  3 15  6  8  0.0000000  0  7G 1G 2G 5G 6G21G25G30
   1445345.249 5  24168321.294 5   1929540.95346  24168317.76946     -2787.202
   4398666.724 6  23170355.102 6   3434537.86347  23170349.59447     -3726.065
  11137327.136 6  22581600.536 6   8697950.38147  22581596.58747     -3718.203
  -9308535.377 8  20313713.528 8  -8227297.57449  20313709.35049      -830.210
  -3103945.509 6  23330024.587 6  -2364218.38147  23330019.57447      2485.220
  -5773147.550 7  22023362.330 7  -5753602.49648  22023357.42548       393.433
  -6523653.188 8  20371689.612 8  -5237200.08749  20371685.45049     -2126.499
 05  3 15  6  8 15.0000000  0  7G 1G 2G 5G 6G21G25G30
   1487197.557 5  24176285.535 5   1962153.12546  24176281.99446     -2793.008
   4454606.652 6  23181000.248 6   3478127.36847  23180994.80547     -3732.671
  11193126.887 5  22592218.831 5   8741430.65647  22592215.04147     -3721.743
  -9296040.325 8  20316091.259 8  -8217561.17349  20316087.02949      -835.762
  -3141206.167 6  23322934.083 6  -2393252.64047  23322929.17147      2482.881
  -5778988.365 7  22022250.852 7  -5758153.79948  22022246.02848       385.298
  -6491708.812 8  20377768.462 8  -5212308.38249  20377764.21349     -2132.676
 05  3 15  6  8 30.0000000  0  7G 1G 2G 5G 6G21G25G30
   1529138.850 3  24184266.695 3   1994834.63946  24184263.14246     -2798.936
   4510648.109 5  23191664.619 5   3521796.04547  23191659.25347     -3739.473
  11248981.002 5  22602847.478 5   8784953.28746  22602843.82946     -3725.356
  -9283460.563 8  20318485.106 8  -8207758.77249  20318480.83849      -841.411
  -3178429.993 6  23315850.601 6  -2422258.21247  23315845.80847      2480.454
  -5784706.461 7  22021162.726 7  -5762609.45348  22021157.96948       377.183
  -6459670.253 8  20383865.250 8  -5187343.27549  20383860.87949     -2139.033
 05  3 15  6  8 45.0000000  0  7G 1G 2G 5G 6G21G25G30
   1571169.542 4  24192264.899 4   2027585.88246  24192261.21046     -2804.824
   4566791.425 5  23202348.360 5   3565544.04547  23202342.98547     -3746.094
  11304890.136 5  22613486.549 5   8828518.83946  22613483.01946     -3728.906
  -9270795.442 8  20320895.203 8  -8197889.85749  20320890.92849      -847.051
  -3215615.947 6  23308774.313 6  -2451234.28947  23308769.70047      2477.910
  -5790300.998 7  22020098.088 7  -5766968.85048  22020093.42048       368.950
  -6427536.640 8  20389980.142 8  -5162304.11949  20389975.65649     -2145.288
 05  3 15  6  9  0.0000000  0  7G 1G 2G 5G 6G21G25G30
   1613287.863 3  24200279.713 3   2060405.33446  24200275.91946     -2810.923
   4623034.830 5  23213051.170 5   3609370.06246  23213045.71446     -3752.964
  11360852.797 5  22624135.823 5   8872126.06146  22624132.38346     -3732.666
  -9258046.361 8  20323321.269 8  -8187955.51649  20323317.01649      -852.837
  -3252765.246 6  23301705.011 6  -2480181.77647  23301700.51347      2475.317
  -5795773.274 7  22019056.737 7  -5771232.96448  22019052.13548       360.654
  -6395309.481 8  20396112.847 8  -5137192.06749  20396108.26449     -2151.709
 05  3 15  6  9 15.0000000  0  7G 1G 2G 5G 6G21G25G30
   1655493.736 4  24208311.334 4   2093292.94546  24208307.32646     -2816.665
   4679378.325 5  23223772.975 5   3653274.07147  23223767.51347     -3759.600
  11416869.234 5  22634795.269 5   8915775.22047  22634792.02147     -3736.216
  -9245213.306 7  20325763.302 7  -8177955.73649  20325759.08649      -858.311
  -3289877.365 6  23294642.827 6  -2509100.32447  23294638.36747      2472.905
  -5801122.696 7  22018038.769 7  -5775401.34448  22018034.16648       352.593
  -6362988.469 8  20402263.384 8  -5112006.87349  20402258.73149     -2157.847
 05  3 15  6  9 30.0000000  0  7G 1G 2G 5G 6G21G25G30
   1697785.690 4  24216359.233 4   2126247.66946  24216355.18646     -2822.456
   4735820.389 6  23234513.486 6   3697254.86147  23234508.10147     -3766.270
  11472937.951 5  22645464.722 5   8959465.10547  22645461.61647     -3739.761
  -9232297.357 7  20328221.129 7  -8167891.35449  20328216.91849      -863.936
  -3326953.200 6  23287587.531 6  -2537990.61347  23287583.14147      2470.352
  -5806350.339 7  22017043.974 7  -5779474.84048  22017039.32448       344.365
  -6330574.835 8  20408431.535 8  -5086749.51749  20408426.82449     -2164.106
 05  3 15  6  9 45.0000000  0  7G 1G 2G 5G 6G21G25G30
   1740166.495 4  24224424.058 4   2159271.64646  24224420.05146     -2828.374
   4792363.808 6  23245273.401 6   3741314.62447  23245267.95147     -3772.905
  11529062.218 5  22656144.885 5   9003198.25547  22656141.74047     -3743.481
  -9219295.512 8  20330695.301 8  -8157760.05649  20330691.09349      -869.697
  -3363989.210 6  23280539.809 6  -2566849.84848  23280535.50348      2467.656
  -5811452.770 7  22016072.991 7  -5783450.77048  22016068.30348       335.981
  -6298065.318 8  20414617.923 8  -5061417.43649  20414613.14249     -2170.537
 05  3 15  6 10  0.0000000  0  7G 1G 2G 5G 6G21G25G30
   1782635.176 4  24232505.781 4   2192364.07346  24232501.65946     -2834.097
   4849007.560 6  23256052.437 6   3785452.60947  23256046.81747     -3779.502
  11585241.256 5  22666835.462 5   9046974.07047  22666832.30247     -3747.202
  -9206208.583 8  20333185.670 8  -8147562.45349  20333181.43349      -875.317
  -3400985.620 6  23273499.637 6  -2595678.21948  23273495.41148      2465.088
  -5816430.502 7  22015125.728 7  -5787329.54748  22015121.00748       327.705
  -6265460.718 8  20420822.383 8  -5036011.27349  20420817.58749     -2176.816
 05  3 15  6 10 15.0000000  0  7G 1G 2G 5G 6G21G25G30
   1825188.936 4  24240603.636 4   2225522.79646  24240599.40346     -2839.697
   4905749.002 6  23266850.064 6   3829666.61547  23266844.26147     -3786.050
  11641472.458 5  22677535.923 5   9090790.58046  22677532.78946     -3750.518
  -9193038.910 8  20335691.792 8  -8137300.36449  20335687.51949      -880.771
  -3437944.733 6  23266466.553 6  -2624477.51648  23266462.38348      2462.676
  -5821285.882 7  22014201.776 7  -5791112.96648  22014197.01048       319.502
  -6232763.379 8  20427044.470 8  -5010532.83649  20427039.72849     -2182.998
 05  3 15  6 10 30.0000000  0  7G 1G 2G 5G 6G21G25G30
   1867830.460 3  24248718.211 3   2258749.95046  24248713.80546     -2845.571
   4962590.677 6  23277666.706 6   3873958.76346  23277660.69646     -3792.666
  11697758.785 5  22688246.812 5   9134650.02746  22688243.75346     -3754.072
  -9179783.853 8  20338214.164 8  -8126971.76049  20338209.87849      -886.284
  -3474863.177 7  23259441.231 7  -2653245.15848  23259437.09648      2460.064
  -5826015.829 7  22013301.717 7  -5794798.64848  22013296.93048       311.367
  -6199970.357 8  20433284.755 8  -4984979.83349  20433280.05649     -2189.292
 05  3 15  6 10 45.0000000  0  7G 1G 2G 5G 6G21G25G30
   1910556.923 4  24256848.880 4   2292043.20546  24256844.39546     -2851.191
   5019529.844 5  23288501.823 5   3918326.90746  23288495.65246     -3799.063
  11754097.759 4  22698967.759 4   9178550.48746  22698964.70646     -3757.612
  -9166445.661 8  20340752.356 8  -8116578.37349  20340748.06949      -891.899
  -3511743.057 6  23252423.235 6  -2681982.72047  23252419.08847      2457.383
  -5830622.478 7  22012425.147 7  -5798388.25348  22012420.36648       303.052
  -6167084.020 8  20439542.808 8  -4959354.13249  20439538.11749     -2195.464
 05  3 15  6 11  0.0000000  0  7G 1G 2G 5G 6G21G25G30
   1953367.976 3  24264995.545 3   2325402.47546  24264991.04746     -2857.109
   5076566.096 5  23299355.409 5   3962770.64846  23299349.15246     -3805.845
  11810489.102 5  22709698.721 5   9222491.75447  22709695.60347     -3761.318
  -9153024.599 8  20343306.302 8  -8106120.40449  20343302.02749      -897.656
  -3548584.258 6  23245412.557 6  -2710690.15947  23245408.45147      2454.536
  -5835105.700 7  22011572.048 7  -5801881.67048  22011567.30048       294.521
  -6134104.438 8  20445818.603 8  -4933655.76249  20445813.92449     -2201.938
 05  3 15  6 11 15.0000000  0  7G 1G 2G 5G 6G21G25G30
   1996265.957 3  24273158.761 3   2358829.44945  24273154.23445     -2862.876
   5133701.734 5  23310227.992 5   4007291.87446  23310221.64046     -3812.334
  11866935.535 6  22720440.230 6   9266475.96447  22720436.96647     -3764.990
  -9139517.973 8  20345876.523 8  -8095595.75649  20345872.24049      -903.262
  -3585383.851 6  23238409.788 6  -2739365.14247  23238405.69747      2451.885
  -5839462.600 7  22010742.988 7  -5805276.64548  22010738.25248       286.245
  -6101028.984 8  20452112.638 8  -4907882.68949  20452107.98349     -2208.237
 05  3 15  6 11 30.0000000  0  7G 1G 2G 5G 6G21G25G30
   2039249.672 3  24281338.300 3   2392323.25045  24281333.73645     -2868.315
   5190935.582 5  23321119.273 5   4051889.59146  23321112.96846     -3818.799
  11923436.032 5  22731192.014 5   9310502.30047  22731188.59847     -3768.521
  -9125926.945 8  20348462.813 8  -8085005.34749  20348458.49849      -908.848
  -3622142.245 6  23231414.895 6  -2768008.05248  23231410.82948      2449.214
  -5843693.937 7  22009937.829 7  -5808573.79348  22009933.02548       277.949
  -6067858.619 8  20458424.730 8  -4882035.65649  20458420.14749     -2214.404
 05  3 15  6 11 45.0000000  0  7G 1G 2G 5G 6G21G25G30
   2082317.625 2  24289533.810 2   2425882.66045  24289529.25645     -2874.038
   5248266.070 5  23332028.935 5   4096562.64646  23332022.78446     -3825.264
  11979989.255 5  22741953.755 5   9354569.69747  22741950.28647     -3772.021
  -9112252.760 8  20351064.921 8  -8074350.14849  20351060.57849      -914.453
  -3658860.453 6  23224427.650 6  -2796619.63348  23224423.55648      2446.499
  -5847800.768 7  22009156.343 7  -5811773.92348  22009151.45348       269.595
  -6034594.510 8  20464754.661 8  -4856115.59049  20464750.16349     -2220.874
 05  3 15  6 12  0.0000000  0  7G 1G 2G 5G 6G21G25G30
   2125470.352 3  24297745.478 3   2459508.08346  24297740.95146     -2879.517
   5305693.873 5  23342957.180 5   4141311.57546  23342951.10846     -3831.685
  12036595.939 4  22752725.635 4   9398678.76647  22752722.18947     -3775.581
  -9098494.537 8  20353683.018 8  -8063629.46449  20353678.66649      -919.985
  -3695537.098 7  23217448.364 7  -2825198.84147  23217444.15247      2443.779
  -5851782.098 7  22008398.682 7  -5814876.26848  22008393.81148       261.289
  -6001235.666 7  20471102.630 7  -4830121.70349  20471098.14649     -2227.012
 05  3 15  6 12 15.0000000  0  7G 1G 2G 5G 6G21G25G30
   2168706.460 2  24305972.946 2   2493198.52246  24305968.55746     -2885.293
   5363217.365 6  23353903.683 6   4186135.10746  23353897.64546     -3838.042
  12093255.011 4  22763507.453 4   9442828.64447  22763504.11747     -3778.999
  -9084653.383 7  20356316.898 7  -8052844.14749  20356312.56749      -925.469
  -3732173.052 7  23210476.838 7  -2853746.33548  23210472.45448      2441.113
  -5855638.660 7  22007664.752 7  -5817881.40348  22007659.96848       252.949
  -5967783.250 8  20477468.418 8  -4804054.89549  20477463.93849     -2233.320
 05  3 15  6 12 30.0000000  0  7G 1G 2G 5G 6G21G25G30
   2212026.427 3  24314216.368 3   2526954.34946  24314212.10146     -2890.898
   5420837.291 5  23364868.415 5   4231033.71546  23364862.52946     -3844.790
  12149967.360 5  22774299.438 5   9487020.07447  22774296.20647     -3782.695
  -9070728.486 7  20358966.706 7  -8041993.58749  20358962.42449      -931.250
  -3768766.973 7  23203513.358 7  -2882261.07248  23203508.74348      2438.096
  -5859369.347 7  22006954.793 7  -5820788.43948  22006950.06748       244.360
  -5934236.323 8  20483852.204 8  -4777914.44849  20483847.71349     -2239.761
 05  3 15  6 12 45.0000000  0  7G 1G 2G 5G 6G21G25G30
   2255431.276 3  24322476.045 3   2560776.23846  24322471.84446     -2896.460
   5478554.568 4  23375851.538 4   4276008.20846  23375845.93546     -3851.157
  12206734.151 5  22785101.779 5   9531253.88147  22785098.63647     -3786.108
  -9056718.721 7  20361632.657 7  -8031076.90249  20361628.42449      -936.758
  -3805317.174 7  23196558.148 7  -2910741.75848  23196553.39548      2435.229
  -5862972.766 7  22006269.069 7  -5823596.31248  22006264.39948       236.055
  -5900593.568 8  20490254.227 8  -4751699.33049  20490249.71949     -2245.977
 05  3 15  6 13  0.0000000  0  7G 1G 2G 5G 6G21G25G30
   2298920.029 4  24330751.752 4   2594663.57646  24330747.57246     -2902.222
   5536368.151 3  23386853.020 3   4321057.72346  23386847.72146     -3857.500
  12263554.599 6  22795914.325 6   9575529.52347  22795911.18547     -3789.907
  -9042624.788 7  20364314.638 7  -8020094.61049  20364310.41549      -942.480
  -3841824.219 7  23189611.112 7  -2939188.80548  23189606.24448      2432.285
  -5866449.462 7  22005607.469 7  -5826305.44448  22005602.85248       227.480
  -5866855.697 8  20496674.358 8  -4725410.09249  20496669.82749     -2252.476
 05  3 15  6 13 15.0000000  0  7G 1G 2G 5G 6G21G25G30
   2342492.992 1  24339043.264 1   2628616.48846  24339039.33746     -2907.515
   5594278.448 3  23397872.783 3   4366182.64946  23397867.93446     -3863.677
  12320429.309 6  22806737.225 6   9619847.45747  22806734.00547     -3793.325
  -9028446.087 8  20367012.764 8  -8009046.27449  20367008.51049      -947.842
  -3878287.065 6  23182672.477 6  -2967601.41248  23182667.58348      2429.614
  -5869798.680 7  22004970.151 7  -5828915.22348  22004965.52648       219.229
  -5833022.088 8  20503112.697 8  -4699046.24549  20503108.11849     -2258.530
 05  3 15  6 13 30.0000000  0  8G 1G 2G 5G 6G10G21G25G30
   2386147.901 1  24347350.155 1   2662633.30145  24347346.62345     -2913.438
   5652283.261 1  23408910.623 1   4411381.18646  23408906.11846     -3870.322
  12377356.314 6  22817570.123 6   9664206.17347  22817566.79847     -3797.095
  -9014184.599 8  20369726.652 8  -7997933.43449  20369722.33249      -953.691
    -12086.953 1  24495398.400 1     -5397.72556  24495398.24746       883.823
  -3914707.415 6  23175741.944 6  -2995980.92048  23175737.03548      2426.406
  -5873022.015 7  22004356.775 7  -5831426.91148  22004352.12148       210.483
  -5799094.596 8  20509568.903 8  -4672609.26149  20509564.26349     -2265.181
 05  3 15  6 13 45.0000000  0  8G 1G 2G 5G 6G10G21G25G30
   2429886.236 1  24355673.145 1   2696715.12545  24355669.75245     -2918.677
   5710384.049 4  23419966.921 4   4456654.60246  23419962.55146     -3876.626
  12434337.376 6  22828413.363 6   9708606.97047  22828409.97547     -3800.464
  -8999838.543 7  20372456.624 7  -7986754.68649  20372452.27349      -959.214
    -25300.249 2  24492884.063 2    -15693.78646  24492883.06046       877.739
  -3951083.105 6  23168819.883 6  -3024325.60147  23168814.97447      2423.584
  -5876117.368 7  22003767.739 7  -5833838.87648  22003763.07848       202.129
  -5765071.381 8  20516043.346 8  -4646097.68049  20516038.63649     -2271.353
 05  3 15  6 14  0.0000000  0  7G 2G 5G 6G10G21G25G30
   5768577.897 5  23431041.078 5   4502000.37246  23431036.68046     -3882.691
  12491369.814 6  22839266.351 6   9753047.79947  22839262.93647     -3803.838
  -8985410.560 8  20375202.195 8  -7975512.10649  20375197.82749      -964.575
    -38419.958 1  24490386.860 1    -25916.90346  24490386.53446       871.611
  -3987416.149 6  23161905.889 6  -3052637.07847  23161901.01447      2420.776
  -5879087.180 7  22003202.580 7  -5836153.01148  22003197.94848       193.818
  -5730954.942 8  20522535.536 8  -4619513.45549  20522530.77149     -2277.515
 05  3 15  6 14 15.0000000  0  7G 2G 5G 6G10G21G25G30
   5826864.533 5  23442132.878 5   4547418.40846  23442128.24946     -3888.789
  12548453.491 6  22850129.053 6   9797528.54947  22850125.64347     -3807.265
  -8970900.846 7  20377963.319 7  -7964205.84049  20377958.93249      -970.044
    -51445.603 1  24487907.778 1    -36066.75646  24487907.62946       865.220
  -4023706.249 6  23154999.955 6  -3080915.05947  23154995.17747      2417.837
  -5881931.375 7  22002661.339 7  -5838369.27648  22002656.74148       185.420
  -5696745.387 8  20529045.432 8  -4592856.66749  20529040.63349     -2283.711
 05  3 15  6 14 30.0000000  0  7G 2G 5G 6G10G21G25G30
   5885243.650 5  23453242.259 5   4592908.55946  23453237.19046     -3895.171
  12605588.445 6  22861001.475 6   9842049.25647  22860998.04847     -3810.811
  -8956309.377 7  20380740.007 7  -7952835.87449  20380735.57149      -975.586
    -64376.952 3  24485447.128 3    -46143.16145  24485446.65445       858.760
  -4059953.278 6  23148102.205 6  -3109159.50247  23148097.53247      2414.888
  -5884649.718 7  22002144.052 7  -5840487.47248  22002139.48748       176.958
  -5662442.654 8  20535573.060 8  -4566127.27949  20535568.23049     -2290.078
 05  3 15  6 14 45.0000000  0  7G 2G 5G 6G10G21G25G30
   5943715.958 5  23464369.495 5   4638471.34946  23464363.76846     -3901.201
  12662775.722 6  22871883.861 6   9886610.74147  22871880.41447     -3814.033
  -8941635.062 7  20383532.448 7  -7941401.35549  20383527.97949      -980.884
    -77212.434 3  24483004.892 3    -56144.76846  24483004.02746       852.671
  -4096155.671 6  23141213.030 6  -3137369.15347  23141208.37747      2412.080
  -5887240.803 7  22001650.993 7  -5842506.50948  22001646.45248       168.696
  -5628045.561 8  20542118.649 8  -4539324.36349  20542113.78449     -2296.147
 05  3 15  6 15  0.0000000  0  8G 1G 2G 5G 6G10G21G25G30
     72940.966 2  24397519.496 2   2758838.22745  24397515.16745     -2944.946
   6002278.829 5  23475514.036 5   4684104.61846  23475507.73346     -3907.129
  12720013.016 6  22882775.824 6   9931211.19147  22882772.36147     -3817.471
  -8926880.343 7  20386340.172 7  -7929904.16249  20386335.71549      -986.245
    -89953.939 4  24480580.429 4    -66073.18046  24480579.31946       846.304
  -4132315.375 6  23134332.002 6  -3165545.54247  23134327.34347      2409.302
  -5889706.741 7  22001181.756 7  -5844428.01748  22001177.20048       160.264
  -5593556.430 8  20548681.740 8  -4512449.71849  20548676.85949     -2302.256
 05  3 15  6 15 15.0000000  0  8G 1G 2G 5G 6G10G21G25G30
    117160.048 2  24405934.107 2   2793294.62145  24405930.43645     -2950.791
   6060935.145 5  23486676.352 5   4729810.81746  23486669.55846     -3913.565
  12777303.145 6  22893677.842 6   9975852.83047  22893674.43147     -3821.094
  -8912041.942 7  20389163.826 7  -7918341.77549  20389159.38749      -992.046
   -102598.203 4  24478174.346 4    -75925.84546  24478173.18446       839.575
  -4168429.101 6  23127459.744 6  -3193686.09347  23127455.12247      2405.991
  -5892044.493 7  22000736.915 7  -5846249.65248  22000732.32748       151.558
  -5558972.065 8  20555262.958 8  -4485500.88949  20555258.03849     -2308.809
 05  3 15  6 15 30.0000000  0  8G 1G 2G 5G 6G10G21G25G30
    161459.098 1  24414363.780 1   2827813.31345  24414360.39145     -2955.986
   6119683.984 5  23497856.057 5   4775589.09346  23497849.09746     -3919.785
  12834645.623 6  22904589.812 6  10020535.23847  22904586.51247     -3824.668
  -8897120.827 7  20392003.224 7  -7906714.94149  20391998.80949      -997.554
   -115145.305 4  24475786.758 4    -85702.76746  24475785.56446       833.223
  -4204496.976 6  23120596.196 6  -3221790.95147  23120591.59347      2402.905
  -5894254.315 7  22000316.381 7  -5847971.59748  22000311.76348       142.988
  -5524293.194 8  20561862.148 8  -4458478.38849  20561857.21349     -2315.181
 05  3 15  6 15 45.0000000  0  8G 1G 2G 5G 6G10G21G25G30
    205836.181 3  24422808.478 3   2862392.83643  24422804.97843     -2961.001
   6178523.416 4  23509052.841 4   4821437.93946  23509046.00346     -3925.474
  12892038.749 6  22915511.441 6  10065257.12047  22915508.22847     -3827.813
  -8882118.611 7  20394858.042 7  -7895024.90449  20394853.67449     -1002.739
   -127596.381 3  24473417.400 3    -95404.87846  24473416.20446       826.807
  -4240520.251 6  23113741.167 6  -3249861.04747  23113736.51947      2400.088
  -5896337.538 7  21999919.911 7  -5849594.89848  21999915.28048       134.761
  -5489521.374 8  20568479.014 8  -4431383.48549  20568474.12049     -2321.128
 05  3 15  6 16  0.0000000  0  8G 1G 2G 5G 6G10G21G25G30
    250290.779 2  24431267.760 2   2897032.79744  24431264.42844     -2966.226
   6237452.811 1  23520266.537 1   4867357.05846  23520260.07046     -3931.611
  12949482.159 6  22926442.664 6  10110018.16347  22926439.44747     -3831.245
  -8867035.336 7  20397728.284 7  -7883271.71149  20397723.96449     -1008.193
                  24471066.275 1                  24471070.2054
  -4276498.934 6  23106894.607 6  -3277896.38047  23106889.96347      2397.075
  -5898294.188 7  21999547.542 7  -5851119.57648  21999542.91748       126.235
  -5454656.766 8  20575113.542 8  -4404216.27249  20575108.68149     -2327.349
 05  3 15  6 16 15.0000000  0  8G 1G 2G 5G 6G10G21G25G30
    294823.917 2  24439742.234 2   2931734.00844  24439738.79644     -2971.592
   6296473.222 2  23531497.512 2   4913346.89445  23531491.52045     -3937.554
  13006977.083 6  22937383.668 6  10154819.37647  22937380.36547     -3834.697
  -8851870.015 7  20400614.155 7  -7871454.57949  20400609.85649     -1013.721
   -152208.784 3  24468733.563 3   -114583.37046  24468733.87646       813.911
  -4312431.342 6  23100056.930 6  -3305895.65447  23100052.20947      2393.984
  -5900122.919 7  21999199.566 7  -5852544.57548  21999194.95248       117.612
  -5419698.113 8  20581765.975 8  -4376975.77849  20581761.17049     -2333.735
 05  3 15  6 16 30.0000000  0  8G 1G 2G 5G 6G10G21G25G30
    339435.126 3  24448231.678 3   2966495.96945  24448228.04745     -2976.611
   6355584.310 1  23542745.660 1   4959407.42745  23542740.16645     -3943.599
  13064523.440 6  22948334.434 6  10199660.65047  22948331.08347     -3838.076
  -8836622.724 8  20403515.636 8  -7859573.56549  20403511.33549     -1019.102
   -164368.109 4  24466419.803 4   -124058.09246  24466419.17646       807.353
  -4348317.323 6  23093228.132 6  -3333858.73547  23093223.30147      2391.025
  -5901823.656 7  21998875.970 7  -5853869.83348  21998871.38848       109.199
  -5384645.452 8  20588436.297 8  -4349662.02549  20588431.53749     -2339.858
 05  3 15  6 16 45.0000000  0  8G 1G 2G 5G 6G10G21G25G30
    384123.429 1  24456735.731 1   3001317.92244  24456732.02244     -2981.880
   6414784.918 1  23554010.726 1   5005537.73045  23554005.79245     -3949.722
  13122120.356 6  22959294.836 6  10244541.32847  22959291.38647     -3841.484
  -8821294.371 8  20406432.543 8  -7847629.40449  20406428.20849     -1024.619
   -176429.749 4  24464124.604 4   -133456.74746  24464123.81146       800.786
  -4384157.081 6  23086408.149 6  -3361785.83247  23086403.14847      2387.710
  -5903396.888 7  21998576.669 7  -5855095.73548  21998572.13548       100.527
  -5349499.558 8  20595124.341 8  -4322275.62749  20595119.60649     -2346.196
 05  3 15  6 17  0.0000000  0  8G 1G 2G 5G 6G10G21G25G30
    428890.807 1  24465254.668 1   3036201.54344  24465251.09844     -2987.095
   6474077.296 2  23565293.138 2   5051739.54546  23565292.73446     -3956.113
  13179770.177 6  22970265.300 6  10289463.24247  22970261.70647     -3845.239
  -8805882.371 8  20409365.366 8  -7835620.05449  20409360.97649     -1030.435
   -188390.885 4  24461848.508 4   -142777.15446  24461847.69846       794.063
  -4419947.988 6  23079597.447 6  -3389674.85047  23079592.28347      2384.341
  -5904840.029 7  21998302.102 7  -5856220.27048  21998297.66248        91.772
  -5314257.907 8  20601830.617 8  -4294814.61149  20601825.90349     -2352.788
 05  3 15  6 17 15.0000000  0  8G 1G 2G 5G 6G10G21G25G30
    473736.239 1  24473788.378 1   3071146.07045  24473785.01645     -2992.271
   6533460.168 2  23576593.216 2   5098011.88146  23576591.43146     -3961.904
  13237472.170 6  22981245.739 6  10334425.79847  22981241.94147     -3848.565
  -8790387.664 8  20412313.925 8  -7823546.27249  20412309.48549     -1035.742
   -200251.975 5  24459591.350 5   -152019.55846  24459590.57246       787.432
  -4455690.402 6  23072795.871 6  -3417526.04147  23072790.70647      2381.172
  -5906153.769 7  21998052.101 7  -5857243.96348  21998047.80148        83.213
  -5278921.292 8  20608554.924 8  -4267279.60349  20608550.27849     -2358.960
 05  3 15  6 17 30.0000000  0  8G 1G 2G 5G 6G10G21G25G30
    518656.777 1  24482336.485 1   3106148.98445  24482333.28845     -2997.061
   6592930.664 4  23587910.117 4   5144352.50546  23587907.58446     -3967.461
  13295223.572 6  22992235.546 6  10379426.86947  22992231.57647     -3851.670
  -8774813.107 8  20415277.671 8  -7811410.24849  20415273.21449     -1040.889
   -212015.404 4  24457352.653 4   -161185.81946  24457351.98146       781.099
  -4491386.765 6  23066003.057 6  -3445341.38047  23065997.89047      2378.330
  -5907340.555 7  21997826.253 7  -5858168.73448  21997822.05848        74.878
  -5243492.400 8  20615296.795 8  -4239672.68849  20615292.19849     -2364.937
 05  3 15  6 17 45.0000000  0  8G 1G 2G 5G 6G10G21G25G30
    563652.871 1  24490898.948 1   3141210.85244  24490896.89244     -3002.188
   6652489.324 1  23599243.819 1   5190761.81346  23599240.97346     -3973.247
  13353025.102 6  23003234.918 6  10424466.98548  23003230.86048     -3855.005
  -8759157.839 7  20418256.767 7  -7799211.35149  20418252.32349     -1046.255
   -223679.830 4  24455132.939 4   -170274.95946  24455132.15946       774.492
  -4527035.779 6  23059219.315 6  -3473119.83748  23059214.12748      2375.064
  -5908399.277 7  21997624.779 7  -5858993.72648  21997620.64348        66.367
  -5207970.354 8  20622056.399 8  -4211993.18949  20622051.86549     -2371.182
 05  3 15  6 18  0.0000000  0  8G 1G 2G 5G 6G10G21G25G30
    608724.837 3  24499475.908 3   3176331.86345  24499473.10245     -3007.290
   6712136.557 1  23610594.409 1   5237240.14346  23610591.40446     -3979.438
  13410877.374 6  23014243.868 6  10469546.62748  23014239.93448     -3858.501
  -8743421.187 8  20421251.341 8  -7786949.02449  20421246.91649     -1051.865
   -235244.259 5  24452932.366 5   -179286.21146  24452931.41846       767.578
  -4562636.580 6  23052444.733 6  -3500860.69447  23052439.61547      2371.763
  -5909329.156 7  21997447.818 7  -5859718.32648  21997443.73348        57.671
  -5172354.505 8  20628833.856 8  -4184240.59549  20628829.40649     -2377.500
 05  3 15  6 18 15.0000000  0  8G 1G 2G 5G 6G10G21G25G30
    653871.409 3  24508067.135 3   3211510.94145  24508063.82345     -3012.222
   6771870.933 3  23621961.570 3   5283786.34946  23621958.56146     -3985.156
  13468779.340 6  23025262.227 6  10514665.00247  23025258.48847     -3861.611
  -8727604.226 7  20424261.190 7  -7774624.12049  20424256.77749     -1057.007
   -246709.237 5  24450750.697 5   -188219.96546  24450749.66046       761.206
  -4598189.913 6  23045679.158 6  -3528564.60048  23045674.15748      2368.716
  -5910130.943 7  21997295.258 7  -5860343.10548  21997291.16948        49.312
  -5136645.818 8  20635629.004 8  -4156415.65749  20635624.63149     -2383.486
 05  3 15  6 18 30.0000000  0  8G 1G 2G 5G 6G10G21G25G30
    699091.886 3  24516672.445 3   3246747.66045  24516668.94645     -3017.070
   6831691.730 4  23633345.222 4   5330399.86546  23633342.25746     -3990.908
  13526730.546 6  23036289.931 6  10559821.75447  23036286.39547     -3865.034
  -8711707.307 8  20427286.265 8  -7762236.92149  20427281.83449     -1062.407
   -258074.893 5  24448587.874 5   -197076.30246  24448586.75246       754.390
  -4633695.569 6  23038922.665 6  -3556231.34448  23038917.81948      2365.483
  -5910804.932 7  21997167.027 7  -5860868.29948  21997162.89648        40.698
  -5100844.649 8  20642441.753 8  -4128518.66749  20642437.46649     -2389.893
 05  3 15  6 18 45.0000000  0  8G 1G 2G 5G 6G10G21G25G30
    744387.349 2  24525291.863 2   3282042.84045  24525288.58945     -3022.041
   6891600.015 5  23644745.516 5   5377081.60646  23644742.54146     -3996.650
  13584732.293 6  23047327.260 6  10605017.84847  23047323.86847     -3868.399
  -8695729.297 8  20430326.793 8  -7749786.53549  20430322.32149     -1067.852
   -269339.393 5  24446444.238 5   -205853.85146  24446443.03346       747.690
  -4669151.767 6  23032175.615 6  -3583859.54548  23032170.88448      2362.168
  -5911349.562 7  21997063.424 7  -5861292.68848  21997059.22348        31.997
  -5064949.588 8  20649272.348 8  -4100548.49049  20649268.13949     -2396.040
 05  3 15  6 19  0.0000000  0  8G 1G 2G 5G 6G10G21G25G30
    789757.581 2  24533925.578 2   3317396.20344  24533922.47944     -3027.231
   6951595.704 5  23656162.541 5   5423831.43246  23656159.33346     -4002.617
  13642784.637 6  23058374.218 6  10650253.39147  23058370.92247     -3872.046
  -8679670.034 8  20433382.789 8  -7737272.83649  20433378.29749     -1073.555
   -280502.192 4  24444319.940 4   -214552.09346  24444318.61746       740.542
  -4704558.198 6  23025438.020 6  -3611448.94947  23025433.35447      2358.608
  -5911764.540 7  21996984.479 7  -5861616.05048  21996980.22348        23.154
  -5028960.499 8  20656120.835 8  -4072505.06449  20656116.73549     -2402.607
 05  3 15  6 19 15.0000000  0  8G 1G 2G 5G 6G10G21G25G30
    835202.865 1  24542573.590 1   3352808.06645  24542570.60345     -3032.036
   7011679.173 5  23667596.372 5   5470649.62446  23667592.70846     -4008.335
  13700888.196 6  23069430.971 6  10695528.86147  23069427.68947     -3875.078
  -8663528.887 8  20436454.382 8  -7724695.33149  20436449.89849     -1078.647
   -291562.298 5  24442215.343 5   -223170.31747  24442213.76047       734.087
  -4739913.948 6  23018710.018 6  -3638998.88647  23018705.38547      2355.576
  -5912049.014 7  21996930.342 7  -5861837.72148  21996926.07348        14.741
  -4992876.775 8  20662987.300 8  -4044387.89349  20662983.35149     -2408.584
 05  3 15  6 19 30.0000000  0  8G 1G 2G 5G 6G10G21G25G30
    880719.541 1  24551235.326 1                                     -3037.095
   7071846.598 4  23679046.170 4   5517533.26846  23679041.87446     -4014.107
  13759039.448 6  23080496.792 6  10740841.49947  23080493.58247     -3878.408
  -8647309.408 8  20439540.862 8  -7712056.78349  20439536.41749     -1083.960
   -302522.813 5  24440129.659 5   -231710.90346  24440127.95446       727.270
  -4775222.010 6  23011991.098 6  -3666511.66247  23011986.46147      2352.202
  -5912206.146 7  21996900.429 7  -5861960.16048  21996896.13848         6.118
  -4956701.690 7  20669871.150 7  -4016199.53749  20669867.27949     -2414.849
 05  3 15  6 19 45.0000000  0  8G 1G 2G 5G 6G10G21G25G30
    926309.981 1  24559910.970 1                                     -3041.802
   7132100.303 4  23690512.217 4   5564484.19946  23690507.32346     -4019.819
  13817240.993 6  23091572.210 6  10786193.31347  23091569.07447     -3881.865
  -8631008.888 8  20442642.761 8  -7699355.07949  20442638.36149     -1089.453
   -313380.661 5  24438063.453 5   -240171.60446  24438061.71646       720.356
  -4810479.435 6  23005281.818 6  -3693984.98547  23005277.12347      2348.721
  -5912233.238 7  21996895.254 7  -5861981.27048  21996890.93548        -2.539
  -4920432.637 8  20676772.887 8  -3987937.94549  20676769.04249     -2421.123
 05  3 15  6 20  0.0000000  0  8G 1G 2G 5G 6G10G21G25G30
    971973.684 1  24568600.721 1                                     -3046.475
   7192439.914 4  23701994.612 4   5611501.96446  23701989.17446     -4025.449
  13875492.505 6  23102657.147 6  10831584.03547  23102654.16947     -3884.990
  -8614627.657 8  20445760.026 8  -7686590.48649  20445755.65849     -1094.629
   -324135.753 5  24436016.848 5   -248552.13846  24436015.02646       713.613
  -4845686.032 6  22998582.268 6  -3721418.68947  22998577.44247      2345.449
  -5912130.198 7  21996914.883 7  -5861900.98848  21996910.48148       -11.143
  -4884069.799 7  20683692.466 7  -3959603.27149  20683688.64949     -2427.212
 05  3 15  6 20 15.0000000  0  8G 1G 2G 5G 6G10G21G25G30
   1017709.496 1  24577304.254 1                                     -3051.528
   7252864.279 3  23713493.056 3   5658585.77046  23713487.25146     -4031.392
  13933793.405 6  23113751.432 6  10877013.28147  23113748.60147     -3888.511
  -8598166.400 8  20448892.523 8  -7673763.53249  20448888.17649     -1100.273
   -334788.330 5  24433989.734 5   -256852.81147  24433987.84947       706.548
  -4880842.104 6  22991892.299 6  -3748813.03447  22991887.43147      2341.963
  -5911897.598 7  21996959.161 7  -5861719.75748  21996954.68748       -19.941
  -4847613.851 7  20690629.781 7  -3931196.06549  20690626.03449     -2433.638
 05  3 15  6 20 30.0000000  0  8G 1G 2G 5G 6G10G21G25G30
   1063517.734 1  24586021.324 1                                     -3056.074
   7313373.693 2  23725007.589 2   5705736.00346  23725001.58546     -4036.787
  13992144.048 6  23124855.196 6  10922481.29647  23124852.35947     -3891.646
  -8581624.750 7  20452040.313 7  -7660873.94049  20452035.98249     -1105.386
   -345337.598 5  24431982.317 5   -265073.00446  24431980.31046       699.853
  -4915946.746 7  22985212.089 7  -3776167.30047  22985207.26747      2338.574
  -5911534.796 7  21997028.230 7  -5861437.05848  21997023.68348       -28.423
  -4811064.248 8  20697584.933 8  -3902715.86649  20697581.23049     -2439.727
 05  3 15  6 20 45.0000000  0  8G 1G 2G 5G 6G10G21G25G30
   1109395.452 1  24594751.374 1                                     -3061.021
   7373965.225 3  23736537.547 3   5752950.16845  23736531.66145     -4042.080
  14050541.865 6  23135967.941 6  10967986.06047  23135965.05047     -3894.839
  -8565005.219 7  20455202.921 7  -7647923.65749  20455198.57149     -1110.630
   -355785.748 6  24429994.165 6   -273214.41547  24429991.97147       693.096
  -4951002.406 7  22978541.260 7  -3803483.38448  22978536.42348      2335.298
  -5911044.112 7  21997121.642 7  -5861054.69348  21997117.03148       -37.080
  -4774423.562 8  20704557.420 8  -3874164.69449  20704553.69849     -2445.815
 05  3 15  6 21  0.0000000  0  8G 1G 2G 5G 6G10G21G25G30
                  24603495.516 1
   7434643.467 1  23748083.873 1   5800231.89545  23748078.33445     -4048.149
  14108991.612 6  23147090.619 6  11013531.29747  23147087.63847     -3898.325
  -8548303.279 7  20458381.180 7  -7634909.17049  20458376.82849     -1116.221
   -366127.604 6  24428026.224 6   -281273.04247  24428023.88147       685.972
  -4986003.790 7  22971880.725 7  -3830757.17048  22971875.87748      2331.675
  -5910420.540 7  21997240.347 7  -5860568.80249  21997235.70549       -45.967
  -4737687.080 8  20711548.145 8  -3845538.88149  20711544.44949     -2452.217
 05  3 15  6 21 15.0000000  0  8G 1G 2G 5G 6G10G21G25G30
   1201369.721 1  24612253.642 1                                     -3070.698
   7495405.250 1  23759646.161 1   5847578.72345  23759640.95845     -4053.628
  14167490.451 6  23158222.637 6  11059114.78947  23158219.67547     -3901.445
  -8531521.492 7  20461574.628 7  -7621832.45549  20461570.26849     -1121.250
   -376365.496 5  24426078.040 5   -289250.58547  24426075.60547       679.141
  -5020953.236 7  22965230.031 7  -3857990.48848  22965225.15548      2328.355
  -5909666.553 7  21997383.822 7  -5859981.28248  21997379.22148       -54.468
  -4700857.336 8  20718556.652 8  -3816840.39549  20718552.97449     -2458.272
 05  3 15  6 21 30.0000000  0  8G 1G 2G 5G 6G10G21G25G30
   1247461.446 1  24621024.554 1                                     -3075.171
   7556248.945 3  23771224.224 3   5894989.40745  23771219.18545     -4059.048
  14226036.759 6  23169363.605 6  11104735.24747  23169360.82347     -3904.717
  -8514661.394 7  20464782.961 7  -7608694.72449  20464778.57849     -1126.641
   -386500.481 6  24424149.467 6   -297147.94846  24424146.94046       672.168
  -5055852.027 7  22958588.980 7  -3885184.34048  22958584.10248      2324.829
  -5908783.686 7  21997551.811 7  -5859293.35448  21997547.30248       -63.145
  -4663935.938 8  20725582.597 8  -3788070.49449  20725578.95049     -2464.531
 05  3 15  6 21 45.0000000  0  8G 1G 2G 5G 6G10G21G25G30
   1293624.722 1  24629808.892 1                                     -3079.956
   7617176.812 5  23782818.481 5   5942465.61146  23782813.45346     -4064.639
  14284633.194 6  23180514.147 6  11150394.75247  23180511.54447     -3908.027
  -8497720.401 7  20468006.692 7  -7595493.95449  20468002.25949     -1132.095
   -396529.591 5  24422241.007 5   -304962.78146  24422238.40946       665.137
  -5090697.034 7  22951958.241 7  -3912336.29548  22951953.34748      2321.245
  -5907768.944 7  21997744.887 7  -5858502.64748  21997740.47148       -72.046
  -4626920.124 8  20732626.508 8  -3759227.01749  20732622.86349     -2470.855
 05  3 15  6 22  0.0000000  0  8G 1G 2G 5G 6G10G21G25G30
                  24638606.749 1
   7678186.599 5  23794428.357 5   5990005.70746  23794423.35346     -4069.883
  14343277.740 6  23191673.815 6  11196091.75047  23191671.42947     -3911.162
  -8480700.619 7  20471245.435 7  -7582231.79749  20471240.95049     -1137.163
   -406454.398 4  24420352.315 4   -312696.35246  24420349.65846       658.296
  -5125490.052 7  22945337.380 7  -3939447.72348  22945332.47848      2317.930
  -5906624.327 7  21997962.656 7  -5857610.76348  21997958.33148       -80.488
  -4589811.835 8  20739688.021 8  -3730311.48349  20739684.30749     -2476.855
 05  3 15  6 22 15.0000000  0  7G 2G 5G 6G10G21G25G30
   7739278.151 5  23806053.777 5   6037609.48046  23806048.84246     -4075.566
  14401970.359 6  23202842.627 6  11241826.23147  23202840.35347     -3914.414
  -8463601.943 7  20474499.216 7  -7568908.16449  20474494.70649     -1142.549
   -416274.324 4  24418483.469 4   -320348.33046  24418480.78646       651.289
  -5160230.446 7  22938726.508 7  -3966518.15248  22938721.60348      2314.302
  -5905349.405 7  21998205.204 7  -5856617.32648  21998200.93248       -89.297
  -4552610.987 8  20746767.148 8  -3701323.81849  20746763.36249     -2483.120
 05  3 15  6 22 30.0000000  0  7G 2G 5G 6G10G21G25G30
   7800453.346 5  23817695.107 5   6085278.41446  23817690.21546     -4081.050
  14460713.332 6  23214021.005 6  11287599.90547  23214018.74347     -3917.910
  -8446422.229 7  20477768.431 7  -7555521.37249  20477763.94049     -1148.091
   -425986.983 5  24416635.169 5   -327916.55546  24416632.26846       643.906
  -5194915.610 7  22932126.169 7  -3993545.53748  22932121.28748      2310.498
  -5903941.862 7  21998473.025 7  -5855520.54648  21998468.75848       -98.193
  -4515315.265 8  20753864.331 8  -3672262.22449  20753860.51249     -2489.561
 05  3 15  6 22 45.0000000  0  7G 2G 5G 6G10G21G25G30
   7861710.989 5  23829352.143 5   6133011.55946  23829347.22046     -4086.694
  14519505.655 6  23225208.897 6  11333412.06447  23225206.44747     -3921.216
  -8429162.384 7  20481052.903 7  -7542072.16149  20481048.43949     -1153.398
   -435592.756 5  24414807.304 5   -335401.54846  24414804.20246       636.743
  -5229546.194 7  22925536.214 7  -4020530.42248  22925531.35648      2306.841
  -5902402.309 6  21998765.982 6  -5854320.88948  21998761.72348      -107.187
  -4477925.691 8  20760979.348 8  -3643127.50149  20760975.55549     -2495.864
 05  3 15  6 23  0.0000000  0  7G 2G 5G 6G10G21G25G30
   7923050.847 4  23841024.820 4   6180808.87846  23841019.76146     -4092.207
  14578347.583 6  23236406.213 6  11379262.88747  23236403.57947     -3924.473
  -8411822.212 7  20484352.649 7  -7528560.32549  20484348.21649     -1158.667
   -445091.132 6  24412999.982 6   -342802.85347  24412996.68647       629.605
  -5264121.737 7  22918956.757 7  -4047472.40748  22918951.85848      2303.198
  -5900730.449 7  21999084.123 7  -5853018.15248  21999079.90648      -115.879
  -4440441.864 8  20768112.294 8  -3613919.33349  20768108.51849     -2502.070
 05  3 15  6 23 15.0000000  0  7G 2G 5G 6G10G21G25G30
   7984470.349 5  23852712.678 5   6228668.10446  23852707.54646     -4097.402
  14637236.541 6  23247612.448 6  11425150.35547  23247609.70747     -3927.520
  -8394404.292 7  20487667.178 7  -7514987.93449  20487662.78549     -1163.823
   -454484.249 6  24411212.650 6   -350122.13047  24411209.31847       622.734
  -5298644.325 7  22912387.353 7  -4074373.11248  22912382.47748      2299.663
  -5898928.598 6  21999426.998 6  -5851614.12248  21999422.84448      -124.453
  -4402866.450 8  20775262.679 8  -3584639.80349  20775258.87549     -2508.140
 05  3 15  6 23 30.0000000  0  7G 2G 5G 6G10G21G25G30
   8045970.155 5  23864415.789 5   6276589.96147  23864410.73047     -4102.656
  14696173.658 6  23258827.864 6  11471075.35147  23258825.03747     -3930.791
  -8376907.576 7  20490996.679 7  -7501354.13649  20490992.31449     -1169.082
   -463770.504 6  24409445.579 6   -357358.16847  24409442.30947       615.596
  -5333112.271 7  22905828.324 7  -4101231.24548  22905823.50648      2296.030
  -5896995.387 6  21999794.852 6  -5850107.73448  21999790.74348      -133.301
  -4365197.960 8  20782430.772 8  -3555287.74549  20782426.95449     -2514.341
 05  3 15  6 23 45.0000000  0  7G 2G 5G 6G10G21G25G30
   8107551.504 5  23876134.423 5   6324575.38846  23876129.54646     -4108.213
  14755160.188 6  23270052.726 6  11517038.83247  23270049.79947     -3934.072
  -8359330.576 7  20494341.456 7  -7487657.76549  20494337.11149     -1174.497
   -472948.212 6  24407699.110 6   -364509.57347  24407696.03547       608.184
  -5367523.999 7  22899279.971 7  -4128045.55048  22899275.25548      2292.222
  -5894929.152 6  22000188.060 6  -5848497.68348  22000183.91948      -142.168
  -4327435.324 8  20789616.772 8  -3525862.32249  20789612.92949     -2520.645
 05  3 15  6 24  0.0000000  0  7G 2G 5G 6G10G21G25G30
   8169214.425 5  23887868.536 5   6372624.39946  23887863.90346     -4113.564
  14814196.243 6  23281286.988 6  11563040.93047  23281284.00147     -3937.339
  -8341673.092 7  20497701.532 7  -7473898.69349  20497697.22949     -1179.771
   -482016.803 6  24405973.404 6   -371575.99447  24405970.54947       601.016
  -5401878.851 7  22892742.420 7  -4154815.55748  22892737.81448      2288.496
  -5892729.634 7  22000606.621 7  -5846783.78348  22000602.44548      -150.991
  -4289578.144 8  20796820.764 8  -3496363.23949  20796816.90949     -2526.860
 05  3 15  6 24 15.0000000  0  7G 2G 5G 6G10G21G25G30
   8230957.008 4  23899617.753 4   6420735.40546  23899613.44446     -4118.833
  14873280.343 6  23292530.375 6  11609080.44147  23292527.33147     -3940.518
  -8323936.811 7  20501076.603 7  -7460078.21349  20501072.34849     -1185.020
   -490977.517 6  24404268.169 6   -378558.34546  24404265.56246       593.696
  -5436178.177 7  22886215.455 7  -4181542.29848  22886210.88748      2284.785
  -5890398.315 7  22001050.316 7  -5844967.18048  22001046.02748      -159.824
  -4251627.990 8  20804042.450 8  -3466791.70549  20804038.58249     -2533.023
 05  3 15  6 24 30.0000000  0  7G 2G 5G 6G10G21G25G30
   8292776.761 3  23911381.651 3   6468906.57346  23911377.59346     -4123.769
  14932410.353 6  23303782.470 6  11655155.75047  23303779.38547     -3943.501
  -8306123.749 7  20504466.287 7  -7446197.92049  20504462.03149     -1190.078
   -499831.935 6  24402583.152 6   -385457.94046  24402580.83246       586.812
  -5470423.428 7  22879698.793 7  -4208226.88948  22879694.26548      2281.260
  -5887936.972 7  22001518.736 7  -5843049.25448  22001514.37148      -168.389
  -4213586.696 8  20811281.471 8  -3437149.15149  20811277.58549     -2539.038
 05  3 15  6 24 45.0000000  0  7G 2G 5G 6G10G21G25G30
   8354673.141 3  23923160.158 3   6517137.47346  23923156.23046     -4129.028
  14991585.797 6  23315043.186 6  11701266.42947  23315040.07247     -3946.602
  -8288234.366 7  20507870.528 7  -7432258.14549  20507866.19449     -1195.176
   -508580.071 5  24400918.469 5   -392274.65646  24400916.28246       579.565
  -5504614.688 7  22873192.416 7  -4234869.42548  22873187.91848      2277.539
  -5885345.840 7  22002011.875 7  -5841030.19248  22002007.43848      -177.085
  -4175454.856 8  20818537.722 8  -3407436.04049  20818533.83249     -2545.171
 05  3 15  6 25  0.0000000  0  7G 2G 5G 6G10G21G25G30
   8416648.543 5  23934953.744 5   6565429.89846  23934949.81746     -4134.302
  15050809.412 5  23326313.060 5  11747414.66547  23326309.95947     -3949.844
  -8270265.989 7  20511289.829 7  -7418256.81649  20511285.38649     -1200.537
   -517218.681 5  24399274.550 5   -399006.04047  24399272.68347       572.139
  -5538748.874 7  22866696.876 7  -4261467.47948  22866692.44948      2273.628
  -5882621.895 7  22002530.294 7  -5838907.64248  22002525.78148      -186.147
  -4137229.612 8  20825811.747 8  -3377650.14649  20825807.84649     -2551.504
 05  3 15  6 25 15.0000000  0  7G 2G 5G 6G10G21G25G30
   8478700.771 4  23946761.903 4   6613782.29346  23946757.85646     -4139.273
  15110079.299 6  23337591.833 6  11793598.96147  23337588.57347     -3952.969
  -8252220.480 7  20514723.814 7  -7404195.38849  20514719.27449     -1205.649
   -525749.448 5  24397651.210 5   -405653.37946  24397649.57646       565.083
  -5572827.489 7  22860211.903 7  -4288022.23348  22860207.45648      2269.995
  -5879767.002 7  22003073.620 7  -5836683.06448  22003069.01748      -194.761
  -4098912.708 8  20833103.215 8  -3347792.84349  20833099.28649     -2557.515
 05  3 15  6 25 30.0000000  0  7G 2G 5G 6G10G21G25G30
   8540831.906 3  23958585.057 3   6662196.04846  23958580.85546     -4144.790
  15169397.693 6  23348879.750 6  11839821.05347  23348876.39747     -3956.411
  -8234095.631 8  20518172.879 8  -7390072.13849  20518168.31249     -1211.118
   -534169.646 5  24396048.865 5   -412214.55546  24396047.33546       557.515
  -5606847.954 7  22853737.992 7  -4314531.67748  22853733.55648      2265.894
  -5876778.575 7  22003642.301 7  -5834354.42848  22003637.66348      -203.872
  -4060502.045 8  20840412.542 8  -3317862.45849  20840408.53049     -2563.965
 05  3 15  6 25 45.0000000  0  7G 2G 5G 6G10G21G25G30
   8603040.537 3  23970422.988 3   6710670.27345  23970418.50945     -4149.878
  15228763.352 6  23360176.660 6  11886079.95647  23360173.23147     -3959.150
  -8215892.648 7  20521636.808 7  -7375888.00449  20521632.27249     -1216.099
   -542480.156 5  24394467.500 5   -418690.24346  24394465.77646       550.400
  -5640811.114 7  22847274.996 7  -4340996.45648  22847270.53548      2262.280
  -5873657.663 7  22004236.173 7  -5831922.55448  22004231.53548      -212.476
  -4021998.463 8  20847739.533 8  -3287859.68549  20847735.45749     -2569.961
 05  3 15  6 26  0.0000000  0  7G 2G 5G 6G10G21G25G30
   8665327.473 4  23982275.876 4   6759205.53545  23982271.00145     -4155.244
  15288177.297 6  23371482.803 6  11932376.49547  23371479.21447     -3962.773
  -8197610.416 8  20525115.815 8  -7361642.09749  20525111.32249     -1221.729
   -550679.387 5  24392907.199 5   -425079.23146  24392905.32846       542.720
  -5674715.486 7  22840823.192 7  -4367415.44048  22840818.66848      2258.091
  -5870402.875 7  22004855.500 7  -5829386.35248  22004850.89348      -221.646
  -3983401.109 8  20855084.369 8  -3257783.83049  20855080.24649     -2576.528
 05  3 15  6 26 15.0000000  0  7G 2G 5G 6G10G21G25G30
   8727693.524 5  23994143.904 5   6807802.41346  23994138.54546     -4160.000
  15347640.802 6  23382798.393 6  11978711.64947  23382794.68147     -3965.674
  -8179247.685 7  20528610.107 7  -7347333.48449  20528605.68449     -1226.699
   -558765.668 5  24391368.329 5   -431380.18846  24391366.46546       535.508
  -5708559.383 7  22834382.884 7  -4393787.31648  22834378.31048      2254.365
  -5867012.868 7  22005500.563 7  -5826744.79348  22005495.99648      -230.366
  -3944708.745 7  20862447.276 7  -3227633.94749  20862443.11649     -2582.520
 05  3 15  6 26 30.0000000  0  7G 2G 5G 6G10G21G25G30
   8790136.978 5  24006026.594 5   6856459.61146  24006020.89946     -4165.366
  15407152.360 6  23394123.125 6  12025084.27847  23394119.40047     -3968.955
  -8160806.078 7  20532119.418 7  -7332963.39149  20532115.04949     -1232.095
   -566740.190 5  24389850.705 5   -437594.12046  24389848.98546       527.900
  -5742344.033 6  22827953.820 6  -4420112.99948  22827949.22948      2250.391
  -5863488.996 7  22006171.110 7  -5823998.91348  22006166.53748      -239.331
  -3905922.650 8  20869828.003 8  -3197411.03649  20869823.81649     -2588.862
 05  3 15  6 26 45.0000000  0  7G 2G 5G 6G10G21G25G30
   8852657.314 5  24017923.957 5   6905176.64046  24017918.03046     -4170.298
  15466711.618 6  23405456.955 6  12071494.07646  23405453.25046     -3972.168
  -8142285.812 7  20535643.715 7  -7318532.01249  20535639.37249     -1237.236
   -574602.834 4  24388354.407 4   -443720.84846  24388352.87246       520.469
  -5776069.403 7  22821536.114 7  -4446392.49148  22821531.43348      2246.440
  -5859831.384 7  22006867.139 7  -5821148.84348  22006862.55548      -248.193
  -3867042.968 8  20877226.538 8  -3167115.20349  20877222.29249     -2595.005
 05  3 15  6 27  0.0010000  0  7G 2G 5G 6G10G21G25G30
   8915255.145 5  24029836.018 5   6953954.15646  24029829.94146     -4175.347
  15526319.201 5  23416799.839 5  12117941.50346  23416796.34146     -3975.083
  -8123689.060 8  20539182.577 8  -7304041.04249  20539178.25049     -1242.231
   -582357.037 5  24386878.795 5   -449763.05746  24386877.39746       513.271
  -5809740.531 7  22815128.722 7  -4472629.70948  22815123.94548      2242.632
  -5856042.870 7  22007588.085 7  -5818196.76549  22007583.51949      -256.899
  -3828070.576 8  20884642.737 8  -3136747.13049  20884638.41149     -2600.996
 05  3 15  6 27 15.0010000  0  7G 2G 5G 6G10G21G25G30
   8977924.046 5  24041761.591 5   7002786.98446  24041755.43646     -4180.371
  15585969.344 5  23428150.785 5  12164422.09346  23428147.46346     -3978.296
  -8105015.935 7  20542735.985 7  -7289490.55549  20542731.64349     -1247.412
   -589999.156 5  24385424.473 5   -455717.90746  24385423.21046       505.884
  -5843350.360 6  22808732.967 6  -4498819.17348  22808728.18548      2238.735
  -5852121.416 7  22008334.337 7  -5815141.10249  22008329.78249      -265.747
  -3789008.262 7  20892076.049 7  -3106308.97249  20892071.68749     -2607.183
 05  3 15  6 27 30.0010000  0  7G 2G 5G 6G10G21G25G30
   9040667.864 3  24053701.456 3   7051678.20946  24053695.24846     -4185.312
  15645665.764 5  23439510.578 5  12210938.81146  23439507.30846     -3981.279
  -8086265.461 8  20546304.120 8  -7274879.80749  20546299.76249     -1252.559
   -597529.440 5  24383991.444 5   -461585.62846  24383990.25046       498.345
  -5876900.853 6  22802348.485 6  -4524962.39648  22802343.71748      2234.878
  -5848066.864 7  22009105.924 7  -5811981.70948  22009101.35048      -274.609
  -3749853.631 7  20899526.927 7  -3075798.89349  20899522.56749     -2613.325
 05  3 15  6 27 45.0010000  0  7G 2G 5G 6G10G21G25G30
   9103486.405 3  24065655.494 3   7100627.70646  24065649.35846     -4190.571
  15705408.644 5  23450879.183 5  12257491.59946  23450876.00046     -3984.551
  -8067437.621 8  20549886.978 8  -7260208.78449  20549882.62449     -1257.866
   -604947.538 5  24382579.736 5   -467365.94846  24382578.60546       490.674
  -5910391.583 6  22795975.373 6  -4551059.06347  22795970.55547      2230.708
  -5843879.130 7  22009902.830 7  -5808718.54248  22009898.25948      -283.687
  -3710606.522 8  20906995.423 8  -3045216.75049  20906991.11149     -2619.697
 05  3 15  6 28  0.0010000  0  7G 2G 5G 6G10G21G25G30
   9166382.949 4  24077624.415 4   7149637.93646  24077618.45346     -4195.757
  15765201.660 5  23462257.362 5  12304083.47946  23462254.25746     -3987.798
  -8048528.692 7  20553485.261 7  -7245474.55749  20553480.90949     -1263.252
   -612249.309 6  24381190.243 6   -473055.62746  24381189.17346       482.925
  -5943818.395 6  22789614.413 6  -4577105.92147  22789609.56047      2226.304
  -5839554.095 6  22010725.844 6  -5805348.39048  22010721.28648      -292.881
  -3671263.226 8  20914482.240 8  -3014559.65249  20914477.99249     -2626.006
 05  3 15  6 28 15.0010000  0  7G 2G 5G 6G10G21G25G30
   9229353.736 1  24089607.352 1   7198706.02745  24089601.79245     -4200.664
  15825041.240 5  23473644.470 5  12350711.70246  23473641.36546     -3990.723
  -8029542.178 7  20557098.268 7  -7230679.86849  20557093.91649     -1268.374
   -619437.889 6  24379822.307 6   -478657.07446  24379821.31346       475.386
  -5977184.544 6  22783264.995 6  -4603105.49747  22783260.13847      2222.378
  -5835095.197 7  22011574.294 7  -5801873.94248  22011569.79948      -301.748
  -3631827.179 8  20921986.695 8  -2983830.28749  20921982.46249     -2632.163
 05  3 15  6 28 30.0010000  0  7G 2G 5G 6G10G21G25G30
                  24101603.905 1                  24101606.0734
  15884927.292 5  23485040.449 5  12397376.12846  23485037.34646     -3994.131
  -8010478.356 7  20560725.960 7  -7215824.95749  20560721.59449     -1273.550
   -626513.056 6  24378475.928 6   -484170.20946  24378474.98946       467.827
  -6010489.811 6  22776927.140 6  -4629057.64447  22776922.23847      2218.237
  -5830502.540 7  22012448.210 7  -5798295.24348  22012443.76548      -310.649
  -3592298.520 8  20929508.771 8  -2953028.74249  20929504.53349     -2638.359
 05  3 15  6 28 45.0010000  0  6G 5G 6G10G21G25G30
  15944862.178 5  23496445.664 5  12444078.57946  23496442.65346     -3997.193
  -7991334.516 7  20564368.872 7  -7200907.68949  20564364.48749     -1278.774
   -633471.753 6  24377151.738 6   -489592.59246  24377150.81846       460.166
  -6043731.332 7  22770601.458 7  -4654960.14147  22770596.41847      2214.082
  -5825773.339 7  22013348.124 7  -5794610.15548  22013343.68948      -319.707
  -3552674.715 8  20937048.970 8  -2922153.07249  20937044.71749     -2644.585
 05  3 15  6 29  0.0010000  0  6G 5G 6G10G21G25G30
  16004842.956 4  23507859.596 4  12490816.82346  23507856.67446     -4000.312
  -7972113.805 7  20568026.419 7  -7185930.52049  20568022.04049     -1284.033
   -640316.684 6  24375849.246 6   -494926.30446  24375848.26546       452.422
  -6076911.649 7  22764287.427 7  -4680814.91048  22764282.28548      2209.951
  -5820910.282 7  22014273.540 7  -5790820.77348  22014269.01748      -328.691
  -3512958.661 8  20944606.726 8  -2891205.50749  20944602.46749     -2650.859
 05  3 15  6 29 15.0010000  0  7G 2G 5G 6G10G21G25G30
    113823.77411  24137704.409 1                                     -4219.785
  16064869.333 4  23519282.189 4  12537590.57646  23519279.31846     -4003.071
  -7952816.520 7  20571698.569 7  -7170893.68349  20571694.19249     -1288.887
   -647047.835 6  24374568.348 6   -500171.36046  24374567.25646       444.907
  -6110030.728 7  22757985.082 7  -4706621.98048  22757979.79448      2205.986
  -5815913.564 7  22015224.437 7  -5786927.22348  22015219.76248      -337.393
  -3473150.535 7  20952181.978 7  -2860186.20649  20952177.80349     -2656.797
 05  3 15  6 29 30.0010000  0  7G 2G 5G 6G10G21G25G30
    177161.825 1  24149759.330 1                                     -4225.151
  16124941.144 3  23530713.457 3  12584399.71046  23530710.63746     -4006.338
  -7933442.686 7  20575385.287 7  -7155797.20149  20575380.93549     -1294.228
   -653664.861 6  24373309.218 6   -505327.44546  24373307.92746       437.319
  -6143087.907 7  22751694.537 7  -4732380.81048  22751689.17048      2201.670
  -5810782.949 7  22016200.800 7  -5782929.35248  22016196.00748      -346.553
  -3433250.442 7  20959774.726 7  -2829095.25349  20959770.66049     -2663.042
 05  3 15  6 29 45.0010000  0  7G 2G 5G 6G10G21G25G30
    240573.355 1  24161825.578 1                                     -4230.278
  16185060.196 4  23542153.827 4  12631245.68446  23542150.97846     -4009.663
  -7913990.464 7  20579086.923 7  -7140639.62449  20579082.59949     -1299.570
   -660165.526 6  24372072.290 6   -510392.88247  24372070.80747       429.395
  -6176081.388 7  22745416.109 7  -4758090.00448  22745410.74648      2197.349
  -5805516.578 7  22017202.970 7  -5778825.69048  22017198.13748      -355.815
  -3393256.457 7  20967385.334 7  -2797931.13549  20967381.30749     -2669.541
 05  3 15  6 30  0.0010000  0  6G 5G 6G10G21G25G30
  16245226.125 4  23553603.139 4  12678128.20146  23553600.31746     -4012.510
  -7894460.257 7  20582803.404 7  -7125421.28649  20582799.11049     -1304.439
   -666549.780 6  24370857.534 6   -515367.65047  24370855.98747       421.943
  -6209011.086 7  22739149.795 7  -4783749.50648  22739144.46448      2193.340
  -5800114.557 7  22018230.976 7  -5774616.32848  22018226.12948      -364.414
  -3353169.027 7  20975013.735 7  -2766694.19149  20975009.65749     -2675.420
 05  3 15  6 30 15.0010000  0  6G 5G 6G10G21G25G30
  16305436.448 5  23565060.920 5  12725045.30446  23565058.22246     -4015.542
  -7874854.534 7  20586534.262 7  -7110144.10549  20586529.98449     -1309.590
   -672819.908 6  24369664.450 6   -520253.48847  24369662.74447       414.141
  -6241879.104 7  22732895.203 7  -4809360.93048  22732889.88848      2189.160
  -5794579.284 6  22019284.298 6  -5770303.13948  22019279.52248      -373.447
  -3312990.415 7  20982659.472 7  -2735386.19449  20982655.37649     -2681.562
 05  3 15  6 30 30.0010000  0  6G 5G 6G10G21G25G30
  16365690.845 3  23576527.074 3  12771996.76746  23576524.55946     -4018.555
  -7855173.616 8  20590279.461 8  -7094808.32849  20590275.13849     -1314.663
   -678975.685 6  24368493.084 6   -525050.14947  24368491.22647       406.416
  -6274685.308 6  22726652.354 6  -4834924.18648  22726647.11348      2184.839
  -5788910.796 7  22020362.921 7  -5765886.13148  22020358.22248      -382.432
  -3272720.905 7  20990322.493 7  -2704007.37249  20990318.50549     -2687.729
 05  3 15  6 30 45.0010000  0  6G 5G 6G10G21G25G30
  16425989.406 3  23588001.689 3  12818982.67046  23587999.21646     -4021.372
  -7835417.228 8  20594039.008 8  -7079413.73849  20594034.63149     -1319.604
   -685016.522 6  24367343.583 6   -529757.30046  24367341.54746       398.940
  -6307428.932 6  22720421.388 6  -4860438.70448  22720416.25648      2180.859
  -5783108.620 7  22021466.990 7  -5761364.97148  22021462.30548      -391.211
  -3232360.248 8  20998002.867 8  -2672557.53649  20997998.99749     -2693.667
 05  3 15  6 31  0.0010000  0  6G 5G 6G10G21G25G30
  16486333.048 4  23599484.756 4  12866003.63246  23599482.39546     -4024.277
  -7815584.685 8  20597813.035 8  -7063959.81749  20597808.63249     -1324.575
   -690941.172 5  24366216.154 5   -534373.88546  24366213.88846       391.094
  -6340108.924 7  22714202.584 7  -4885903.62148  22714197.51748      2176.685
  -5777171.915 7  22022596.662 7  -5756738.98048  22022591.96148      -400.151
  -3191907.669 7  21005700.755 7  -2641036.05949  21005696.93349     -2699.795
 05  3 15  6 31 15.0010000  0  6G 5G 6G10G21G25G30
  16546722.477 5  23610976.475 5  12913060.27346  23610974.23646     -4027.407
  -7795675.196 8  20601601.694 8  -7048445.93049  20601597.31049     -1329.644
   -696748.544 6  24365111.015 6   -538899.05047  24365108.48647       383.472
  -6372723.826 7  22707996.192 7  -4911317.82948  22707991.16548      2172.363
  -5771099.839 7  22023752.137 7  -5752007.50548  22023747.39848      -409.136
  -3151362.339 8  21013416.279 8  -2609442.31749  21013412.46249     -2705.928
 05  3 15  6 31 30.0010000  0  6G 5G 6G10G21G25G30
  16607154.988 5  23622476.336 5  12960150.48846  23622474.14746     -4030.259
  -7775691.479 8  20605404.475 8  -7032874.20449  20605400.13949     -1334.663
   -702440.876 6  24364027.727 6   -543334.64947  24364025.10047       375.762
  -6405276.440 7  22701801.651 7  -4936683.51248  22701796.71048      2168.135
  -5764894.920 7  22024932.928 7  -5747172.50548  22024928.14048      -418.081
  -3110726.899 8  21021148.979 8  -2577778.35349  21021145.10849     -2711.997
 05  3 15  6 31 45.0010000  0  6G 5G 6G10G21G25G30
  16667630.513 5  23633984.431 5  13007274.22146  23633982.17046     -4033.184
  -7755633.604 8  20609221.348 8  -7017244.70049  20609217.07249     -1339.727
   -708017.947 6  24362966.461 6   -547680.41647  24362963.86947       367.993
  -6437766.415 7  22695619.041 7  -4962000.37048  22695614.15648      2163.882
  -5758556.956 7  22026139.059 7  -5742233.84148  22026134.19948      -426.914
  -3070001.281 8  21028898.848 8  -2546044.13149  21028894.85549     -2718.086
 05  3 15  6 32  0.0010000  0  6G 5G 6G10G21G25G30
  16728150.251 5  23645500.935 5  13054432.43546  23645498.60946     -4036.104
  -7735500.134 8  20613052.616 8  -7001556.28749  20613048.37449     -1344.688
   -713478.081 6  24361927.418 6   -551935.05447  24361924.90347       360.210
  -6470191.864 7  22689448.674 7  -4987266.96048  22689443.83048      2159.653
  -5752084.368 7  22027370.783 7  -5737190.27348  22027365.91148      -435.889
  -3029184.096 8  21036666.172 8  -2514238.54849  21036661.96949     -2724.033
 05  3 15  6 32 15.0010000  0  6G 5G 6G10G21G25G30
  16788713.048 5  23657025.669 5  13101624.18647  23657023.37247     -4038.989
  -7715292.349 7  20616898.032 7  -6985809.96149  20616893.83749     -1349.609
   -718822.030 6  24360910.424 6   -556099.14647  24360907.87347       352.437
  -6502553.550 7  22683290.454 7  -5012483.85548  22683285.62248      2155.361
  -5745478.289 7  22028627.898 7  -5732042.67048  22028623.07848      -444.873
  -2988276.658 8  21044450.659 8  -2482362.64349  21044446.28449     -2730.146
 05  3 15  6 32 30.0010000  0  6G 5G 6G10G21G25G30
  16849321.186 6  23668559.084 6  13148851.29247  23668556.82747     -4042.085
  -7695008.117 8  20620757.991 8  -6970004.08149  20620753.84849     -1354.858
   -724047.244 6  24359916.030 6   -560170.71947  24359913.37947       344.331
  -6534848.909 7  22677144.843 7  -5037649.06048  22677140.02348      2150.752
  -5738736.357 7  22029910.844 7  -5726789.23848  22029906.13548      -454.062
  -2947276.585 8  21052252.761 8  -2450414.56149  21052248.25549     -2736.489
 05  3 15  6 32 45.0010000  0  6G 5G 6G10G21G25G30
  16909974.267 5  23680101.011 5  13196113.38747  23680098.84247     -4044.927
  -7674647.618 8  20624632.445 8  -6954138.75449  20624628.35649     -1359.888
   -729153.748 6  24358944.247 6   -564149.80247  24358941.56347       336.587
  -6567077.799 7  22671011.858 7  -5062762.44148  22671007.12348      2146.416
  -5731858.685 7  22031219.592 7  -5721430.02048  22031215.03248      -463.008
  -2906184.126 8  21060072.427 8  -2418394.46349  21060067.83649     -2742.525
 05  3 15  6 33  0.0010000  0  6G 5G 6G10G21G25G30
  16970668.092 5  23691650.726 5  13243407.22047  23691648.60047     -4047.451
  -7654215.077 8  20628520.610 8  -6938217.29349  20628516.55449     -1364.570
   -734145.231 5  24357994.367 5   -568039.21146  24357991.81846       329.009
  -6599244.266 7  22664890.779 7  -5087827.22648  22664886.11148      2142.378
  -5724849.143 7  22032553.412 7  -5715968.04948  22032548.98848      -471.694
  -2865003.522 8  21067908.862 8  -2386305.72149  21067904.19349     -2748.247
 05  3 15  6 33 15.0010000  0  6G 5G 6G10G21G25G30
  17031405.738 5  23703208.755 5  13290735.15547  23703206.76647     -4050.713
  -7633707.385 8  20632423.084 8  -6922237.28249  20632419.01849     -1369.775
   -739018.119 5  24357067.084 5   -571836.24546  24357064.60046       320.864
  -6631344.713 7  22658782.284 7  -5112840.55848  22658777.67648      2137.720
  -5717704.507 7  22033912.975 7  -5710400.81948  22033908.60548      -480.913
  -2823731.514 8  21075762.701 8  -2354145.72249  21075757.99049     -2754.668
 05  3 15  6 33 30.0010000  0  6G 5G 6G10G21G25G30
  17092188.933 5  23714775.407 5  13338098.64747  23714773.61747     -4053.906
  -7613122.878 8  20636340.194 8  -6906197.41749  20636336.07449     -1374.976
   -743770.336 5  24356162.776 5   -575539.33146  24356160.19646       312.690
  -6663377.086 7  22652686.795 7  -5137800.86648  22652682.19348      2133.086
  -5710422.992 7  22035298.609 7  -5704726.92448  22035294.24848      -490.093
  -2782366.372 8  21083634.227 8  -2321913.15949  21083629.48349     -2760.903
 05  3 15  6 33 45.0010000  0  6G 5G 6G10G21G25G30
  17153018.236 5  23726350.886 5  13385498.02947  23726349.21747     -4056.831
  -7592460.819 8  20640272.061 8  -6890097.11949  20640267.86449     -1379.976
   -748400.966 5  24355281.477 5   -579147.59147  24355278.97747       304.575
  -6695340.214 7  22646604.490 7  -5162707.19548  22646599.87948      2128.638
  -5703003.689 7  22036710.490 7  -5698945.64648  22036706.10248      -499.092
  -2740907.408 8  21091523.600 8  -2289607.47749  21091518.81249     -2767.002
 05  3 15  6 34  0.0010000  0  6G 5G 6G10G21G25G30
  17213892.503 6  23737934.954 6  13432932.44747  23737933.30647     -4059.731
  -7571722.427 7  20644218.465 7  -6873937.34449  20644214.20349     -1385.088
   -752910.788 5  24354423.225 5   -582661.75547  24354420.78647       296.724
  -6727234.894 7  22640535.201 7  -5187560.19848  22640530.65048      2124.023
  -5695447.524 7  22038148.416 7  -5693057.72548  22038143.96448      -508.267
  -2699355.696 7  21099430.620 7  -2257229.53549  21099425.82249     -2773.193
 05  3 15  6 34 15.0010000  0  6G 5G 6G10G21G25G30
  17274811.529 6  23749527.532 6  13480401.79047  23749525.81147     -4062.617
  -7550907.832 8  20648179.366 8  -6857718.18749  20648175.07349     -1389.951
   -757299.565 4  24353587.970 4   -586081.57046  24353585.60746       288.770
  -6759060.705 7  22634479.007 7  -5212359.52448  22634474.52248      2119.629
  -5687754.642 7  22039612.335 7  -5687063.28848  22039607.85148      -517.178
  -2657711.431 7  21107355.253 7  -2224779.48449  21107350.49349     -2779.150
 05  3 15  6 34 30.0010000  0  6G 5G 6G10G21G25G30
  17335774.028 5  23761128.358 5  13527904.95847  23761126.56647     -4065.664
  -7530018.294 8  20652154.542 8  -6841440.63749  20652150.22949     -1395.327
   -761568.214 5  24352775.559 5   -589407.73947  24352773.21947       280.459
  -6790818.830 7  22628435.658 7  -5237106.10148  22628431.17748      2114.819
  -5679926.166 7  22041102.045 7  -5680963.17248  22041097.56248      -526.548
  -2615975.828 8  21115297.307 8  -2192258.24249  21115292.53849     -2785.552
 05  3 15  6 34 45.0010000  0  6G 5G 6G10G21G25G30
  17396778.509 6  23772737.178 6  13575440.87047  23772735.31847     -4068.325
  -7509055.468 8  20656143.671 8  -6825105.97249  20656139.34249     -1399.839
   -765717.846 5  24351985.852 5   -592641.16647  24351983.53947       272.764
  -6822510.533 7  22622404.967 7  -5261800.93148  22622400.46848      2110.703
  -5671963.502 7  22042617.269 7  -5674758.50948  22042612.80548      -535.181
  -2574150.323 8  21123256.455 8  -2159666.96449  21123251.75049     -2791.318
 05  3 15  6 35  0.0010000  0  6G 5G 6G10G21G25G30
  17457823.860 6  23784353.757 6  13623008.62047  23784351.83847     -4070.923
  -7488020.296 8  20660146.569 8  -6808714.93949  20660142.23149     -1404.609
   -769749.175 5  24351218.728 5   -595782.41747  24351216.48147       264.937
  -6854136.350 7  22616386.809 7  -5286444.42348  22616382.26348      2106.299
  -5663867.450 7  22044157.868 7  -5668449.91848  22044153.40348      -544.019
  -2532235.961 7  21131232.502 7  -2127006.43049  21131227.86249     -2797.207
 05  3 15  6 35 15.0010000  0  6G 5G 6G10G21G25G30
  17518912.112 6  23795978.492 6  13670609.83547  23795976.53447     -4073.814
  -7466910.788 8  20664163.585 8  -6792265.97549  20664159.27849     -1409.712
   -773659.851 5  24350474.567 5   -598829.65447  24350472.42547       256.846
  -6885693.619 7  22610381.677 7  -5311034.48648  22610377.08748      2101.641
  -5655635.750 7  22045724.277 7  -5662035.60248  22045719.80948      -553.184
  -2490230.552 8  21139225.859 8  -2094274.94849  21139221.25149     -2803.355
 05  3 15  6 35 30.0010000  0  6G 5G 6G10G21G25G30
  17580044.294 6  23807611.618 6  13718245.24647  23807609.61647     -4076.743
  -7445725.914 8  20668194.924 8  -6775758.28849  20668190.66749     -1414.780
   -777448.513 5  24349753.584 5   -601781.86347  24349751.50147       248.638
  -6917181.072 7  22604389.823 7  -5335570.16748  22604385.22648      2096.924
  -5647267.294 7  22047316.739 7  -5655514.74348  22047312.28348      -562.378
  -2448133.130 7  21147236.720 7  -2061471.78149  21147232.15949     -2809.404
 05  3 15  6 35 45.0010000  0  6G 5G 6G10G21G25G30
  17641219.039 6  23819252.829 6  13765913.82247  23819250.85647     -4079.751
  -7424466.926 8  20672240.365 8  -6759192.85649  20672236.16049     -1419.678
   -781115.990 5  24349055.668 5   -604639.64547  24349053.60547       240.596
  -6948599.713 7  22598411.075 7  -5360052.21448  22598406.44448      2092.319
  -5638763.309 7  22048935.019 7  -5648888.27648  22048930.55948      -571.450
  -2405944.961 7  21155264.849 7  -2028597.89549  21155260.38349     -2815.566
 05  3 15  6 36  0.0010000  0  6G 5G 6G10G21G25G30
  17702433.185 6  23830901.583 6  13813613.11047  23830899.59047     -4082.334
  -7403137.049 8  20676299.288 8  -6742572.16749  20676295.14249     -1424.551
   -784665.041 6  24348380.335 6   -607405.14147  24348378.25147       232.427
  -6979952.177 7  22592444.864 7  -5384482.71048  22592440.31048      2087.744
  -5630126.778 7  22050578.554 7  -5642158.51648  22050574.08248      -580.312
  -2363669.157 7  21163309.651 7  -1995655.72749  21163305.32849     -2821.431
 05  3 15  6 36 15.0010000  0  6G 5G 6G10G21G25G30
  17763690.794 6  23842558.620 6  13861346.24447  23842556.59747     -4085.322
  -7381732.146 8  20680372.501 8  -6725893.02649  20680368.40649     -1429.580
   -788091.295 5  24347728.396 5   -610074.98147  24347726.25347       224.263
  -7011234.133 7  22586492.078 7  -5408858.25348  22586487.53048      2083.135
  -5621353.355 7  22052248.145 7  -5635322.08349  22052243.71449      -589.512
  -2321301.591 7  21171371.913 7  -1962642.05449  21171367.70649     -2827.622
 05  3 15  6 36 30.0010000  0  6G 5G 6G10G21G25G30
  17824991.246 6  23854223.844 6  13909112.77647  23854221.75747     -4088.071
  -7360252.743 8  20684459.904 8  -6709155.84749  20684455.81049     -1434.390
   -791394.960 5  24347099.758 5   -612649.25246  24347097.63946       216.211
  -7042445.683 7  22580552.709 7  -5433178.94848  22580548.08448      2078.467
  -5612443.436 7  22053943.714 7  -5628379.29248  22053939.31748      -598.447
  -2278842.727 7  21179451.567 7  -1929557.24249  21179447.39649     -2833.559
 05  3 15  6 36 45.0010000  0  6G 5G 6G10G21G25G30
  17886332.110 6  23865896.704 6  13956910.78647  23865894.61347     -4090.937
  -7338701.324 8  20688561.015 8  -6692362.53049  20688556.88549     -1439.272
   -794578.106 4  24346494.005 4   -615129.59846  24346492.04946       208.115
  -7073588.923 7  22574626.318 7  -5457446.40148  22574621.60048      2073.818
  -5603399.396 7  22055664.763 7  -5621332.00848  22055660.41348      -607.505
  -2236295.014 7  21187548.132 7  -1896403.18849  21187543.97249     -2839.609
 05  3 15  6 37  0.0010000  0  6G 5G 6G10G21G25G30
  17947711.961 6  23877576.951 6  14004739.16847  23877574.87047     -4093.438
  -7317079.494 8  20692675.535 8  -6675514.37349  20692671.35349     -1443.892
   -797641.931 4  24345910.959 4   -617516.95947  24345909.15347       200.024
  -7104664.813 7  22568712.777 7  -5481661.37348  22568707.95248      2069.390
  -5594222.601 7  22057411.048 7  -5614181.27048  22057406.76748      -616.333
  -2193659.830 7  21195661.336 7  -1863180.98949  21195657.20849     -2845.318
 05  3 15  6 37 15.0010000  0  6G 5G 6G10G21G25G30
  18009134.565 5  23889265.300 5  14052600.90547  23889263.17347     -4096.231
  -7295383.312 8  20696804.202 8  -6658608.27049  20696799.99449     -1448.828
   -800582.214 3  24345351.497 3   -619808.09547  24345349.79847       191.846
  -7135669.247 7  22562812.830 7  -5505820.67648  22562807.95048      2064.604
  -5584909.066 7  22059183.327 7  -5606923.98748  22059179.12748      -625.420
  -2150933.454 7  21203791.881 7  -1829887.73249  21203787.82749     -2851.509
 05  3 15  6 37 30.0010000  0  6G 5G 6G10G21G25G30
  18070597.673 5  23900961.314 5  14100494.19946  23900959.12646     -4099.072
  -7273615.030 8  20700946.576 8  -6641645.97749  20700942.37449     -1453.721
   -803400.817 4  24344815.131 4   -622004.38146  24344813.50646       183.730
  -7166604.131 7  22556926.075 7  -5529925.76848  22556921.12048      2059.937
  -5575460.891 7  22060981.250 7  -5599561.78648  22060977.11748      -634.409
  -2108118.004 7  21211939.400 7  -1796525.07049  21211935.38349     -2857.451
 05  3 15  6 37 45.0010000  0  6G 5G 6G10G21G25G30
  18132103.646 5  23912665.523 5  14148420.84847  23912663.24347     -4101.860
  -7251772.198 8  20705103.136 8  -6624625.58449  20705098.91349     -1458.774
   -806094.899 5  24344302.381 5   -624103.64947  24344300.87147       175.435
  -7197466.431 7  22551053.165 7  -5553974.30848  22551048.13148      2054.985
  -5565875.404 7  22062805.310 7  -5592092.59548  22062801.22448      -643.691
  -2065211.009 7  21220104.350 7  -1763091.06249  21220100.35649     -2863.648
 05  3 15  6 38  0.0010000  0  6G 5G 6G10G21G25G30
  18193651.837 6  23924377.798 6  14196380.42047  23924375.40147     -4104.653
  -7229855.441 8  20709273.771 8  -6607547.59949  20709269.50149     -1463.594
   -808664.841 4  24343813.221 4   -626106.20247  24343811.88447       167.236
  -7228256.804 7  22545193.950 7  -5577966.79748  22545188.80048      2050.356
  -5556153.394 7  22064655.374 7  -5584517.01748  22064651.26548      -652.681
  -2022212.987 7  21228286.632 7  -1729586.12949  21228282.67949     -2869.604
 05  3 15  6 38 15.0010000  0  6G 5G 6G10G21G25G30
  18255242.394 5  23936098.131 5  14244373.00447  23936095.72747     -4107.241
  -7207864.689 8  20713458.488 8  -6590411.94949  20713454.19149     -1468.433
   -811110.035 5  24343347.884 5   -628011.54746  24343346.62046       158.843
  -7258974.453 7  22539348.541 7  -5601902.63448  22539343.36248      2045.493
  -5546294.242 7  22066531.508 7  -5576834.56948  22066527.37048      -661.831
  -1979123.869 7  21236486.261 7  -1696010.21949  21236482.35849     -2875.562
 05  3 15  6 38 30.0010000  0  6G 5G 6G10G21G25G30
  18316874.739 5  23947826.423 5  14292398.17247  23947824.04347     -4110.337
  -7185800.462 8  20717657.175 8  -6573219.04549  20717652.89849     -1473.584
   -813430.761 5  24342906.327 5   -629819.92046  24342904.95346       150.410
  -7289619.767 7  22533516.895 7  -5625782.09348  22533511.73548      2040.488
  -5536298.558 7  22068433.636 7  -5569045.72648  22068429.43348      -671.040
  -1935944.110 7  21244703.129 7  -1662363.66549  21244699.24349     -2881.758
 05  3 15  6 38 45.0010000  0  6G 5G 6G10G21G25G30
  18378550.574 5  23959563.022 5  14340457.19247  23959560.64647     -4113.076
  -7163661.092 8  20721870.162 8  -6555967.59549  20721865.91749     -1478.423
   -815625.012 5  24342488.861 5   -631529.69446  24342487.32846       142.104
  -7320190.424 7  22527699.448 7  -5649603.37748  22527694.33048      2035.576
  -5526164.419 7  22070362.101 7  -5561149.00348  22070357.84748      -680.166
  -1892672.037 7  21252937.570 7  -1628645.18749  21252933.71249     -2887.861
 05  3 15  6 39  0.0010000  0  6G 5G 6G10G21G25G30
  18440266.648 5  23971307.317 5  14388547.60547  23971304.93747     -4115.742
  -7141449.598 8  20726096.879 8  -6538659.96049  20726092.64449     -1483.164
   -817695.455 5  24342094.898 5   -633142.97846  24342093.33846       134.053
  -7350689.365 7  22521895.659 7  -5673368.79048  22521890.57948      2030.884
  -5515894.844 7  22072316.317 7  -5553146.73448  22072312.03648      -689.126
  -1849310.615 7  21261189.010 7  -1594857.07849  21261185.20449     -2893.672
 05  3 15  6 39 15.0010000  0  6G 5G 6G10G21G25G30
  18502023.679 5  23983059.430 5  14436669.92247  23983057.03847     -4118.481
  -7119165.329 8  20730337.437 8  -6521295.60349  20730333.17949     -1488.091
   -819640.915 5  24341724.717 5   -634658.91346  24341723.02346       125.361
  -7381115.295 7  22516105.796 7  -5697077.32048  22516100.68448      2025.864
  -5505488.871 7  22074296.496 7  -5545038.18948  22074292.21048      -698.335
  -1805859.139 7  21269457.594 7  -1560998.79849  21269453.80049     -2899.785
 05  3 15  6 39 30.0010000  0  6G 5G 6G10G21G25G30
  18563820.653 5  23994819.089 5  14484823.34147  23994816.77847     -4121.123
  -7096809.314 8  20734591.625 8  -6503875.34349  20734587.33149     -1492.793
   -821462.241 5  24341378.248 5   -636078.17846  24341376.14146       117.354
  -7411468.933 7  22510329.690 7  -5720729.49748  22510324.58848      2021.177
  -5494947.401 7  22076302.520 7  -5536824.06948  22076298.21548      -707.305
  -1762318.748 7  21277743.079 7  -1527071.25149  21277739.29849     -2905.605
 05  3 15  6 39 45.0010000  0  7G 5G 6G10G16G21G25G30
  18625657.877 6  24006586.437 6  14533008.17347  24006584.12047     -4123.853
  -7074381.111 8  20738859.538 8  -6486398.82449  20738855.20549     -1497.656
   -823158.571 5  24341055.485 5   -637399.98146  24341053.05546       108.950
     -9215.531 1  24681735.243 1                                      2193.804
  -7441749.342 7  22504567.555 7  -5744324.62048  22504562.41648      2016.255
  -5484269.970 7  22078334.432 7  -5528504.00048  22078330.08848      -716.479
  -1718688.842 7  21286045.589 7  -1493073.93749  21286041.85049     -2911.714
 05  3 15  6 40  0.0010000  0  7G 5G 6G10G16G21G25G30
  18687535.371 6  24018361.415 6  14581224.36047  24018359.14047     -4126.304
  -7051880.749 8  20743141.200 8  -6468866.08149  20743136.83849     -1502.251
   -824729.691 5  24340756.538 5   -638624.25746  24340753.88746       100.728
    -42122.832 2  24675472.252 2                                      2193.838
  -7471956.310 7  22498819.413 7  -5767862.52448  22498814.24248      2011.450
  -5473456.487 7  22080392.212 7  -5520077.92248  22080387.83148      -725.288
  -1674969.367 7  21294365.137 7  -1459006.83949  21294361.44649     -2917.481
 05  3 15  6 40 15.0010000  0  7G 5G 6G10G16G21G25G30
  18749451.496 6  24030143.779 6  14629470.65347  24030141.52347     -4129.351
  -7029309.778 8  20747436.328 8  -6451278.32349  20747431.97749     -1507.388
   -826176.754 4  24340481.154 4   -639751.90946  24340478.44846        92.002
    -75029.120 1  24669210.778 1                                      2193.398
  -7502091.044 7  22493085.011 7  -5791344.14548  22493079.85148      2006.294
  -5462508.355 8  22082475.625 8  -5511546.93048  22082471.17748      -734.673
  -1631161.963 7  21302701.397 7  -1424871.22549  21302697.77849     -2923.643
 05  3 15  6 40 30.0010000  0  7G 5G 6G10G16G21G25G30
  18811408.056 6  24041933.800 6  14677748.43847  24041931.64147     -4131.904
  -7006666.493 8  20751745.246 8  -6433634.20749  20751740.92549     -1512.061
   -827497.893 4  24340229.725 4   -640781.34546  24340226.99946        83.838
   -107932.423 1  24662949.026 1                                      2193.252
  -7532151.442 7  22487364.732 7  -5814767.81748  22487359.66148      2001.421
  -5451423.777 7  22084584.989 7  -5502909.60248  22084580.49648      -743.691
  -1587264.667 7  21311054.783 7  -1390665.55149  21311051.17249     -2929.629
 05  3 15  6 40 45.0010000  0  7G 5G 6G10G16G21G25G30
  18873404.330 6  24053731.387 6  14726057.17747  24053729.26047     -4134.341
  -6983951.553 8  20756067.792 8  -6415934.27349  20756063.52249     -1516.699
   -828693.340 2  24340002.143 2   -641712.87046  24339999.63746        75.479
   -140833.380 1  24656687.836 1                                      2193.384
  -7562137.840 7  22481658.498 7  -5838133.83348  22481653.49548      1996.709
  -5440203.196 7  22086720.211 7  -5494166.30048  22086715.69048      -752.544
  -1543278.352 7  21319425.109 7  -1356390.51849  21319421.50049     -2935.322
 05  3 15  6 41  0.0010000  0  7G 5G 6G10G16G21G25G30
  18935440.662 5  24065536.555 5  14774397.14647  24065534.49747     -4137.158
  -6961164.642 8  20760404.045 8  -6398178.24449  20760399.78949     -1521.563
   -829762.212 2  24339798.719 2   -642545.73646  24339796.45146        67.246
   -173731.195 3  24650427.511 3                                      2193.037
  -7592049.451 7  22475966.514 7  -5861441.58248  22475961.53148      1991.592
  -5428846.140 7  22088881.387 7  -5485316.65448  22088876.82948      -761.714
  -1499202.618 7  21327812.461 7  -1322045.81749  21327808.87149     -2941.421
 05  3 15  6 41 15.0010000  0  7G 5G 6G10G16G21G25G30
  18997516.271 6  24077349.164 6  14822767.68047  24077347.23147     -4139.736
  -6938306.506 8  20764753.849 8  -6380366.72249  20764749.57649     -1526.206
   -830704.989 3  24339619.269 3   -643280.38046  24339617.26746        58.545
   -206626.361 1  24644167.860 1                                      2192.778
  -7621886.704 7  22470288.705 7  -5884691.39648  22470283.69848      1986.660
  -5417353.216 7  22091068.423 7  -5476361.14148  22091063.82148      -770.708
  -1455038.032 7  21336216.751 7  -1287631.87049  21336213.15449     -2947.280
 05  3 15  6 41 30.0010000  0  7G 5G 6G10G16G21G25G30
  19059632.542 6  24089169.574 6  14871169.90247  24089167.67547     -4142.349
  -6915375.655 8  20769117.465 8  -6362498.52249  20769113.19949     -1530.991
   -831520.082 3  24339464.191 3   -643915.49047  24339462.32347        50.146
   -239517.424 1  24637908.782 1                                      2192.876
  -7651647.763 7  22464625.392 7  -5907881.81448  22464620.37348      1981.665
  -5405723.109 7  22093281.555 7  -5467298.72648  22093276.90848      -779.751
  -1410783.356 7  21344638.142 7  -1253147.73049  21344634.57649     -2953.154
 05  3 15  6 41 45.0010000  0  7G 5G 6G10G16G21G25G30
  19121787.312 6  24100997.319 6  14919602.10447  24100995.43047     -4145.122
  -6892374.157 8  20773494.506 8  -6344575.28049  20773490.27849     -1536.001
   -832209.068 4  24339333.052 4   -644452.38347  24339331.50647        41.729
   -272405.989 1  24631650.264 1                                      2192.217
  -7681334.391 7  22458976.215 7  -5931014.26448  22458971.19048      1976.396
  -5393957.560 7  22095520.448 7  -5458130.76448  22095515.76248      -789.028
  -1366440.380 7  21353076.324 7  -1218594.79049  21353072.79249     -2959.331
 05  3 15  6 42  0.0010000  0  7G 5G 6G10G16G21G25G30
  19183983.321 6  24112832.890 6  14968066.47647  24112830.95047     -4147.842
  -6869299.361 8  20777885.469 8  -6326594.92749  20777881.31049     -1540.850
   -832768.960 3  24339226.571 3   -644888.63347  24339225.17447        32.954
   -305289.098 2  24625392.764 2                                      2191.948
  -7710943.430 7  22453341.778 7  -5954086.23248  22453336.78148      1971.255
  -5382053.642 7  22097785.671 7  -5448855.00048  22097780.94748      -798.325
  -1322006.460 7  21361531.825 7  -1183970.97349  21361528.28049     -2965.332
 05  3 15  6 42 15.0010000  0  7G 5G 6G10G16G21G25G30
  19246219.392 5  24124676.080 5  15016562.01047  24124674.08247     -4150.327
  -6846152.415 8  20782290.165 8  -6308558.34849  20782285.99949     -1545.508
   -833200.549 3  24339144.358 3   -645224.91147  24339143.12347        24.478
   -338167.744 1  24619136.100 1                                      2191.807
  -7740475.561 7  22447721.995 7  -5977098.27748  22447717.03948      1966.279
  -5370012.536 7  22100076.999 7  -5439472.33448  22100072.30448      -807.280
  -1277482.762 7  21370004.415 7  -1149277.20449  21370000.84349     -2971.191
 05  3 15  6 42 30.0010000  0  7G 5G 6G10G16G21G25G30
  19308495.494 6  24136526.870 6  15065088.79547  24136524.79447     -4152.993
  -6822933.308 8  20786708.600 8  -6290465.55349  20786704.33649     -1550.181
   -833503.447 5  24339086.712 5   -645460.94846  24339085.54246        16.040
   -371041.481 1  24612880.192 1                                      2191.572
  -7769930.403 7  22442116.896 7  -6000050.10248  22442112.00748      1961.177
  -5357834.078 7  22102394.454 7  -5429982.62948  22102389.85248      -816.299
  -1232869.306 7  21378494.090 7  -1114513.48249  21378490.45749     -2977.026
 05  3 15  6 42 45.0010000  0  7G 5G 6G10G16G21G25G30
  19370810.764 6  24148385.073 6  15113646.07147  24148382.97747     -4155.493
  -6799642.881 8  20791140.635 8  -6272317.18449  20791136.23949     -1554.937
   -833678.137 4  24339053.434 4   -645597.05647  24339052.35447         7.520
   -403911.051 1  24606625.208 1                                      2191.353
  -7799308.457 7  22436526.428 7  -6022942.08548  22436521.62948      1956.172
  -5345518.907 7  22104737.956 7  -5420386.39948  22104733.42948      -825.395
  -1188166.738 7  21387000.739 7  -1079680.31848  21386996.95948     -2982.910
 05  3 15  6 43  0.0010000  0  7G 5G 6G10G16G21G25G30
  19433164.434 6  24160250.596 6  15162233.32147  24160248.47747     -4158.354
  -6776281.928 8  20795586.091 8  -6254113.85949  20795581.63849     -1559.829
   -833725.125 4  24339044.473 4   -645633.67446  24339043.45846        -1.196
   -436776.928 1  24600370.705 1                                      2190.918
  -7828610.161 7  22430950.468 7  -6045774.56548  22430945.76148      1950.811
  -5333067.779 7  22107107.334 7  -5410684.25349  22107102.85649      -834.658
  -1143375.882 7  21395524.185 7  -1044778.37449  21395520.29049     -2989.023
 05  3 15  6 43 15.0010000  0  7G 5G 6G10G16G21G25G30
  19495559.014 6  24172123.853 6  15210852.44347  24172121.77547     -4160.855
  -6752847.762 8  20800045.467 8  -6235853.47549  20800041.03249     -1564.575
   -833641.619 5  24339060.406 5   -645568.61247  24339059.29847        -9.790
   -469636.277 1  24594117.574 1                                      2190.283
  -7857832.687 7  22425389.598 7  -6068545.35248  22425384.95548      1945.664
  -5320478.135 7  22109503.111 7  -5400874.16048  22109498.57648      -843.760
  -1098494.151 7  21404064.902 7  -1009805.62149  21404060.94549     -2995.015
 05  3 15  6 43 30.0010000  0  7G 5G 6G10G16G21G25G30
  19557994.090 6  24184004.878 6  15259503.04947  24184002.86847     -4163.560
  -6729340.944 8  20804518.651 8  -6217536.48049  20804514.23549     -1569.458
   -833427.597 5  24339101.194 5   -645401.83347  24339099.90647       -18.496
                  24587865.621 1
  -7886975.918 7  22419843.844 7  -6091254.34948  22419839.17548      1940.342
  -5307750.097 7  22111925.221 7  -5390956.22349  22111920.63049      -853.091
  -1053521.956 7  21412622.834 7   -974762.37949  21412618.86249     -3001.089
 05  3 15  6 43 45.0010000  0  7G 5G 6G10G16G21G25G30
  19620466.119 5  24195892.920 5  15308182.50146  24195890.95746     -4166.040
  -6705764.871 7  20809005.014 7  -6199165.52949  20809000.57349     -1574.097
   -833086.274 5  24339166.230 5   -645135.91447  24339164.89147       -27.061
   -535339.445 1  24581614.449 1                                      2189.912
  -7916043.159 7  22414312.526 7  -6113904.15148  22414307.87048      1935.210
  -5294887.109 7  22114372.985 7  -5380933.13148  22114368.39948      -862.119
  -1008462.685 7  21421197.344 7   -939651.29849  21421193.38749     -3006.914
 05  3 15  6 44  0.0010000  0  7G 5G 6G10G16G21G25G30
  19682975.016 6  24207788.029 6  15356890.67346  24207786.03246     -4168.643
  -6682119.676 8  20813504.541 8  -6180740.70849  20813500.06649     -1578.843
   -832617.300 5  24339255.495 5   -644770.49347  24339254.03447       -35.703
   -568186.171 1  24575364.035 1                                      2189.741
  -7945033.835 7  22408795.769 7  -6136494.29148  22408791.13748      1929.990
  -5281889.153 7  22116846.431 7  -5370804.85948  22116841.85448      -871.235
   -963316.477 7  21429788.389 7   -904472.44749  21429784.42949     -3012.812
 05  3 15  6 44 15.0010000  0  7G 5G 6G10G16G21G25G30
  19745520.151 5  24219690.020 5  15405627.06546  24219687.99046     -4170.806
  -6658405.899 8  20818017.129 8  -6162262.43949  20818012.65149     -1583.115
   -832021.066 5  24339368.947 5   -644305.89247  24339367.32247       -43.975
   -601029.935 1  24569114.125 1                                      2189.463
  -7973948.316 7  22403293.492 7  -6159025.03748  22403288.89748      1925.239
  -5268756.747 7  22119345.459 7  -5360571.82648  22119340.82248      -879.893
   -918083.816 7  21438395.917 7   -869226.24849  21438391.89749     -3018.335
 05  3 15  6 44 30.0010000  0  6G 5G 6G10G21G25G30
  19808103.926 5  24231599.303 5  15454393.60046  24231597.27646     -4173.516
  -6634621.109 8  20822543.226 8  -6143728.85049  20822538.79249     -1587.993
   -831294.809 5  24339507.143 5   -643739.98847  24339505.49547       -52.729
  -8002783.730 7  22397806.238 7  -6181494.18648  22397801.69748      1919.687
  -5255487.241 7  22121870.564 7  -5350231.95548  22121865.84748      -889.209
   -872762.383 7  21447020.342 7   -833910.86149  21447016.23349     -3024.370
 05  3 15  6 44 45.0010000  0  6G 5G 6G10G21G25G30
  19870725.781 5  24243515.821 5  15503189.83546  24243513.75946     -4176.060
  -6610765.946 8  20827082.715 8  -6125140.40849  20827078.32249     -1592.715
   -830438.662 5  24339670.108 5   -643072.82447  24339668.45147       -61.401
  -8031540.268 6  22392334.020 6  -6203901.87248  22392329.49348      1914.497
  -5242081.108 7  22124421.662 7  -5339785.63448  22124416.89048      -898.281
   -827352.526 7  21455661.578 7   -798526.57849  21455657.42449     -3030.278
 05  3 15  6 45  0.0010000  0  6G 5G 6G10G21G25G30
  19933386.894 5  24255439.798 5  15552016.66146  24255437.68946     -4179.141
  -6586839.097 8  20831635.849 8  -6106496.12549  20831631.46049     -1597.964
   -829451.220 5  24339858.067 5   -642303.40047  24339856.37847       -70.537
  -8060216.633 7  22386877.062 7  -6226247.07448  22386872.52648      1908.682
  -5228537.079 7  22126999.014 7  -5329231.85348  22126994.19948      -908.003
   -781853.180 7  21464319.841 7   -763072.57449  21464315.67549     -3036.694
 05  3 15  6 45 15.0010000  0  7G 5G 6G10G16G21G25G30
  19996091.692 5  24267372.074 5  15600877.48746  24267369.96646     -4181.519
  -6562836.163 8  20836203.447 8  -6087792.55749  20836199.05949     -1602.490
   -828327.738 4  24340071.884 4   -641427.96247  24340070.16947       -79.185
    -13110.858 2  24544144.231 2                                      2187.671
  -8088807.773 6  22381436.328 6  -6248525.88648  22381431.75548      1903.438
  -5214850.530 7  22129603.499 7  -5318567.02548  22129598.66648      -916.963
   -736259.684 7  21472996.028 7   -727545.19649  21472991.86949     -3042.437
 05  3 15  6 45 30.0010000  0  7G 5G 6G10G16G21G25G30
  20058832.689 5  24279311.246 5  15649766.53546  24279309.12446     -4183.745
  -6538764.592 8  20840784.131 8  -6069035.49349  20840779.71149     -1607.002
   -827075.216 5  24340310.262 5   -640451.95747  24340308.50447       -87.764
    -45921.153 4  24537888.960 4                                      2187.383
  -8117320.772 6  22376010.481 6  -6270743.79448  22376005.81448      1898.286
  -5201028.858 7  22132233.693 7  -5307796.90148  22132228.87448      -925.918
   -690579.546 7  21481688.685 7   -691950.31349  21481684.54349     -3048.105
 05  3 15  6 45 45.0010000  0  7G 5G 6G10G16G21G25G30
  20121608.176 4  24291257.028 4  15698682.42746  24291254.90046     -4186.304
  -6514625.974 8  20845377.569 8  -6050226.19449  20845373.12149     -1611.567
   -825695.031 5  24340572.873 5   -639376.49247  24340571.03747       -96.353
    -78728.562 4  24531645.234 4                                      2187.012
  -8145756.864 7  22370599.273 7  -6292901.80048  22370594.53048      1893.140
  -5187073.739 7  22134889.271 7  -5296922.79648  22134884.47048      -934.917
   -644814.418 7  21490397.511 7   -656289.20049  21490393.40149     -3053.926
 05  3 15  6 46  0.0010000  0  7G 5G 6G10G16G21G25G30
  20184422.208 4  24303210.191 4  15747628.34846  24303208.08246     -4188.882
  -6490416.330 8  20849984.524 8  -6031361.54449  20849980.05049     -1616.284
   -824182.795 4  24340860.597 4   -638198.13946  24340858.61146      -105.049
   -111528.702 4  24525402.870 4                                      2186.587
  -8174111.637 7  22365203.549 7  -6314996.42748  22365198.74548      1887.627
  -5172980.812 7  22137571.072 7  -5285941.30248  22137566.22248      -944.004
   -598960.211 7  21499123.314 7   -620558.66649  21499119.25549     -3059.800
 05  3 15  6 46 15.0010000  0  7G 5G 6G10G16G21G25G30
  20247273.836 5  24315170.608 5  15796603.63346  24315168.40646     -4191.216
  -6466136.512 8  20854604.827 8  -6012442.21149  20854600.34649     -1620.894
   -822539.124 4  24341173.365 4   -636917.38947  24341171.17247      -114.043
   -144322.220 4  24519162.146 4                                      2186.157
  -8202385.704 7  22359823.165 7  -6337028.15248  22359818.29848      1882.314
  -5158750.869 7  22140278.970 7  -5274853.04048  22140274.00648      -953.145
   -553017.859 7  21507865.877 7   -584759.44249  21507861.84249     -3065.698
 05  3 15  6 46 30.0010000  0  7G 5G 6G10G16G21G25G30
  20310163.293 5  24327138.137 5  15845608.28846  24327135.93846     -4193.950
  -6441786.362 8  20859238.520 8  -5993468.08049  20859234.09449     -1625.698
   -820763.503 4  24341511.258 4   -635533.79747  24341508.91047      -122.856
   -177108.726 3  24512922.807 3                                      2185.605
  -8230578.580 6  22354458.224 6  -6358996.61048  22354453.29548      1876.797
  -5144383.702 7  22143012.994 7  -5263657.85548  22143007.89848      -962.437
   -506987.024 7  21516625.274 7   -548891.27649  21516621.25949     -3071.670
 05  3 15  6 46 45.0010000  0  7G 5G 6G10G16G21G25G30
  20373091.409 5  24339113.097 5  15894643.12646  24339110.77946     -4196.597
  -6417364.769 8  20863885.802 8  -5974438.27349  20863881.47249     -1630.542
   -818854.740 4  24341874.519 4   -634046.48347  24341872.10647      -131.797
   -209886.882 3  24506685.092 3                                      2184.868
  -8258688.732 7  22349109.029 7  -6380900.63148  22349104.07948      1871.133
  -5129878.340 7  22145773.297 7  -5252354.97848  22145768.10148      -971.704
   -460866.743 7  21525401.698 7   -512953.41649  21525397.69249     -3077.691
 05  3 15  6 47  0.0010000  0  7G 5G 6G10G16G21G25G30
  20436056.350 5  24351095.019 5  15943706.68147  24351092.64647     -4198.672
  -6392873.756 8  20868546.288 8  -5955354.37249  20868542.03649     -1634.844
   -816814.302 5  24342262.828 5   -632456.56146  24342260.27946      -140.190
   -242658.446 3  24500448.704 3                                      2184.731
  -8286717.726 7  22343775.289 7  -6402741.40248  22343770.28848      1866.118
  -5115236.328 7  22148559.596 7  -5240945.62148  22148554.39648      -980.469
   -414658.879 7  21534194.805 7   -476947.31149  21534190.75749     -3083.228
 05  3 15  6 47 15.0010000  0  7G 5G 6G10G16G21G25G30
  20499056.467 5  24363083.613 5  15992797.65446  24363081.23446     -4201.211
  -6368314.895 8  20873219.663 8  -5936217.61849  20873215.47049     -1639.624
   -814643.455 5  24342675.964 5   -630764.98147  24342673.27547      -149.268
   -275424.548 3  24494213.429 3                                      2184.268
  -8314666.631 7  22338456.801 7  -6424519.75848  22338451.72348      1860.479
  -5100459.308 7  22151371.565 7  -5229431.08548  22151366.46948      -989.751
   -368365.011 7  21543004.253 7   -440874.19149  21543000.18249     -3089.326
 05  3 15  6 47 30.0010000  0  7G 5G 6G10G16G21G25G30
  20562096.061 4  24375079.711 4  16041919.34347  24375077.39047     -4203.755
  -6343683.733 8  20877906.797 8  -5917024.51649  20877902.62849     -1644.375
   -812337.502 3  24343114.656 3   -628968.14947  24343112.09047      -158.164
   -308180.653 3  24487979.963 3                                      2183.345
  -8342530.922 7  22333154.393 7  -6446232.17648  22333149.28248      1854.902
  -5085542.902 7  22154210.034 7  -5217807.93048  22154205.12048      -998.911
   -321980.764 7  21551830.909 7   -404730.63849  21551826.82449     -3095.151
 05  3 15  6 47 45.0010000  0  7G 5G 6G10G16G21G25G30
  20625171.963 5  24387082.715 5  16091069.33647  24387080.45447     -4206.148
  -6318983.513 8  20882607.097 8  -5897777.59949  20882602.93749     -1648.892
   -809899.573 2  24343578.507 2   -627068.44546  24343575.93346      -166.763
   -340929.655 1  24481747.786 1                                      2183.027
  -8370313.510 7  22327867.546 7  -6467880.94048  22327862.43948      1849.536
  -5070490.154 7  22157074.450 7  -5206078.53048  22157069.74848     -1007.969
   -275509.321 7  21560674.145 7   -368519.14649  21560670.05449     -3100.938
 05  3 15  6 48  0.0010000  0  7G 5G 6G10G16G21G25G30
  20688285.105 5  24399092.800 5  16140248.35147  24399090.62647     -4209.097
  -6294213.232 8  20887320.738 8  -5878476.11249  20887316.60149     -1654.048
   -807328.088 4  24344067.734 4   -625064.69046  24344065.18946      -176.172
   -373670.419 1  24475517.055 1                                      2182.085
  -8398012.727 7  22322596.543 7  -6489464.73748  22322591.47648      1843.516
  -5055299.873 7  22159965.033 7  -5194241.97448  22159960.53748     -1017.568
   -228949.671 7  21569534.177 7   -332238.92749  21569530.06149     -3107.236
 05  3 15  6 48 15.0010000  0  7G 5G 6G10G16G21G25G30
  20751438.561 5  24411110.522 5  16189458.76547  24411108.50147     -4211.382
  -6269369.937 8  20892048.273 8  -5859117.69949  20892044.12049     -1658.398
   -804619.845 5  24344583.082 5   -622954.36647  24344580.57647      -184.917
   -406399.593 1  24469288.613 1                                      2181.572
  -8425625.354 7  22317342.013 7  -6510981.05648  22317337.00548      1838.184
  -5039969.041 7  22162882.372 7  -5182295.87248  22162877.99148     -1026.494
   -182298.720 7  21578411.586 7   -295887.54649  21578407.44349     -3112.783
 05  3 15  6 48 30.0010000  0  7G 5G 6G10G16G21G25G30
  20814628.511 5  24423135.215 5  16238697.63847  24423133.32647     -4214.194
  -6244457.285 8  20896788.999 8  -5839705.25949  20896784.82549     -1663.462
   -801778.179 5  24345123.834 5   -620740.08346  24345121.43946      -194.048
                  24463061.775 1
  -8453154.819 7  22312103.322 7  -6532432.58248  22312098.34148      1832.236
  -5024501.300 7  22165825.778 7  -5170243.09448  22165821.38848     -1036.025
   -135560.277 7  21587305.638 7   -259467.99949  21587301.54049     -3119.062
 05  3 15  6 48 45.0010000  0  7G 5G 6G10G16G21G25G30
  20877856.004 5  24435166.976 5  16287965.74947  24435165.26247     -4216.357
  -6219474.298 7  20901543.093 7  -5820237.99649  20901538.92649     -1667.759
   -798801.874 5  24345690.200 5   -618420.91046  24345687.94046      -202.783
   -471832.387 1  24456836.558 1                                      2180.981
  -8480599.684 7  22306880.721 7  -6553818.18148  22306875.75348      1826.899
  -5008895.564 7  22168795.487 7  -5158082.79648  22168790.95248     -1044.878
    -88733.179 7  21596216.573 7   -222979.37849  21596212.51949     -3124.639
 05  3 15  6 49  0.0010000  0  7G 5G 6G10G16G21G25G30
  20941118.952 5  24447205.519 5  16337261.48347  24447203.92147     -4218.779
  -6194422.828 7  20906310.207 7  -5800717.37049  20906306.06549     -1672.427
   -795692.593 5  24346281.859 5   -615998.09346  24346279.62746      -211.743
                  24450612.970 1
  -8507961.591 7  22301673.920 7  -6575139.15548  22301668.95248      1821.396
  -4993153.664 7  22171791.121 7  -5145816.37948  22171786.38648     -1054.014
    -41819.453 7  21605143.992 7   -186423.25949  21605139.94849     -3130.488
 05  3 15  6 49 15.0010000  0  6G 5G 6G10G21G25G30
  21004417.200 4  24459250.754 4  16386584.75947  24459249.25347     -4220.923
  -6169303.171 8  20911090.311 8  -5781143.61849  20911086.17549     -1676.733
   -792450.173 3  24346898.874 3   -613471.55146  24346896.71346      -220.283
  -8535240.203 7  22296482.963 7  -6596395.21348  22296477.99248      1815.937
  -4977275.742 7  22174812.629 7  -5133443.97148  22174807.74848     -1062.905
      5180.808 7  21614087.855 7   -149799.69749  21614083.81649     -3136.094
 05  3 15  6 49 30.0010000  0  6G 5G 6G10G21G25G30
  21067750.416 4  24471302.605 4  16435935.24446  24471301.18846     -4223.281
  -6144115.426 8  20915883.379 8  -5761516.81549  20915879.21849     -1681.426
   -789074.530 5  24347541.273 5   -610841.15346  24347539.21646      -229.536
  -8562435.572 7  22291307.834 7  -6617586.39948  22291302.84148      1810.229
  -4961261.948 7  22177859.988 7  -5120965.70048  22177855.05248     -1072.100
     52267.249 7  21623048.138 7   -113108.99649  21623044.13149     -3141.982
 05  3 15  6 49 45.0010000  0  6G 5G 6G10G21G25G30
  21131120.705 4  24483361.530 4  16485314.65846  24483360.12346     -4226.333
  -6118857.566 7  20920689.791 7  -5741835.38249  20920685.55949     -1686.387
   -785563.274 5  24348209.453 5   -608105.14446  24348207.55746      -238.936
  -8589544.721 7  22286149.109 7  -6638710.40148  22286144.13148      1804.160
  -4945110.150 7  22180933.581 7  -5108379.89648  22180928.69348     -1081.621
     99442.202 7  21632025.262 7    -76349.31749  21632021.29349     -3148.193
 05  3 15  6 50  0.0010000  0  6G 5G 6G10G21G25G30
  21194529.182 3  24495427.702 3  16534723.75746  24495426.29746     -4228.291
  -6093528.563 8  20925509.755 8  -5722098.51349  20925505.42549     -1690.889
   -781915.083 4  24348903.616 4   -605262.39446  24348901.86646      -247.710
  -8616566.765 6  22281006.957 6  -6659766.53048  22281002.03948      1798.638
  -4928819.037 7  22184033.681 7  -5095685.53748  22184028.88848     -1090.610
    146706.563 7  21641019.397 7    -39519.95149  21641015.42449     -3153.853
 05  3 15  6 50 15.0010000  0  6G 5G 6G10G21G25G30
  21257972.418 3  24507500.530 3  16584159.97446  24507499.13046     -4231.020
  -6068131.827 8  20930342.617 8  -5702308.86449  20930338.19649     -1695.713
   -778132.979 5  24349623.356 5   -602315.40846  24349621.63246      -256.768
  -8643504.889 7  22275880.755 7  -6680757.24748  22275875.93648      1792.729
  -4912392.049 7  22187159.619 7  -5082885.30748  22187154.98348     -1100.010
    194056.955 7  21650029.897 7     -2623.56249  21650025.90449     -3159.917
 05  3 15  6 50 30.0010000  0  6G 5G 6G10G21G25G30
  21321454.382 1  24519580.598 1  16633626.37746  24519579.36046     -4233.237
  -6042663.138 8  20935189.160 8  -5682463.13449  20935184.70449     -1700.015
   -774212.766 5  24350369.351 5   -599260.63846  24350367.58746      -265.649
  -8670354.581 7  22270771.409 7  -6701679.08248  22270766.63348      1787.324
  -4895824.878 7  22190312.256 7  -5069975.83848  22190307.77248     -1108.862
    241497.552 7  21659057.563 7     34343.11349  21659053.53049     -3165.396
 05  3 15  6 50 45.0010000  0  6G 5G 6G10G21G25G30
  21384968.754 1  24531666.874 1  16683117.99346  24531667.74146     -4235.283
  -6017128.801 8  20940048.201 8  -5662566.27049  20940043.75649     -1704.453
   -770160.378 5  24351140.412 5   -596102.97146  24351138.67346      -274.409
  -8697121.368 7  22265677.823 7  -6722536.30248  22265673.14348      1781.611
  -4879123.848 7  22193490.372 7  -5056962.06648  22193485.98348     -1117.925
    289022.098 7  21668101.183 7     71375.20549  21668097.13849     -3171.079
 05  3 15  6 51  0.0010000  0  6G 5G 6G10G21G25G30
  21448517.906 1  24543759.660 1  16732636.75446  24543760.45846     -4237.837
  -5991526.696 8  20944920.126 8  -5642616.58949  20944915.73249     -1709.170
   -765973.233 5  24351937.162 5   -592840.21947  24351935.39247      -283.755
  -8723802.610 7  22260600.533 7  -6743326.88548  22260595.85048      1775.815
  -4862286.795 7  22196694.342 7  -5043842.29248  22196689.99648     -1127.075
    336632.787 7  21677161.202 7    108474.40749  21677157.21849     -3177.124
 05  3 15  6 51 15.0010000  0  6G 5G 6G10G21G25G30
  21512099.979 1  24555858.662 1  16782181.13546  24555859.76146     -4240.059
  -5965858.276 8  20949804.675 8  -5622615.22849  20949800.37049     -1713.374
   -761652.581 6  24352759.440 6   -589473.47947  24352757.68147      -292.456
  -8750400.023 7  22255539.245 7  -6764052.14248  22255534.44148      1770.410
  -4845315.060 7  22199923.934 7  -5030617.58048  22199919.56148     -1135.957
    384328.128 6  21686237.307 6    145639.56649  21686233.40349     -3182.524
 05  3 15  6 51 30.0010000  0  6G 5G 6G10G21G25G30
  21575717.009 2  24567964.364 2  16831752.71446  24567965.13846     -4242.275
  -5940121.802 8  20954702.162 8  -5602560.83549  20954697.95049     -1718.086
   -757196.400 6  24353607.553 6   -586001.12947  24353605.87547      -301.685
  -8776911.345 7  22250494.335 7  -6784710.30248  22250489.45148      1764.492
  -4828206.749 7  22203179.552 7  -5017286.43148  22203175.06248     -1145.186
    432109.924 7  21695329.872 7    182872.11849  21695326.01649     -3188.394
 05  3 15  6 51 45.0010000  0  6G 5G 6G10G21G25G30
  21639370.697 2  24580077.447 2  16881352.93546  24580077.49146     -4244.536
  -5914315.264 8  20959613.001 8  -5582451.84449  20959608.80749     -1722.617
   -752602.389 6  24354481.832 6   -582421.37547  24354480.19147      -310.737
  -8803333.719 7  22245466.325 7  -6805299.16148  22245461.37648      1758.662
  -4810959.865 7  22206461.564 7  -5003847.31048  22206456.89848     -1154.228
    479980.229 6  21704439.269 6    220173.63149  21704435.51049     -3194.136
 05  3 15  6 52  0.0010000  0  6G 5G 6G10G21G25G30
  21703057.933 3  24592196.890 3  16930979.27046  24592196.75546     -4246.821
  -5888441.736 8  20964536.591 8  -5562290.66749  20964532.38049     -1727.178
   -747873.458 6  24355381.810 6   -578736.49247  24355380.14047      -319.819
  -8829670.483 7  22240454.596 7  -6825821.29748  22240449.60048      1752.832
  -4793577.567 7  22209769.330 7  -4990302.67048  22209764.53048     -1163.394
    527935.718 6  21713564.861 6    257541.51949  21713561.23949     -3199.927
 05  3 15  6 52 15.0010000  0  6G 5G 6G10G21G25G30
  21766779.626 3  24604322.927 3  16980632.45946  24604322.59246     -4249.170
  -5862500.321 8  20969473.092 8  -5542076.58649  20969468.87749     -1731.621
   -743008.320 6  24356307.676 6   -574945.49447  24356306.02347      -328.882
  -8855920.337 7  22235459.401 7  -6846275.71848  22235454.36148      1747.178
  -4776058.733 7  22213103.072 7  -4976651.62448  22213098.17348     -1172.402
    575977.462 6  21722706.883 6    294976.62748  21722703.33048     -3205.557
 05  3 15  6 52 30.0010000  0  6G 5G 6G10G21G25G30
  21830535.691 3  24616455.508 3  17030312.39146  24616454.93446     -4251.514
  -5836491.159 8  20974422.477 8  -5521809.72949  20974418.23749     -1736.250
   -738006.791 6  24357259.479 6   -571048.19047  24357257.75147      -337.988
  -8882082.521 7  22230480.895 7  -6866661.82748  22230475.73248      1741.274
  -4758403.369 7  22216462.787 7  -4962894.21648  22216457.85648     -1181.577
    624105.357 6  21731865.303 6    332478.85949  21731861.80449     -3211.411
 05  3 15  6 52 45.0010000  0  6G 5G 6G10G21G25G30
  21894325.757 2  24628594.563 2  17080018.83946  24628593.78246     -4253.970
  -5810414.481 8  20979384.720 8  -5501490.25249  20979380.40949     -1740.747
   -732868.927 5  24358237.104 5   -567044.65047  24358235.41147      -347.061
  -8908157.351 7  22225519.028 7  -6886979.88048  22225513.73648      1735.400
  -4740611.734 7  22219848.444 7  -4949030.61748  22219843.53648     -1190.723
    672319.185 6  21741040.066 6    370048.05249  21741036.61949     -3217.109
 05  3 15  6 53  0.0010000  0  6G 5G 6G10G21G25G30
  21958151.643 2  24640740.406 2  17129753.25446  24640739.53846     -4256.504
  -5784268.459 8  20984360.160 8  -5481116.73549  20984355.78949     -1745.459
   -727592.627 5  24359241.068 5   -562933.19547  24359239.45947      -356.421
  -8934142.611 7  22220574.212 7  -6907228.11848  22220568.83648      1729.219
  -4722681.797 7  22223260.408 7  -4935059.25548  22223255.56348     -1200.078
    720620.695 6  21750231.517 6    407685.56949  21750228.11449     -3223.130
 05  3 15  6 53 15.0010000  0  6G 5G 6G10G21G25G30
  22022009.498 2  24652892.185 2  17179512.56946  24652891.39646     -4258.354
  -5758056.853 8  20989348.081 8  -5460692.11449  20989343.71649     -1749.746
   -722181.325 6  24360270.771 6   -558716.60247  24360269.24047      -365.342
  -8960041.785 7  22215645.800 7  -6927409.27348  22215640.34848      1723.638
  -4704617.451 7  22226697.927 7  -4920983.15648  22226693.17348     -1208.892
    769006.227 6  21759438.974 6    445388.55548  21759435.59348     -3228.623
 05  3 15  6 53 30.0010000  0  6G 5G 6G10G21G25G30
  22085902.346 1  24665050.603 1  17229299.13246  24665049.90546     -4260.767
  -5731776.812 8  20994349.029 8  -5440214.17249  20994344.71549     -1754.287
   -716631.936 5  24361326.802 5   -554392.40347  24361325.37647      -374.512
  -8985851.495 7  22210734.371 7  -6947520.73648  22210728.83948      1717.656
  -4686415.883 7  22230161.600 7  -4906800.13648  22230156.85448     -1217.954
    817478.605 6  21768662.961 6    483159.22649  21768659.62749     -3234.302
 05  3 15  6 53 45.0010000  0  6G 5G 6G10G21G25G30
  22149830.691 1  24677215.777 1  17279113.34246  24677215.16146     -4263.037
  -5705427.536 7  20999363.121 7  -5419682.27849  20999358.89249     -1758.872
   -710943.441 6  24362409.310 6   -549959.81447  24362407.94447      -383.892
  -9011570.765 7  22205840.138 7  -6967561.71248  22205834.59848      1711.621
  -4668076.174 7  22233651.574 7  -4892509.46748  22233646.75748     -1227.231
    866038.575 7  21777903.599 7    520998.12548  21777900.36648     -3240.176
 05  3 15  6 54  0.0010000  0  6G 5G 6G10G21G25G30
  22213792.443 2  24689387.420 2  17328953.59046  24689386.77246     -4265.015
  -5679011.154 8  21004389.984 8  -5399098.09849  21004385.78949     -1763.247
   -705117.733 6  24363517.832 6   -545420.31347  24363516.46147      -392.983
  -9037201.159 7  22200962.811 7  -6987533.44648  22200957.33348      1705.869
  -4649600.347 7  22237167.469 7  -4878112.73948  22237162.51248     -1236.182
    914684.045 7  21787160.538 7    558903.66048  21787157.36548     -3245.723
 05  3 15  6 54 15.0020000  0  7G 5G 6G10G16G21G25G30
  22277791.179 3  24701566.073 3  17378822.62046  24701565.38546     -4267.495
  -5652526.559 8  21009429.831 8  -5378460.75749  21009425.62649     -1767.822
   -699154.748 5  24364652.567 5   -540773.81747  24364651.13247      -402.085
    -51538.963 1  24320358.333 1                                      2165.293
  -9062744.809 7  22196102.019 7  -7007437.58548  22196096.55048      1699.712
  -4630987.749 7  22240709.402 7  -4863609.43448  22240704.29948     -1245.435
    963417.633 7  21796434.258 7    596877.85348  21796431.09348     -3251.611
 05  3 15  6 54 30.0020000  0  7G 5G 6G10G16G21G25G30
  22341820.077 3  24713750.472 3  17428715.13846  24713749.66346     -4269.653
  -5625975.586 7  21014482.315 7  -5357771.69849  21014478.07149     -1772.368
   -693053.200 6  24365813.745 6   -536019.39147  24365812.17447      -411.392
    -84010.580 1  24314179.333 1                                      2164.482
  -9088196.287 7  22191258.796 7  -7027269.90748  22191253.32848      1693.765
  -4612239.102 7  22244277.209 7  -4849000.10548  22244271.97848     -1254.419
   1012234.456 7  21805723.828 7    634916.89948  21805720.58348     -3257.256
 05  3 15  6 54 45.0020000  0  7G 5G 6G10G16G21G25G30
  22405881.482 4  24725941.078 4  17478633.01746  24725940.11446     -4271.782
  -5599358.397 8  21019547.407 8  -5337031.03749  21019543.13549     -1776.714
   -686814.413 6  24367001.097 6   -531158.01447  24366999.28847      -420.552
   -116470.500 1  24308001.704 1                                      2163.545
  -9113558.530 7  22186432.555 7  -7047032.69348  22186427.09148      1687.813
  -4593354.970 7  22247870.772 7  -4834285.20648  22247865.46248     -1263.467
   1061136.058 7  21815029.506 7    673022.03148  21815026.19748     -3262.988
 05  3 15  6 55  0.0020000  0  7G 5G 6G10G16G21G25G30
  22469976.874 4  24738138.193 4  17528577.41946  24738137.05146     -4273.965
  -5572673.236 8  21024625.428 8  -5316237.42749  21024621.17249     -1781.079
   -680436.671 6  24368214.858 6   -526188.33847  24368212.90047      -429.673
   -148916.674 1  24301827.274 1                                      2162.744
  -9138829.434 6  22181623.671 6  -7066724.30848  22181618.19548      1681.870
  -4574333.820 7  22251490.385 7  -4819463.53948  22251485.06548     -1272.505
   1110123.876 6  21824351.585 6    711194.32748  21824348.26448     -3268.618
 05  3 15  6 55 15.0020000  0  7G 5G 6G10G16G21G25G30
  22534105.240 5  24750341.621 5  17578547.51346  24750340.32146     -4276.216
  -5545921.175 8  21029716.186 8  -5295391.67749  21029711.97549     -1785.513
   -673920.583 6  24369454.910 6   -521110.89047  24369452.93347      -438.755
   -181349.855 1  24295655.209 1                                      2162.051
  -9164010.281 7  22176831.921 7  -7086345.74748  22176826.49448      1675.903
  -4555176.577 7  22255135.903 7  -4804535.82048  22255130.62948     -1281.445
   1159196.997 6  21833689.899 6    749433.10548  21833686.56748     -3274.282
 05  3 15  6 55 30.0020000  0  7G 5G 6G10G16G21G25G30
  22598265.196 4  24762550.974 4  17628542.17246  24762549.57346     -4278.545
  -5519103.621 8  21034819.412 8  -5274494.89749  21034815.25649     -1790.259
   -667267.267 6  24370721.048 6   -515926.48846  24370719.12346      -448.433
   -213771.209 1  24289485.517 1                                      2160.840
  -9189102.321 7  22172057.057 7  -7105897.99048  22172051.75148      1669.546
  -4535884.492 6  22258807.038 6  -4789503.05648  22258801.90648     -1290.889
   1208354.000 6  21843044.145 6    787737.22848  21843040.82148     -3280.278
 05  3 15  6 55 45.0020000  0  7G 5G 6G10G16G21G25G30
  22662458.304 4  24774766.679 4  17678562.68046  24774765.10046     -4280.435
  -5492218.874 8  21039935.433 8  -5253545.74949  21039931.27349     -1794.492
   -660474.823 4  24372013.517 4   -510633.62546  24372011.79346      -457.383
   -246178.761 2  24283318.571 2                                      2159.971
  -9214103.148 7  22167299.553 7  -7125379.14148  22167294.35348      1663.657
  -4516455.837 6  22262504.100 6  -4774363.86548  22262499.17248     -1299.800
   1257596.614 6  21852414.686 6    826108.07148  21852411.36548     -3285.635
 05  3 15  6 56  0.0020000  0  7G 5G 6G10G16G21G25G30
  22726683.195 4  24786988.420 4  17728608.05246  24786986.67846     -4282.764
  -5465268.344 8  21045063.982 8  -5232545.33549  21045059.78549     -1798.843
   -653544.323 5  24373332.253 5   -505233.21446  24373330.63546      -466.650
   -278573.674 2  24277153.797 2                                      2159.292
  -9239013.683 7  22162559.234 7  -7144789.94949  22162554.14549      1657.739
  -4496892.069 6  22266226.892 6  -4759119.38948  22266222.14548     -1308.682
   1306923.349 7  21861801.251 7    864544.47248  21861797.87248     -3291.231
 05  3 15  6 56 15.0020000  0  7G 5G 6G10G16G21G25G30
  22790940.665 5  24799216.331 5  17778678.72346  24799214.43246     -4284.936
  -5438251.249 8  21050205.202 8  -5211493.06249  21050200.97449     -1803.359
   -646474.747 5  24374677.413 5   -499724.42346  24374675.93046      -475.967
   -310954.806 1  24270991.577 1                                      2158.379
  -9263832.821 7  22157836.317 7  -7164129.54348  22157831.28148      1651.572
  -4477192.242 6  22269975.623 6  -4743768.89148  22269971.01248     -1317.832
   1356335.156 6  21871204.059 6    903047.14248  21871200.63148     -3296.870
 05  3 15  6 56 30.0020000  0  7G 5G 6G10G16G21G25G30
  22855230.790 4  24811450.435 4  17828774.79046  24811448.35346     -4286.851
  -5411167.359 8  21055359.108 8  -5190388.74749  21055354.90749     -1807.622
   -639265.635 5  24376049.091 5   -494106.88846  24376047.78246      -485.107
   -343321.627 1  24264832.071 1                                      2157.549
  -9288559.992 7  22153130.878 7  -7183397.47148  22153125.90748      1645.601
  -4457356.175 7  22273750.360 7  -4728312.22648  22273745.77748     -1326.763
   1405832.080 7  21880623.059 7    941616.16448  21880619.59448     -3302.437
 05  3 15  6 56 45.0020000  0  7G 5G 6G10G16G21G25G30
  22919551.199 3  24823690.263 3  17878894.55645  24823687.97145     -4289.038
  -5384019.175 7  21060525.232 7  -5169234.32649  21060521.09149     -1812.158
   -631919.213 5  24377447.023 5   -488382.38446  24377445.69846      -494.492
   -375676.390 2  24258674.793 2                                      2156.509
  -9313197.375 7  22148442.522 7  -7202595.42148  22148437.62048      1639.404
  -4437386.322 6  22277550.539 6  -4712751.31049  22277546.00349     -1335.889
   1455411.757 6  21890057.841 6    980249.64648  21890054.32448     -3308.184
 05  3 15  6 57  0.0020000  0  7G 5G 6G10G16G21G25G30
  22983903.644 4  24835936.203 4  17929039.18146  24835933.72946     -4291.089
  -5356804.753 8  21065703.951 8  -5148028.28049  21065699.85649     -1816.416
   -624433.398 5  24378871.436 5   -482549.26546  24378870.19246      -503.662
   -408016.923 2  24252520.316 2                                      2155.640
  -9337742.694 7  22143771.669 7  -7221721.63948  22143766.89048      1633.359
  -4417280.763 7  22281376.520 7  -4697084.64949  22281372.06149     -1344.810
   1505076.053 7  21899508.731 7   1018949.07848  21899505.17048     -3313.652
 05  3 15  6 57 15.0020000  0  7G 5G 6G10G16G21G25G30
  23048289.093 3  24848188.396 3  17979209.64246  24848185.82946     -4293.457
  -5329523.008 7  21070895.478 7  -5126769.79249  21070891.43149     -1820.991
   -616806.870 5  24380322.762 5   -476606.50046  24380321.51946      -513.149
   -440341.904 3  24246368.827 3                                      2154.311
  -9362194.693 7  22139118.592 7  -7240775.14248  22139113.88048      1626.978
  -4397038.385 6  22285228.536 6  -4681311.37049  22285224.15449     -1354.102
   1554825.923 6  21908975.878 6   1057715.19948  21908972.30348     -3319.439
 05  3 15  6 57 30.0020000  0  7G 5G 6G10G16G21G25G30
  23112707.613 4  24860446.920 4  18029405.80246  24860444.38546     -4295.742
  -5302173.950 8  21076099.825 8  -5105458.85049  21076095.81149     -1825.503
   -609039.225 6  24381800.973 6   -470553.77846  24381799.66546      -522.432
   -472651.009 2  24240220.355 2                                      2153.335
  -9386552.928 7  22134483.362 7  -7259755.58648  22134478.62748      1620.742
  -4376658.983 7  22289106.623 7  -4665431.33649  22289102.30849     -1363.193
   1604661.530 7  21918459.329 7   1096548.11248  21918455.74848     -3325.249
 05  3 15  6 57 45.0020000  0  7G 5G 6G10G16G21G25G30
  23177155.886 5  24872711.048 5  18079625.12646  24872708.70946     -4297.637
  -5274760.698 7  21081316.394 7  -5084097.90149  21081312.41949     -1829.834
   -601133.572 6  24383305.415 6   -464393.51846  24383304.06946      -531.797
   -504947.120 2  24234074.410 2  -1237299.06644  24234067.56444      2152.651
  -9410820.202 7  22129865.412 7  -7278665.16348  22129860.63048      1614.609
  -4356145.870 7  22293010.120 7  -4649447.10848  22293005.88748     -1372.158
   1654579.680 7  21927958.496 7   1135445.34548  21927954.87448     -3330.772
 05  3 15  6 58  0.0020000  0  7G 5G 6G10G16G21G25G30
  23241635.926 4  24884981.257 4  18129869.25046  24884979.03546     -4299.600
  -5247281.330 8  21086545.546 8  -5062685.41749  21086541.60049     -1834.028
   -593087.698 5  24384836.610 5   -458124.00547  24384835.06947      -540.977
   -537227.970 2  24227931.455 2  -1262452.88345  24227924.44345      2151.665
  -9434994.210 7  22125265.214 7  -7297502.05748  22125260.35448      1608.559
  -4335497.007 6  22296939.401 6  -4633357.11848  22296935.30448     -1381.089
   1704582.316 7  21937473.718 7   1174408.41548  21937470.08448     -3336.255
 05  3 15  6 58 15.0020000  0  7G 5G 6G10G16G21G25G30
  23306145.391 5  24897257.095 5  18180136.30846  24897254.85046     -4301.675
  -5219738.211 7  21091786.835 7  -5041223.26349  21091782.91349     -1838.394
   -584903.552 6  24386393.988 6   -451746.72547  24386392.41647      -550.278
   -569495.573 1  24221790.927 1  -1287596.46945  24221784.29945      2150.649
  -9459076.948 7  22120682.401 7  -7316267.81748  22120677.43448      1602.388
  -4314714.633 6  22300894.064 6  -4617163.07348  22300890.11348     -1389.985
   1754667.176 6  21947004.536 6   1213435.55648  21947000.95548     -3341.792
 05  3 15  6 58 30.0020000  0  7G 5G 6G10G16G21G25G30
  23370688.458 5  24909539.273 5  18230429.54046  24909536.96846     -4304.024
  -5192126.865 8  21097041.097 8  -5019707.94449  21097037.22049     -1842.988
   -576576.607 5  24387978.536 5   -445258.20147  24387977.02347      -559.844
   -601745.350 1  24215653.703 1  -1312726.16845  24215647.56345      2149.263
  -9483063.783 7  22116117.816 7  -7334958.86048  22116112.77648      1595.986
  -4293794.408 7  22304875.014 7  -4600861.63648  22304871.14748     -1399.277
   1804838.507 6  21956551.807 6   1252530.06748  21956548.29248     -3347.666
 05  3 15  6 58 45.0020000  0  7G 5G 6G10G16G21G25G30
  23435262.271 5  24921827.300 5  18280746.68046  24921824.89446     -4305.752
  -5164450.255 7  21102307.763 7  -4998141.76849  21102303.93449     -1847.129
   -568109.532 5  24389589.709 5   -438660.48846  24389588.23746      -568.984
   -633979.909 1  24209519.423 1  -1337843.99645  24209514.84445      2148.389
  -9506957.161 7  22111571.036 7  -7353577.05848  22111565.93148      1589.927
  -4272739.266 7  22308881.650 7  -4584455.05148  22308877.83048     -1408.057
   1855093.383 6  21966114.989 6   1291689.67948  21966111.49548     -3352.920
 05  3 15  6 59  0.0020000  0  7G 5G 6G10G16G21G25G30
  23499865.447 4  24934120.977 4  18331086.67546  24934118.49946     -4307.944
  -5136709.710 7  21107586.592 7  -4976525.76949  21107582.78949     -1851.563
   -559503.409 6  24391227.384 6   -431954.42747  24391225.87747      -578.481
   -666200.370 1  24203388.034 1  -1362950.81645  24203383.13945      2147.456
  -9530758.160 7  22107041.844 7  -7372123.29448  22107036.71248      1583.589
  -4251550.611 7  22312913.723 7  -4567944.43948  22312909.92748     -1417.139
   1905430.517 7  21975693.869 7   1330913.39248  21975690.30948     -3358.618
 05  3 15  6 59 15.0020000  0  7G 5G 6G10G16G21G25G30
  23564498.804 4  24946420.459 4  18381450.27445  24946417.92145     -4309.888
  -5108904.382 8  21112877.756 8  -4954859.28349  21112873.94949     -1855.825
   -550757.229 6  24392891.694 6   -425139.23747  24392890.29247      -587.607
   -698405.482 2  24197259.469 2  -1388045.71145  24197254.99745      2146.499
  -9554465.699 7  22102530.438 7  -7390596.69348  22102525.30948      1577.358
  -4230227.441 7  22316971.418 7  -4551328.99748  22316967.58248     -1426.006
   1955850.680 7  21985288.558 7   1370201.82348  21985284.88648     -3364.062
 05  3 15  6 59 30.0020000  0  7G 5G 6G10G16G21G25G30
  23629160.386 4  24958725.293 4  18431835.88745  24958722.81845     -4311.719
  -5081036.125 7  21118180.903 7  -4933143.77049  21118177.07949     -1860.024
   -541872.420 6  24394582.455 6   -418216.01547  24394581.21547      -596.963
   -730596.712 2  24191133.640 2  -1413129.77345  24191129.88345      2145.537
  -9578081.161 7  22098036.532 7  -7408998.34848  22098031.43448      1571.221
  -4208771.599 7  22321054.386 7  -4534610.15948  22321050.44048     -1434.854
   2006352.094 6  21994898.684 6   1409553.55948  21994894.95448     -3369.487
 05  3 15  6 59 45.0020000  0  7G 5G 6G10G16G21G25G30
  23693850.985 4  24971035.588 4  18482244.01646  24971033.36846     -4313.770
  -5053104.157 8  21123496.209 8  -4911378.61449  21123492.37349     -1864.336
   -532848.110 6  24396299.721 6   -411184.12747  24396298.56247      -606.372
   -762773.197 1  24185010.677 1  -1438202.35745  24185006.99245      2144.541
  -9601603.430 7  22093560.382 7  -7427327.39948  22093555.31048      1564.902
  -4187182.353 7  22325162.713 7  -4517787.36748  22325158.66348     -1443.867
   2056935.494 7  22004524.414 7   1448969.17848  22004520.69248     -3375.015
 05  3 15  7  0  0.0020000  0  7G 5G 6G10G16G21G25G30
  23758571.375 5  24983351.559 5  18532675.47345  24983349.57945     -4315.801
  -5025107.605 8  21128823.810 8  -4889563.12449  21128819.97549     -1868.711
   -523683.202 6  24398043.806 6   -404042.66047  24398042.56947      -615.762
   -794933.743 2  24178890.688 2  -1463262.56045  24178887.30445      2143.315
  -9625031.326 7  22089102.185 7  -7445582.89248  22089097.13248      1558.672
  -4165458.740 7  22329296.614 7  -4500859.87448  22329292.45148     -1452.842
   2107601.699 7  22014165.893 7   1488449.30948  22014162.27448     -3380.610
 05  3 15  7  0 15.0020000  0  7G 5G 6G10G16G21G25G30
  23823324.226 5  24995673.619 5  18583132.18545  24995671.92945     -4317.686
  -4997043.747 7  21134164.211 7  -4867695.18949  21134160.35849     -1872.993
   -514374.736 6  24399815.221 6   -396789.34747  24399813.85847      -625.195
   -827075.332 2  24172774.301 2  -1488308.02946  24172771.11346      2142.520
  -9648361.674 7  22084662.583 7  -7463762.39048  22084657.52548      1552.246
  -4143597.972 7  22333456.621 7  -4483825.52348  22333452.37948     -1461.724
   2158353.443 7  22023823.644 7   1527996.08848  22023820.19148     -3386.123
 05  3 15  7  0 30.0020000  0  7G 5G 6G10G16G21G25G30
  23888104.768 5  25008000.920 5  18633610.47745  25007999.47845     -4319.536
  -4968917.389 8  21139516.491 8  -4845778.56349  21139512.58449     -1877.143
   -504927.387 6  24401613.086 6   -389427.75847  24401611.52847      -634.458
   -859202.446 2  24166660.657 2  -1513342.09946  24166657.60246      2141.313
  -9671598.902 7  22080240.688 7  -7481869.30648  22080235.63748      1545.976
  -4121604.901 7  22337641.809 7  -4466688.07548  22337637.51748     -1470.586
   2209185.974 7  22033496.779 7   1567605.83648  22033493.43148     -3391.523
 05  3 15  7  0 45.0020000  0  7G 5G 6G10G16G21G25G30
  23952914.508 5  25020333.793 5  18684111.46846  25020332.57946     -4321.489
  -4940726.810 8  21144880.992 8  -4823811.89049  21144877.01949     -1881.479
   -495339.293 6  24403437.706 6   -381956.49647  24403436.01847      -643.818
   -891313.321 3  24160550.122 3  -1538363.50846  24160547.15546      2140.337
  -9694741.341 7  22075836.827 7  -7499902.37048  22075831.82948      1539.658
  -4099477.804 7  22341852.462 7  -4449446.20048  22341848.17848     -1479.531
   2260100.928 7  22043185.562 7   1607279.79848  22043182.33148     -3397.031
 05  3 15  7  1  0.0020000  0  7G 5G 6G10G16G21G25G30
  24017753.929 5  25032672.285 5  18734635.59046  25032671.29246     -4323.447
  -4912471.816 8  21150257.740 8  -4801795.02449  21150253.76349     -1885.771
   -485609.736 6  24405289.220 6   -374375.03947  24405287.35947      -653.345
   -923407.019 1  24154442.794 1  -1563371.64446  24154439.99046      2139.219
  -9717788.240 7  22071451.144 7  -7517860.98448  22071446.20148      1533.354
  -4077216.446 7  22346088.625 7  -4432099.70348  22346084.37648     -1488.603
   2311098.604 7  22052890.096 7   1647018.21248  22052886.93548     -3402.534
 05  3 15  7  1 15.0020000  0  7G 5G 6G10G16G21G25G30
  24082619.751 5  25045015.877 5  18785180.31646  25045014.95146     -4325.420
  -4884155.197 8  21155646.221 8  -4779730.13849  21155642.29149     -1889.971
   -475741.621 6  24407167.092 6   -366685.63746  24407165.03646      -662.720
   -955486.409 1  24148337.941 1  -1588368.58946  24148335.51046      2137.832
  -9740742.143 7  22067083.146 7  -7535747.13448  22067078.26648      1527.051
  -4054823.669 7  22350349.786 7  -4414650.80548  22350345.58948     -1497.349
   2362175.942 7  22062609.781 7   1686818.70648  22062606.65648     -3407.925
 05  3 15  7  1 30.0020000  0  7G 5G 6G10G16G21G25G30
  24147514.569 5  25057364.996 5  18835747.65946  25057364.12446     -4327.236
  -4855774.492 8  21161046.889 8  -4757615.30449  21161043.03149     -1894.199
   -465731.969 5  24409071.883 5   -358885.90646  24409069.65346      -672.056
   -987548.657 1  24142236.742 1  -1613352.18845  24142234.25545      2136.870
  -9763600.222 7  22062733.396 7  -7553558.62948  22062728.55948      1520.547
  -4032296.770 7  22354636.506 7  -4397097.39048  22354632.36648     -1506.299
   2413335.660 7  22072345.141 7   1726683.39648  22072341.99748     -3413.413
 05  3 15  7  1 45.0020000  0  7G 5G 6G10G16G21G25G30
  24212439.708 4  25069719.889 4  18886338.57246  25069719.11846     -4329.351
  -4827328.395 7  21166460.008 7  -4735449.51249  21166456.17249     -1898.589
   -455579.434 5  24411003.923 5   -350974.87046  24411001.48746      -681.636
  -1019591.973 3  24136139.224 3  -1638320.99346  24136136.58846      2135.454
  -9786360.897 7  22058402.174 7  -7571294.21848  22058397.39148      1514.126
  -4009634.637 7  22358948.970 7  -4379438.59748  22358944.90048     -1515.356
   2464578.877 7  22082096.389 7   1766613.13648  22082093.22248     -3419.004
 05  3 15  7  2  0.0020000  0  7G 5G 6G10G16G21G25G30
  24277394.034 2  25082080.397 2  18936952.20745  25082079.69745     -4331.455
  -4798817.966 7  21171885.373 7  -4713233.61049  21171881.50749     -1902.964
   -445284.871 5  24412962.884 5   -342953.16447  24412960.48647      -691.206
  -1051617.369 2  24130045.086 2  -1663275.86346  24130042.32246      2134.355
  -9809024.799 7  22054089.372 7  -7588954.39148  22054084.59448      1507.603
  -3986838.347 7  22363286.968 7  -4361675.26448  22363282.95448     -1524.307
   2515904.635 6  22091863.345 6   1806607.20748  22091860.09848     -3424.629
 05  3 15  7  2 15.0020000  0  7G 5G 6G10G16G21G25G30
  24342378.236 1  25094446.544 1                                     -4333.203
  -4770242.672 7  21177323.072 7  -4690967.16649  21177319.15549     -1907.109
   -434847.411 5  24414948.947 5   -334820.10547  24414946.81047      -700.581
  -1083623.833 2  24123954.489 2  -1688215.96046  24123951.62346      2133.228
  -9831591.014 7  22049795.138 7  -7606538.46248  22049790.37148      1501.211
  -3963907.368 7  22367650.617 7  -4343806.97848  22367646.60848     -1533.213
   2567313.438 7  22101646.140 7   1846665.99448  22101642.77748     -3429.942
 05  3 15  7  2 30.0020000  0  7G 5G 6G10G16G21G25G30
                  25106817.973 1
  -4741603.727 7  21182772.892 7  -4668651.10649  21182768.93249     -1911.294
   -424268.254 4  24416962.006 4   -326576.57446  24416960.05646      -709.961
  -1115612.560 3  24117867.133 3  -1713142.18045  24117864.25445      2132.139
  -9854060.683 7  22045519.312 7  -7624047.29148  22045514.51448      1494.829
  -3940843.105 7  22372039.629 7  -4325834.82948  22372035.58748     -1542.041
   2618803.885 6  22111444.448 6   1886788.38148  22111441.06148     -3435.386
 05  3 15  7  2 45.0020000  0  7G 6G10G15G16G21G25G30
  -4712901.964 8  21188234.663 8  -4646286.10649  21188230.69049     -1915.479
   -413547.913 4  24419002.015 4   -318223.03246  24419000.11146      -719.243
    -29485.176 1  25122599.070 1                                      2834.653
  -1147583.901 3  24111783.115 3  -1738054.92446  24111780.14646      2130.693
  -9876434.198 7  22041261.805 7  -7641481.20749  22041256.93249      1488.325
  -3917646.194 7  22376453.874 7  -4307759.32348  22376449.75748     -1550.869
   2670375.171 7  22121258.150 7   1926973.77048  22121254.79448     -3440.767
 05  3 15  7  3  0.0020000  0  7G 6G10G15G16G21G25G30
  -4684138.263 7  21193708.209 7  -4623872.83649  21193704.24049     -1919.541
   -402687.020 5  24421068.737 5   -309759.98047  24421066.86947      -728.667
    -72001.814 2  25114508.567 2                                      2834.209
  -1179538.426 3  24105702.280 3  -1762954.53446  24105699.14046      2129.785
  -9898711.942 7  22037022.512 7  -7658840.48848  22037017.58448      1482.070
  -3894317.483 7  22380893.234 7  -4289581.12048  22380889.01748     -1559.473
   2722026.625 7  22131087.094 7   1967221.62048  22131083.83148     -3446.021
 05  3 15  7  3 15.0020000  0  7G 6G10G15G16G21G25G30
  -4655312.015 7  21199193.637 7  -4601410.82349  21199189.70049     -1923.852
   -391684.875 5  24423162.250 5   -301186.88546  24423160.49246      -738.193
   -114508.312 2  25106419.681 2                                      2833.589
  -1211475.367 3  24099624.767 3  -1787840.43246  24099621.44546      2128.374
  -9920893.264 7  22032801.570 7  -7676124.64249  22032796.60349      1475.508
  -3870856.437 7  22385357.742 7  -4271299.79848  22385353.49548     -1568.545
   2773758.504 7  22140931.332 7   2007532.15748  22140928.15748     -3451.436
 05  3 15  7  3 30.0020000  0  7G 6G10G15G16G21G25G30
  -4626422.340 8  21204691.143 8  -4578899.41349  21204687.24649     -1928.252
   -380540.324 5  24425282.879 5   -292502.87846  24425281.25146      -747.949
   -157003.298 2  25098332.786 2                                      2832.378
  -1243393.621 2  24093550.919 2  -1812711.75845  24093547.26045      2127.246
  -9942976.784 7  22028599.240 7  -7693332.57849  22028594.20749      1468.794
  -3847262.162 7  22389847.567 7  -4252914.66548  22389843.37548     -1577.534
   2825571.826 7  22150791.075 7   2047906.12648  22150788.01048     -3457.100
 05  3 15  7  3 45.0020000  0  7G 6G10G15G16G21G25G30
  -4597468.203 8  21210200.956 8  -4556337.75749  21210197.07649     -1932.197
   -369252.132 5  24427430.922 5   -283706.89747  24427429.35147      -757.080
   -199485.475 1  25090248.242 1                                      2831.963
  -1275291.619 4  24087480.920 4  -1837567.35245  24087476.91645      2125.957
  -9964961.158 7  22024415.753 7  -7710463.25649  22024410.68949      1462.534
  -3823533.514 7  22394362.955 7  -4234424.83048  22394358.86048     -1586.138
   2877467.644 7  22160666.554 7   2088344.40748  22160663.55748     -3462.212
 05  3 15  7  4  0.0020000  0  7G 6G10G15G16G21G25G30
  -4568452.023 8  21215722.592 8  -4533727.75949  21215718.72249     -1936.177
   -357822.577 5  24429605.825 5   -274800.72947  24429604.40247      -766.387
   -241956.896 1  25082165.840 1                                      2831.182
  -1307171.776 4  24081414.260 4  -1862408.99245  24081409.95645      2124.971
  -9986848.488 7  22020250.751 7  -7727518.31548  22020245.61748      1456.152
  -3799673.095 7  22398903.425 7  -4215832.30648  22398899.42648     -1594.893
   2929443.408 7  22170557.250 7   2128844.97948  22170554.32848     -3467.471
 05  3 15  7  4 15.0020000  0  7G 6G10G15G16G21G25G30
  -4539374.848 8  21221255.822 8  -4511070.22249  21221251.95249     -1940.435
   -346252.328 6  24431807.699 6   -265785.00047  24431806.27047      -776.001
   -284418.116 1  25074085.382 1                                      2830.615
  -1339034.645 5  24075350.844 5  -1887237.21346  24075346.35046      2123.730
 -10008639.567 7  22016104.069 7  -7744498.37749  22016098.86649      1449.561
  -3775681.811 7  22403468.787 7  -4197137.80448  22403464.86748     -1603.711
   2981498.262 7  22180462.994 7   2169407.18348  22180460.09148     -3472.876
 05  3 15  7  4 30.0020000  0  7G 6G10G15G16G21G25G30
  -4510234.632 8  21226801.032 8  -4488363.57949  21226797.16549     -1944.780
   -334539.340 6  24434036.725 6   -256657.98947  24434035.23447      -785.689
   -326866.785 1  25066007.932 1                                      2829.336
  -1370878.020 5  24069291.174 5  -1912050.17946  24069286.50246      2122.275
 -10030332.076 7  22011976.142 7  -7761401.61549  22011970.95049      1442.803
  -3751557.678 7  22408059.423 7  -4178339.78848  22408055.55348     -1612.725
   3033634.026 7  22190384.131 7   2210032.42748  22190381.25048     -3478.384
 05  3 15  7  4 45.0020000  0  7G 6G10G15G16G21G25G30
  -4481031.136 8  21232358.273 8  -4465607.61749  21232354.43149     -1948.965
   -322683.237 6  24436292.923 6   -247419.51747  24436291.36547      -795.151
   -369302.414 1  25057933.127 1                                      2828.721
  -1402701.218 5  24063235.330 5  -1936847.48446  24063230.65346      2120.864
 -10051925.524 7  22007867.053 7  -7778227.68149  22007861.93349      1436.270
  -3727300.580 6  22412675.405 6  -4159438.17348  22412671.55348     -1621.567
   3085850.928 7  22200320.690 7   2250720.89748  22200317.88548     -3483.823
 05  3 15  7  5  0.0020000  0  7G 6G10G15G16G21G25G30
  -4451766.626 7  21237927.124 7  -4442804.11549  21237923.31349     -1953.110
   -310685.868 5  24438575.966 5   -238070.92647  24438574.26547      -804.590
   -411726.814 2  25049860.159 2                                      2827.666
  -1434506.236 5  24057182.998 5  -1961630.60546  24057178.41346      2119.663
 -10073421.659 7  22003776.497 7  -7794977.90949  22003771.42449      1429.688
  -3702912.640 7  22417316.293 7  -4140434.60148  22417312.46748     -1630.381
   3138146.804 7  22210272.273 7   2291470.89948  22210269.56048     -3489.224
 05  3 15  7  5 15.0020000  0  7G 6G10G15G16G21G25G30
  -4422438.410 7  21243508.085 7  -4419950.97949  21243504.28749     -1957.231
   -298544.572 5  24440886.456 5   -228610.20146  24440884.43346      -813.936
   -454137.041 3  25041789.798 3   -338858.58745  25041783.92045      2826.944
  -1466290.163 5  24051134.695 5  -1986397.31746  24051130.27146      2118.389
 -10094817.515 7  21999705.015 7  -7811649.99149  21999699.99049      1423.208
  -3678391.359 7  22421982.583 7  -4121327.12348  22421978.75948     -1639.058
   3190524.157 7  22220239.367 7   2332284.38448  22220236.74048     -3494.439
 05  3 15  7  5 30.0020000  0  7G 6G10G15G16G21G25G30
  -4393045.566 7  21249101.362 7  -4397047.48349  21249097.50349     -1961.562
   -286258.021 5  24443224.540 5   -219036.26146  24443222.20046      -823.916
   -496531.664 4  25033722.362 4   -371893.33246  25033717.15446      2825.972
  -1498051.725 5  24045090.734 5  -2011146.55646  24045086.43646      2116.719
 -10116111.828 7  21995652.853 7  -7828242.96049  21995647.79349      1416.382
  -3653735.668 7  22426674.458 7  -4102114.92448  22426670.62448     -1648.106
   3242984.017 7  22230222.139 7   2373162.16148  22230219.59548     -3499.961
 05  3 15  7  5 45.0020000  0  7G 6G10G15G16G21G25G30
  -4363589.211 7  21254706.763 7  -4374094.50349  21254702.78249     -1965.913
   -273827.278 6  24445590.073 6   -209349.95446  24445587.51446      -833.594
   -538911.535 5  25025657.683 5   -404916.59746  25025653.19746      2824.697
  -1529791.850 6  24039050.827 6  -2035879.12246  24039046.67446      2115.132
 -10137305.660 7  21991619.795 7  -7844757.62049  21991614.65349      1409.438
  -3628946.890 7  22431391.659 7  -4082799.01648  22431387.81448     -1657.051
   3295525.172 7  22240220.418 7   2414103.30048  22240217.90848     -3505.493
 05  3 15  7  6  0.0020000  0  7G 6G10G15G16G21G25G30
  -4334072.390 7  21260323.667 7  -4351094.39149  21260319.59949     -1969.736
   -261255.101 6  24447982.535 6   -199553.41846  24447979.70946      -842.803
   -581279.315 5  25017595.289 5   -437930.43846  25017591.34546      2824.141
  -1561513.138 6  24033014.505 6  -2060597.00846  24033010.45646      2114.185
 -10158401.615 7  21987605.345 7  -7861196.02549  21987600.16349      1403.174
  -3604028.003 7  22436133.590 7  -4063381.72748  22436129.75348     -1665.566
   3348144.553 7  22250233.569 7   2455105.38448  22250231.11648     -3510.508
 05  3 15  7  6 15.0020000  0  7G 6G10G15G16G21G25G30
  -4304493.576 7  21265952.351 7  -4328045.96649  21265948.26849     -1973.853
   -248539.808 5  24450402.210 5   -189645.46846  24450399.16146      -852.412
   -623633.173 5  25009535.504 5   -470933.37746  25009531.96546      2823.301
  -1593213.836 6  24026982.071 6  -2085298.84946  24026978.12146      2112.788
 -10179397.833 7  21983609.898 7  -7877556.71049  21983604.66349      1396.484
  -3578977.510 7  22440900.538 7  -4043861.87048  22440896.69848     -1674.302
   3400843.626 7  22260261.898 7   2496169.55348  22260259.45548     -3515.854
 05  3 15  7  6 30.0020000  0  7G 6G10G15G16G21G25G30
  -4274856.077 8  21271592.197 8  -4304951.82349  21271588.13649     -1977.671
   -235684.621 5  24452848.510 5   -179628.42146  24452845.29146      -861.582
   -665975.843 5  25001477.849 5   -503927.72446  25001474.58646      2822.607
  -1624897.051 6  24020953.000 6  -2109987.07946  24020949.12046      2111.699
 -10200297.077 7  21979632.911 7  -7893841.83449  21979627.66049      1390.166
  -3553798.643 7  22445691.890 7  -4024242.00048  22445688.04248     -1682.769
   3453619.182 7  22270304.783 7   2537293.33148  22270302.32148     -3520.801
 05  3 15  7  6 45.0020000  0  7G 6G10G15G16G21G25G30
  -4245160.380 8  21277243.108 8  -4281812.32749  21277239.10149     -1981.724
   -222689.807 6  24455321.366 6   -169502.59346  24455317.95946      -871.099
   -708307.626 5  24993422.231 5   -536913.47546  24993419.19146      2821.631
  -1656562.888 6  24014927.225 6  -2134661.72646  24014923.36546      2110.459
 -10221099.833 7  21975674.291 7  -7910051.77049  21975669.08949      1383.535
  -3528491.950 7  22450507.574 7  -4004522.51648  22450503.71648     -1691.436
   3506470.591 7  22280362.144 7   2578476.21848  22280359.59648     -3526.016
 05  3 15  7  7  0.0020000  0  7G 6G10G15G16G21G25G30
  -4215401.825 8  21282905.991 8  -4258623.84749  21282902.03049     -1986.123
   -209550.651 5  24457821.609 5   -159264.33146  24457817.98946      -880.859
   -750623.625 4  24985369.638 4   -569886.98346  24985366.76246      2820.391
  -1688206.482 6  24008905.590 6  -2159319.05446  24008901.78146      2108.623
 -10241801.278 7  21971734.930 7  -7926182.76949  21971729.77949      1376.660
  -3503053.047 7  22455348.458 7  -3984700.01248  22455344.54348     -1700.493
   3559402.433 7  22290434.805 7   2619721.78048  22290432.16748     -3531.641
 05  3 15  7  7 15.0020000  0  7G 6G10G15G16G21G25G30
  -4185578.504 8  21288581.201 8  -4235384.91249  21288577.28849     -1990.264
   -196264.822 6  24460349.864 6   -148911.72546  24460345.90146      -890.508
   -792921.314 5  24977320.554 5   -602846.23846  24977317.84046      2819.370
  -1719825.374 6  24002888.604 6  -2183957.13346  24002884.87046      2107.222
 -10262398.772 8  21967815.349 8  -7942232.76049  21967810.22049      1369.858
  -3477479.834 7  22460214.917 7  -3964772.82948  22460210.91348     -1709.209
   3612416.676 7  22300523.156 7   2661031.56648  22300520.42048     -3536.890
 05  3 15  7  7 30.0020000  0  7G 6G10G15G16G21G25G30
  -4155694.263 8  21294267.987 8  -4212098.50449  21294264.13549     -1994.194
   -182836.159 6  24462905.207 6   -138447.85546  24462901.09346      -899.868
   -835204.294 5  24969274.327 5   -635794.02446  24969271.72546      2818.648
  -1751423.365 6  23996875.589 6  -2208578.91246  23996871.90846      2105.928
 -10282896.092 7  21963914.833 7  -7958204.69249  21963909.63349      1363.257
  -3451776.267 7  22465106.162 7  -3944744.07548  22465102.10948     -1717.793
   3665509.456 7  22310626.428 7   2702402.54048  22310623.61248     -3541.987
 05  3 15  7  7 45.0020000  0  7G 6G10G15G16G21G25G30
  -4125749.183 8  21299966.370 8  -4188764.68849  21299962.54549     -1998.291
   -169264.601 6  24465487.739 6   -127872.65446  24465483.66546      -909.355
   -877472.219 5  24961230.969 5   -668729.99046  24961228.46446      2817.471
  -1783000.229 5  23990866.588 5  -2233184.27146  23990862.93546      2104.341
 -10303292.937 8  21960033.447 8  -7974098.33649  21960028.13949      1356.538
  -3425942.420 7  22470022.208 7  -3924613.80648  22470018.07948     -1726.519
   3718680.679 7  22320744.625 7   2743834.63448  22320741.78948     -3547.339
 05  3 15  7  8  0.0020000  0  7G 6G10G15G16G21G25G30
  -4095743.558 8  21305676.261 8  -4165383.70349  21305672.45349     -2002.432
   -155550.266 6  24468097.501 6   -117186.22346  24468093.64646      -919.067
   -919725.097 5  24953190.519 5   -701654.37945  24953188.11345      2816.397
  -1814556.009 5  23984861.595 5  -2257773.16846  23984857.93346      2103.115
 -10323589.371 8  21956171.171 8  -7989913.73749  21956165.83349      1349.736
  -3399978.602 7  22474963.015 7  -3904382.26048  22474958.76548     -1735.234
   3771929.893 7  22330877.676 7   2785327.50848  22330874.76148     -3552.544
 05  3 15  7  8 15.0020000  0  7G 6G10G15G16G21G25G30
  -4065676.080 7  21311397.917 7  -4141954.50949  21311394.10349     -2006.645
   -141691.631 5  24470734.773 5   -106387.30246  24470731.17046      -928.755
   -961961.231 5  24945153.247 5   -734565.59145  24945150.87945      2815.161
  -1846088.888 5  23978861.040 5  -2282344.16846  23978857.23846      2101.328
 -10343783.705 7  21952328.309 7  -8005649.57249  21952323.04049      1342.861
  -3373883.545 7  22479928.829 7  -3884048.46548  22479924.47548     -1744.092
   3825258.465 7  22341025.813 7   2826882.20248  22341022.86448     -3557.910
 05  3 15  7  8 30.0020000  0  7G 6G10G15G16G21G25G30
  -4035546.154 7  21317131.456 7  -4118476.65849  21317127.63049     -2010.728
   -127688.069 5  24473399.561 5    -95475.42146  24473396.30046      -938.384
  -1004179.770 5  24937119.320 5   -767463.19945  24937116.95445      2814.053
  -1877598.211 5  23972865.016 5  -2306896.93946  23972860.99346      2099.839
 -10363875.227 7  21948504.983 7  -8021305.30649  21948499.88349      1335.991
  -3347656.761 7  22484919.692 7  -3863612.02448  22484915.27748     -1752.842
   3878666.859 7  22351189.119 7   2868499.09948  22351186.14848     -3563.252
 05  3 15  7  8 45.0020000  0  7G 6G10G15G16G21G25G30
  -4005354.788 7  21322876.688 7  -4094950.93249  21322872.86549     -2014.634
   -113540.202 5  24476091.700 5    -84451.10446  24476088.87046      -947.798
  -1046381.109 5  24929088.683 5   -800347.36745  24929086.24845      2812.993
  -1909084.522 5  23966873.361 5  -2331431.73846  23966869.07646      2098.462
 -10383864.452 7  21944701.131 7  -8036881.31949  21944696.21049      1329.370
  -3321299.178 7  22489935.395 7  -3843073.67548  22489930.99848     -1761.372
   3932154.094 7  22361367.435 7   2910177.43948  22361364.45648     -3568.296
 05  3 15  7  9  0.0020000  0  7G 6G10G15G16G21G25G30
  -3975103.553 7  21328633.332 7  -4071378.54949  21328629.50549     -2018.862
    -99249.509 5  24478811.032 5    -73315.50546  24478808.54646      -957.554
  -1088566.708 5  24921061.094 5   -833219.21145  24921058.51045      2811.836
  -1940549.138 5  23960885.861 5  -2355949.68846  23960881.26646      2096.733
 -10403752.752 7  21940916.505 7  -8052378.69549  21940911.73449      1322.373
  -3294812.368 7  22494975.657 7  -3822434.63148  22494971.32048     -1770.186
   3985718.588 7  22371560.439 7   2951915.97648  22371557.45448     -3573.638
 05  3 15  7  9 15.0020000  0  7G 6G10G15G16G21G25G30
  -3944792.693 7  21334401.312 7  -4047759.70749  21334397.52349     -2022.690
    -84816.050 5  24481557.635 5    -62068.68347  24481555.35947      -966.978
  -1130736.285 5  24913036.567 5   -866078.57043  24913033.76343      2810.669
  -1971991.868 5  23954902.536 5  -2380450.48946  23954897.56746      2095.415
 -10423539.908 7  21937151.135 7  -8067797.25049  21937146.44249      1315.732
  -3268196.577 7  22500040.473 7  -3801695.07648  22500036.21348     -1778.721
   4039360.163 7  22381768.103 7   2993714.57548  22381765.15448     -3578.633
 05  3 15  7  9 30.0020000  0  7G 6G10G15G16G21G25G30
  -3914422.394 7  21340180.588 7  -4024094.55849  21340176.84449     -2026.602
    -70239.966 5  24484331.407 5    -50710.71647  24484329.30947      -976.401
  -1172889.816 5  24905015.052 5   -898925.37943  24905011.97443      2809.859
  -2003412.805 5  23948923.300 5  -2404934.33546  23948918.07546      2094.043
 -10443225.964 7  21933405.013 7  -8083137.04149  21933400.32749      1309.126
  -3241452.210 7  22505129.754 7  -3780855.33848  22505125.61848     -1787.202
   4093078.557 7  22391990.373 7   3035573.02948  22391987.50248     -3583.662
 05  3 15  7  9 45.0020000  0  7G 6G10G15G16G21G25G30
  -3883991.507 7  21345971.393 7  -4000382.20049  21345967.66549     -2030.884
    -55519.925 4  24487132.464 4    -39240.54946  24487130.60146      -986.187
  -1215025.686 4  24896996.782 4                                      2808.320
  -2034810.386 5  23942948.482 5  -2429399.90346  23942943.16046      2092.266
 -10462809.437 7  21929678.407 7  -8098396.89349  21929673.68149      1301.982
  -3214578.149 7  22510243.707 7  -3759914.54248  22510239.66948     -1796.006
   4146874.738 7  22402227.451 7   3077492.09348  22402224.64248     -3589.155
 05  3 15  7 10  0.0020000  0  7G 6G10G15G16G21G25G30
  -3853498.180 7  21351774.071 7  -3976621.17849  21351770.31749     -2034.883
    -40653.862 3  24489961.327 3    -27656.59446  24489959.67646      -995.830
  -1257141.678 3  24888982.288 3                                      2807.193
  -2066182.619 5  23936978.474 5  -2453845.82646  23936973.24746      2090.713
 -10482288.322 7  21925971.690 7  -8113575.23249  21925966.90649      1295.156
  -3187572.650 7  22515382.681 7  -3738871.32348  22515378.69548     -1804.644
   4200750.520 7  22412479.660 7   3119473.18048  22412476.88148     -3594.307
 05  3 15  7 10 15.0020000  0  7G 6G10G15G16G21G25G30
  -3822946.238 7  21357587.880 7  -3952814.48449  21357584.09349     -2038.760
    -25645.499 3  24492817.301 3    -15961.76846  24492815.85446     -1005.225
  -1299241.232 4  24880971.033 4                                      2806.318
  -2097532.844 5  23931012.749 5  -2478274.53046  23931007.60046      2089.272
 -10501665.941 7  21922284.240 7  -8128674.67749  21922279.39649      1288.477
  -3160439.386 7  22520545.981 7  -3717728.53848  22520541.97548     -1813.091
   4254702.151 7  22422746.358 7   3161513.38548  22422743.51148     -3599.263
 05  3 15  7 10 30.0020000  0  7G 6G10G15G16G21G25G30
  -3792332.396 7  21363413.481 7  -3928959.54549  21363409.66249     -2042.847
    -10491.353 4  24495701.017 4     -4153.35746  24495699.70946     -1015.039
  -1341320.878 4  24872963.560 4                                      2804.863
  -2128857.547 5  23925051.879 5  -2502683.38246  23925046.95446      2087.529
 -10520938.849 7  21918616.710 7  -8143692.53249  21918611.81949      1281.455
  -3133175.273 7  22525734.233 7  -3696483.79648  22525730.16048     -1821.836
   4308732.787 7  22433028.062 7   3203615.15448  22433025.14548     -3604.610
 05  3 15  7 10 45.0020000  0  7G 6G10G15G16G21G25G30
  -3761656.670 8  21369250.886 8  -3905056.39749  21369247.05949     -2047.148
      4808.655 2  24498612.477 2      7768.66546  24498611.21846     -1024.897
  -1383380.156 4  24864960.057 4                                      2803.159
  -2160156.572 5  23919095.925 5  -2527072.24346  23919091.24846      2085.703
 -10540106.776 7  21914969.132 7  -8158628.56849  21914964.19849      1274.312
  -3105780.432 7  22530947.323 7  -3675137.18748  22530943.25148     -1830.737
   4362842.395 7  22443324.770 7   3245778.45748  22443321.81048     -3610.015
 05  3 15  7 11  0.0020000  0  7G 6G10G15G16G21G25G30
  -3730919.277 7  21375100.040 7  -3881105.19149  21375096.17849     -2051.040
     20254.471 1  24501551.622 1     19804.36746  24501550.34946     -1034.297
  -1425418.876 4  24856960.445 4                                      2801.958
  -2191429.613 5  23913144.873 5  -2551440.83146  23913140.41846      2084.189
 -10559169.632 7  21911341.537 7  -8173482.73748  21911336.56048      1267.510
  -3078254.904 7  22536185.271 7  -3653688.73848  22536181.21748     -1839.268
   4417030.818 7  22453636.495 7   3288003.16448  22453633.45948     -3615.034
 05  3 15  7 11 15.0020000  0  7G 6G10G15G16G21G25G30
  -3700124.162 8  21380960.196 8  -3857109.00949  21380956.26749     -2055.064
     35842.296 2  24504517.845 2     31950.76946  24504516.44046     -1043.984
  -1467440.656 4  24848963.965 4                                      2800.835
  -2222680.499 4  23907198.025 4  -2575792.16446  23907193.74046      2082.476
 -10578130.938 7  21907733.282 7  -8188257.77948  21907728.22848      1260.645
  -3050602.773 7  22541447.308 7  -3632141.63748  22541443.25948     -1847.798
   4471293.881 7  22463962.421 7   3330286.03948  22463959.30548     -3620.127
 05  3 15  7 11 30.0020000  0  7G 6G10G15G16G21G25G30
  -3669269.621 8  21386831.660 8  -3833066.53849  21386827.68249     -2058.975
     51574.024 4  24507511.489 4     44209.25546  24507509.91546     -1053.525
  -1509443.362 2  24840971.005 2                                      2799.399
  -2253907.153 4  23901255.824 4  -2600124.61446  23901251.60746      2081.064
 -10596988.778 7  21904144.701 7  -8202952.19948  21904139.61148      1253.706
  -3022822.510 7  22546733.741 7  -3610494.71048  22546729.64448     -1856.318
   4525633.378 7  22474302.890 7   3372628.46848  22474299.71448     -3625.185
 05  3 15  7 11 45.0020000  0  7G 6G10G15G16G21G25G30
  -3638356.140 7  21392714.326 7  -3808978.12849  21392710.35349     -2062.896
     67449.298 4  24510532.487 4     56579.56446  24510530.81246     -1063.057
  -1551427.250 1  24832981.653 1                                      2798.315
  -2285109.737 3  23895318.151 3  -2624438.30046  23895314.00346      2079.424
 -10615743.366 7  21900575.786 7  -8217566.15748  21900570.65748      1246.797
  -2994914.615 7  22552044.468 7  -3588748.32848  22552040.30048     -1864.805
   4580048.756 7  22484657.800 7   3415030.03948  22484654.58648     -3630.288
 05  3 15  7 12  0.0020000  0  7G 6G10G15G16G21G25G30
  -3607382.890 8  21398608.376 8  -3784843.13349  21398604.41949     -2066.924
     83469.199 5  24513581.110 5     69062.62947  24513579.35547     -1073.022
  -1593391.093 2  24824996.141 2                                      2796.670
  -2316287.169 3  23889385.314 3  -2648732.38546  23889381.11246      2077.598
 -10634393.580 7  21897026.759 7  -8232098.78549  21897021.57249      1239.761
  -2966878.282 7  22557379.617 7  -3566901.85748  22557375.41648     -1873.496
   4634540.785 7  22495027.303 7   3457491.33348  22495024.09248     -3635.430
 05  3 15  7 12 15.0020000  0  7G 6G10G15G16G21G25G30
  -3576349.381 7  21404513.875 7  -3760661.19249  21404509.96249     -2070.620
     99634.288 5  24516657.284 5     81658.74347  24516655.58947     -1082.246
  -1635334.091 4  24817014.690 4                                      2795.732
  -2347438.633 4  23883457.371 4  -2673006.24346  23883453.12746      2076.226
 -10652938.664 7  21893497.769 7  -8246549.50848  21893492.50648      1233.115
  -2938713.065 7  22562739.276 7  -3544954.95648  22562735.06948     -1881.665
   4689110.033 7  22505411.510 7   3500012.79348  22505408.30648     -3640.288
 05  3 15  7 12 30.0020000  0  7G 6G10G15G16G21G25G30
  -3545256.295 7  21410430.708 7  -3736432.83749  21410426.82749     -2074.868
    115943.848 5  24519760.969 5     94367.44747  24519759.27947     -1092.036
  -1677256.630 4  24809037.183 4  -1291937.90645  24809031.49345      2794.116
  -2378564.623 4  23877534.254 4  -2697260.27446  23877530.01646      2074.365
 -10671379.120 8  21889988.689 8  -8260918.68749  21889983.35049      1225.850
  -2910419.754 7  22568123.330 7  -3522908.22948  22568119.13148     -1890.522
   4743755.539 7  22515810.241 7   3542593.68548  22515807.02048     -3645.605
 05  3 15  7 12 45.0020000  0  7G 6G10G15G16G21G25G30
  -3514102.701 7  21416359.043 7  -3712157.32649  21416355.16049     -2079.258
    132399.227 5  24522892.462 5    107189.81547  24522890.71547     -1102.173
  -1719157.174 4  24801063.802 4  -1324587.76645  24801058.71145      2792.295
  -2409663.663 5  23871616.295 5  -2721493.23146  23871612.04546      2072.109
 -10689713.610 8  21886499.787 8  -8275205.31049  21886494.43649      1218.496
  -2881997.280 7  22573531.965 7  -3500760.86248  22573527.81348     -1899.434
   4798478.389 7  22526223.678 7   3585234.82648  22526220.49048     -3650.991
 05  3 15  7 13  0.0020000  0  7G 6G10G15G16G21G25G30
  -3482886.156 7  21422299.351 7  -3687832.76349  21422295.45649     -2083.130
    149002.813 5  24526052.162 5    120127.66946  24526050.40546     -1111.777
  -1761033.135 2  24793095.003 2  -1357218.33245  24793090.53145      2790.967
  -2440733.077 5  23865703.955 5  -2745703.18447  23865699.77647      2070.386
 -10707939.368 8  21883031.567 8  -8289407.18249  21883026.24249      1211.519
  -2853443.401 7  22578965.572 7  -3478511.09948  22578961.49748     -1907.837
   4853280.904 7  22536652.238 7   3627938.04948  22536649.09548     -3656.030
 05  3 15  7 13 15.0020000  0  7G 6G10G15G16G21G25G30
  -3451610.645 8  21428250.911 8  -3663462.24549  21428246.97549     -2087.139
    165750.790 5  24529239.355 5    133178.02347  24529237.58047     -1121.338
  -1802887.999 1  24785130.227 1  -1389832.45345  24785126.16045      2789.395
  -2471776.677 5  23859796.477 5  -2769893.00646  23859792.47046      2068.638
 -10726060.155 7  21879583.308 7  -8303527.28149  21879578.04449      1204.390
  -2824762.269 7  22584423.420 7  -3456162.18648  22584419.38048     -1916.450
   4908159.042 7  22547095.190 7   3670700.19548  22547092.09148     -3661.172
 05  3 15  7 13 30.0020000  0  7G 6G10G15G16G21G25G30
  -3420274.062 7  21434214.107 7  -3639044.13249  21434210.12449     -2091.035
    182645.524 5  24532454.389 5    146342.74746  24532452.78346     -1131.108
  -1844719.391 1  24777169.957 1  -1422428.27345  24777166.10145      2788.013
  -2502791.867 5  23853894.446 5  -2794060.66646  23853890.55446      2066.792
 -10744073.498 7  21876155.474 7  -8317563.65349  21876150.29849      1197.393
  -2795951.808 7  22589905.907 7  -3433712.49148  22589901.88248     -1924.902
   4963114.892 7  22557552.950 7   3713522.92448  22557549.84848     -3666.221
 05  3 15  7 13 45.0020000  0  7G 6G10G15G16G21G25G30
  -3388876.808 7  21440188.842 7  -3614578.74549  21440184.78449     -2095.112
    199686.331 4  24535697.170 4    159621.26946  24535695.82346     -1140.688
  -1886527.318 1  24769214.289 1  -1455005.85945  24769210.43945      2786.616
  -2533778.981 5  23847997.736 5  -2818206.46146  23847993.95046      2065.005
 -10761979.600 8  21872748.077 8  -8331516.46449  21872742.92649      1190.195
  -2767012.548 7  22595412.916 7  -3411162.44648  22595408.95348     -1933.506
   5018147.947 7  22568025.394 7   3756405.79348  22568022.29948     -3671.377
 05  3 15  7 14  0.0020000  0  7G 6G10G15G16G21G25G30
  -3357421.790 8  21446174.590 8  -3590068.36249  21446170.44049     -2099.058
    216870.728 4  24538967.376 4    173011.62346  24538966.12146     -1150.435
  -1928314.194 1  24761262.409 1  -1487567.06645  24761258.80145      2785.156
  -2564740.459 5  23842105.927 5  -2842332.28147  23842102.13747      2063.037
 -10779781.098 7  21869360.589 7  -8345387.74749  21869355.44449      1183.184
  -2737947.264 7  22600943.874 7  -3388514.19448  22600939.98148     -1942.041
   5073255.288 7  22578511.957 7   3799346.55848  22578508.89748     -3676.411
 05  3 15  7 14 15.0020000  0  7G 6G10G15G16G21G25G30
  -3325907.689 8  21452171.542 8  -3565511.93949  21452167.38149     -2103.032
    234199.967 5  24542264.987 5    186514.96346  24542263.88546     -1160.239
  -1970078.526 2  24753314.705 2  -1520110.73445  24753311.41545      2783.335
  -2595674.820 5  23836219.340 5  -2866436.99547  23836215.47347      2061.299
 -10797476.483 8  21865993.305 8  -8359176.36549  21865988.12549      1176.045
  -2708754.998 7  22606498.977 7  -3365766.99748  22606495.10248     -1950.542
   5128438.078 7  22589012.898 7   3842346.11248  22589009.85448     -3681.514
 05  3 15  7 14 30.0020000  0  7G 6G10G15G16G21G25G30
  -3294335.015 8  21458179.628 8  -3540909.86749  21458175.49349     -2106.797
    251673.937 5  24545590.045 5    200131.08846  24545589.06546     -1169.702
  -2011820.384 3  24745371.902 3  -1552636.87145  24745368.29145      2782.085
  -2626582.100 6  23830337.915 6  -2890520.58047  23830333.95147      2059.683
 -10815065.787 7  21862646.187 7  -8372882.31349  21862640.97549      1169.048
  -2679436.136 7  22612078.189 7  -3342921.15848  22612074.26148     -1958.814
   5183695.965 7  22599528.131 7   3885404.16848  22599525.08748     -3686.372
 05  3 15  7 14 45.0020000  0  7G 6G10G15G16G21G25G30
  -3262703.360 8  21464198.936 8  -3516261.85049  21464194.85749     -2110.854
    269292.934 4  24548942.664 4    213860.19446  24548941.91946     -1179.517
  -2053539.087 1  24737433.479 1  -1585145.00843  24737429.55343      2780.064
  -2657461.771 5  23824461.738 5  -2914582.67547  23824457.67947      2057.515
 -10832548.484 7  21859319.324 7  -8386505.19049  21859314.12749      1161.870
  -2649990.463 7  22617681.544 7  -3319976.48848  22617677.53948     -1967.436
   5239029.145 7  22610057.717 7   3928520.89148  22610054.69048     -3691.524
 05  3 15  7 15  0.0020000  0  6G 6G10G16G21G25G30
  -3231013.516 8  21470229.301 8  -3491568.47649  21470225.28449     -2114.575
    287056.597 4  24552322.845 4    227702.02346  24552322.34946     -1189.238
  -2688314.107 5  23818590.745 5  -2938623.44347  23818586.61947      2055.962
 -10849924.864 7  21856012.711 7  -8400045.21849  21856007.52749      1154.907
  -2620418.466 7  22623308.947 7  -3296933.38848  22623304.89448     -1975.659
   5294436.923 7  22620601.487 7   3971695.75748  22620598.51548     -3696.309
 05  3 15  7 15 15.0020000  0  6G 6G10G16G21G25G30
  -3199264.353 7  21476270.950 7  -3466828.88849  21476266.99749     -2118.599
    304965.831 5  24555730.809 5    241657.24046  24555730.41846     -1198.779
  -2719137.857 5  23812725.216 5  -2962641.94647  23812721.02247      2054.009
 -10867193.822 8  21852726.533 8  -8413501.54649  21852721.37349      1147.666
  -2590719.458 7  22628960.503 7  -3273791.33348  22628956.46148     -1984.170
   5349920.223 7  22631159.645 7   4014929.45048  22631156.74148     -3701.445
 05  3 15  7 15 30.0020000  0  6G 6G10G16G21G25G30
  -3167455.382 8  21482324.000 8  -3442042.69149  21482320.09049     -2122.417
    323021.406 5  24559166.741 5    255726.47646  24559166.27646     -1208.467
  -2749932.168 6  23806865.306 6  -2986637.49247  23806861.03147      2052.188
 -10884354.528 7  21849460.961 7  -8426873.51749  21849455.80049      1140.591
  -2560892.939 7  22634636.349 7  -3250549.92048  22634632.25448     -1992.544
   5405479.518 7  22641732.271 7   4058222.37848  22641729.44848     -3706.289
 05  3 15  7 15 45.0020000  0  6G 6G10G16G21G25G30
  -3135586.810 7  21488388.380 7  -3417210.04849  21488384.50849     -2126.655
    341223.119 6  24562630.624 6    269909.66946  24562629.96646     -1218.306
  -2780696.979 6  23801011.056 6  -3010610.08247  23801006.66147      2049.863
 -10901406.926 7  21846215.993 7  -8440161.10849  21846210.82249      1133.086
  -2530939.151 7  22640336.417 7  -3227209.32048  22640332.20548     -2001.289
   5461114.593 7  22652319.288 7   4101574.35748  22652316.55748     -3711.631
 05  3 15  7 16  0.0020000  0  6G 6G10G16G21G25G30
  -3103657.725 7  21494464.289 7  -3392330.25349  21494460.43749     -2130.669
    359572.118 5  24566122.399 5    284207.53746  24566121.63446     -1228.257
  -2811431.002 5  23795162.618 5  -3034558.64347  23795158.13347      2047.910
 -10918349.692 8  21842991.906 8  -8453363.25449  21842986.70349      1125.820
  -2500857.320 6  22646060.774 6  -3203768.93448  22646056.54048     -2009.805
   5516826.299 7  22662920.879 7   4144986.03848  22662918.23248     -3716.714
 05  3 15  7 16 15.0020000  0  7G 6G10G15G16G21G25G30
  -3071669.814 7  21500551.382 7  -3367404.62549  21500547.53849     -2134.522
    378066.805 5  24569641.976 5    298618.95846  24569640.95246     -1237.832
    -53229.507 2  24689899.360 2                                      2770.488
  -2842135.558 5  23789319.775 5  -3058484.26647  23789315.22647      2045.947
 -10935184.303 8  21839788.395 8  -8466481.13249  21839783.17049      1118.633
  -2470649.230 6  22651809.119 6  -3180230.18448  22651804.97148     -2018.047
   5572612.922 7  22673536.713 7   4188456.08448  22673534.12548     -3721.572
 05  3 15  7 16 30.0020000  0  7G 6G10G15G16G21G25G30
  -3039622.601 7  21506649.775 7  -3342432.79149  21506645.89049     -2138.403
    396707.792 4  24573189.413 4    313144.39946  24573188.12046     -1247.564
    -94773.165 1  24681993.011 1                                      2768.691
  -2872809.928 5  23783482.709 5  -3082386.34847  23783478.06547      2043.897
 -10951909.976 7  21836605.610 7  -8479514.11649  21836600.37549      1111.426
  -2440314.415 6  22657581.623 6  -3156592.68148  22657577.53048     -2026.479
   5628474.873 7  22684166.943 7   4231984.85048  22684164.33448     -3726.558
 05  3 15  7 16 45.0020000  0  7G 6G10G15G16G21G25G30
  -3007518.195 7  21512759.063 7  -3317416.38649  21512755.12849     -2142.227
    415493.135 4  24576764.341 4    327782.32045  24576762.71945     -1257.275
   -136292.510 1  24674091.145 1                                      2767.075
  -2903455.830 6  23777651.038 6  -3106266.28247  23777646.34247      2042.100
 -10968528.522 7  21833443.201 7  -8492463.62649  21833437.96149      1104.341
  -2409854.986 7  22663377.872 7  -3132858.06648  22663373.81448     -2034.863
   5684410.043 7  22694811.110 7   4275570.66948  22694808.47948     -3731.470
 05  3 15  7 17  0.0020000  0  7G 6G10G15G16G21G25G30
  -2975353.337 7  21518879.869 7  -3292352.87949  21518875.88449     -2146.245
    434425.935 2  24580367.188 2    342535.14845  24580365.31645     -1267.012
                  24666193.974 1
  -2934069.981 6  23771825.406 6  -3130121.43347  23771820.61747      2039.922
 -10985036.635 8  21830301.798 8  -8505327.09549  21830296.55949      1096.895
  -2379268.061 7  22669198.393 7  -3109024.12448  22669194.31248     -2043.291
   5740421.359 7  22705469.778 7   4319215.82248  22705467.17548     -3736.533
 05  3 15  7 17 15.0020000  0  7G 6G10G15G16G21G25G30
  -2943128.194 8  21525012.141 8  -3267242.39749  21525008.10949     -2150.249
    453506.294 1  24583997.931 1    357402.95344  24583995.95244     -1276.802
   -219247.822 1  24658303.939 1  -1742597.27745  24658296.83045      2763.477
  -2964652.034 6  23766005.856 6  -3153951.62147  23766001.01747      2037.817
 -11001434.072 7  21827181.460 7  -8518104.31649  21827176.21949      1089.561
  -2348553.737 7  22675043.114 7  -3085090.90448  22675039.02748     -2051.768
   5796508.802 7  22716142.910 7   4362920.29348  22716140.37148     -3741.479
 05  3 15  7 17 30.0020000  0  7G 6G10G15G16G21G25G30
  -2910846.033 7  21531155.250 7  -3242087.49649  21531151.16849     -2154.097
    472731.105 1  24587655.793 1                                     -1286.533
   -260686.215 4  24650418.710 4  -1774886.93045  24650413.46645      2761.758
  -2995204.911 5  23760191.819 5  -3177759.04647  23760186.95947      2035.942
 -11017723.708 7  21824081.648 7  -8530797.54249  21824076.36349      1082.324
  -2317715.308 7  22680911.466 7  -3061060.99148  22680907.36348     -2060.039
   5852669.128 7  22726829.919 7   4406681.54448  22726827.43148     -3746.426
 05  3 15  7 17 45.0020000  0  7G 6G10G15G16G21G25G30
  -2878505.240 7  21537309.515 7  -3216886.88849  21537305.37149     -2157.925
    492101.883 1  24591341.585 1                                     -1296.016
   -302097.638 4  24642538.392 4  -1807155.50445  24642533.93145      2759.736
  -3025726.792 6  23754383.629 6  -3201542.33847  23754378.81947      2033.789
 -11033903.915 8  21821002.693 8  -8543405.48549  21820997.33049      1075.024
  -2286751.399 7  22686803.725 7  -3036933.30648  22686799.58848     -2068.452
   5908903.781 7  22737531.066 7   4450500.72748  22737528.58548     -3751.436
 05  3 15  7 18  0.0020000  0  6G 6G15G16G21G25G30
  -2846104.744 8  21543475.148 8  -3191639.76849  21543470.97849     -2161.953
   -343480.524 5  24634663.462 5  -1839401.91546  24634659.51746      2758.022
  -3056216.323 5  23748581.597 5  -3225300.40547  23748576.86047      2031.645
 -11049973.264 8  21817944.827 8  -8555927.05249  21817939.44649      1067.642
  -2255660.993 7  22692720.057 7  -3012707.03848  22692715.88848     -2076.836
   5965213.765 7  22748246.531 7   4494378.60648  22748244.04148     -3756.411
 05  3 15  7 18 15.0020000  0  6G 6G15G16G21G25G30
  -2813646.610 8  21549651.747 8  -3166347.73949  21549647.59849     -2165.898
   -384836.503 5  24626793.632 5  -1871627.30046  24626790.09646      2756.108
  -3086675.073 5  23742785.496 5  -3249034.49047  23742780.79647      2029.395
 -11065933.422 8  21814907.735 8  -8568363.54049  21814902.36849      1060.313
  -2224446.161 7  22698660.045 7  -2988383.82348  22698655.90148     -2085.181
   6021597.020 7  22758975.934 7   4538313.55448  22758973.44248     -3761.382
 05  3 15  7 18 30.0020000  0  7G 6G10G15G16G21G25G30
  -2781129.069 7  21555839.655 7  -3141009.39949  21555835.53449     -2170.015
     19547.021 1  24602565.923 1                                     -1325.518
   -426163.573 4  24618929.312 4  -1903830.23646  24618926.00746      2754.087
  -3117101.139 6  23736995.600 6  -3272743.10547  23736990.94447      2027.134
 -11081782.628 8  21811891.742 8  -8580713.57249  21811886.42649      1052.749
  -2193105.304 6  22704624.022 6  -2963962.39348  22704619.89648     -2093.770
   6078055.186 7  22769719.583 7   4582306.89648  22769717.04348     -3766.553
 05  3 15  7 18 45.0020000  0  7G 6G10G15G16G21G25G30
  -2748551.672 7  21562038.958 7  -3115624.42849  21562034.90349     -2173.643
     39505.323 1  24606363.718 1                                     -1335.610
   -467460.743 5  24611070.728 5  -1936009.86646  24611067.50946      2752.290
  -3147493.609 6  23731212.111 6  -3296425.56447  23731207.47647      2025.181
 -11097520.026 7  21808897.024 7  -8592976.48549  21808891.74049      1045.571
  -2161638.006 7  22710612.066 7  -2939442.43548  22710607.91548     -2101.890
   6134588.565 7  22780477.554 7   4626358.85348  22780474.90148     -3771.226
 05  3 15  7 19  0.0020000  0  7G 6G10G15G16G21G25G30
  -2715918.653 8  21568248.833 8  -3090196.11349  21568244.86649     -2177.349
     59607.055 2  24610188.261 2                                     -1344.819
   -508732.055 5  24603217.149 5  -1968169.25346  24603213.82646      2750.586
  -3177856.600 5  23725434.219 5  -3320085.02647  23725429.59447      2023.193
 -11113149.608 7  21805922.825 7  -8605155.37049  21805917.54649      1038.398
  -2130048.657 7  22716623.342 7  -2914827.37148  22716619.11748     -2109.946
   6191193.052 7  22791249.045 7   4670466.21148  22791246.25348     -3775.981
 05  3 15  7 19 15.0020000  0  7G 6G10G15G16G21G25G30
  -2683227.690 8  21574469.733 8  -3064722.64849  21574465.83549     -2181.548
     79854.683 1  24614041.958 1                                     -1354.810
   -549974.855 6  24595369.070 6  -2000306.47546  24595365.58746      2748.393
  -3208187.426 6  23719662.460 6  -3343719.41847  23719657.81747      2020.830
 -11128668.829 7  21802969.599 7  -8617248.27649  21802964.33049      1030.791
  -2098335.057 7  22722658.244 7  -2890115.49848  22722653.97548     -2118.535
   6247870.804 7  22802034.460 7   4714630.66348  22802031.61648     -3781.108
 05  3 15  7 19 30.0020000  0  7G 6G10G15G16G21G25G30
  -2650479.607 7  21580701.505 7  -3039204.68249  21580697.63949     -2185.068
    100247.513 2  24617923.030 2    474441.61345  24617919.82745     -1364.346
   -591189.623 6  24587526.357 6  -2032421.90946  24587522.68546      2746.582
  -3238486.582 6  23713896.706 6  -3367329.13747  23713892.05047      2018.843
 -11144078.179 7  21800037.273 7  -8629255.55149  21800031.96349      1023.594
  -2066498.079 6  22728716.622 6  -2865307.48448  22728712.35048     -2126.650
   6304620.920 7  22812833.640 7   4758851.47748  22812830.82648     -3785.830
 05  3 15  7 19 45.0020000  0  7G 6G10G15G16G21G25G30
  -2617673.269 6  21586944.346 6  -3013641.30949  21586940.51449     -2189.438
    120786.971 4  24621831.967 4    490446.30145  24621828.58845     -1374.580
   -632374.809 6  24579689.198 6  -2064514.25046  24579685.40746      2744.273
  -3268752.580 6  23708137.268 6  -3390913.03247  23708132.58047      2016.230
 -11159376.311 7  21797126.117 7  -8641176.18149  21797120.72849      1015.806
  -2034536.682 6  22734798.682 6  -2840402.51948  22734794.42048     -2135.308
   6361444.521 7  22823646.819 7   4803129.56948  22823644.09148     -3791.035
 05  3 15  7 20  0.0020000  0  7G 6G10G15G16G21G25G30
  -2584809.742 7  21593198.061 7  -2988033.38549  21593194.26249     -2192.715
    141471.754 3  24625768.328 3    506564.32045  24625765.47045     -1383.804
   -673531.136 5  24571857.419 5  -2096584.02146  24571853.57646      2742.749
  -3298986.156 5  23702383.991 5  -3414471.65147  23702379.24847      2014.551
 -11174564.035 7  21794235.985 7  -8653010.75949  21794230.49449      1008.877
  -2002452.046 7  22740904.223 7  -2815401.51648  22740899.91348     -2142.993
   6418340.540 7  22834473.798 7   4847464.12148  22834471.13448     -3795.391
 05  3 15  7 20 15.0020000  0  7G 6G10G15G16G21G25G30
  -2551889.069 8  21599462.666 8  -2962380.93149  21599458.84049     -2196.714
    162301.959 5  24629732.526 5    522795.57445  24629729.60645     -1393.633
   -714658.345 3  24564031.102 3  -2128631.23446  24564027.32046      2740.693
  -3329187.154 6  23696636.870 6  -3438004.88947  23696632.10047      2012.266
 -11189641.149 8  21791366.913 8  -8664759.15949  21791361.32249      1001.372
  -1970244.364 7  22747033.152 7  -2790304.62048  22747028.75148     -2151.382
   6475308.690 7  22845314.498 7   4891854.84748  22845311.86948     -3800.376
 05  3 15  7 20 30.0020000  0  7G 6G10G15G16G21G25G30
  -2518908.479 7  21605738.660 7  -2936681.78149  21605734.78549     -2200.596
    183280.558 5  24633725.008 5    539142.52546  24633721.89946     -1403.467
   -755753.253 3  24556210.976 3  -2160653.18345  24556207.20045      2738.638
  -3359352.339 6  23690896.558 6  -3461510.21147  23690891.79047      2009.912
 -11204604.530 8  21788519.476 8  -8676418.93849  21788513.82949       993.867
  -1937910.904 7  22753186.011 7  -2765109.73648  22753181.50748     -2159.707
   6532351.853 7  22856169.478 7   4936304.03948  22856166.87648     -3805.273
 05  3 15  7 20 45.0020000  0  7G 6G10G15G16G21G25G30
  -2485871.877 7  21612025.316 7  -2910938.99649  21612021.36749     -2204.492
    204403.667 4  24637744.842 4    555602.00846  24637741.75646     -1413.306
   -796819.416 5  24548396.576 5  -2192652.77545  24548392.52445      2736.567
  -3389485.396 5  23685162.362 5  -3484990.51047  23685157.62147      2007.583
 -11219457.978 7  21785692.946 7  -8687993.05149  21785687.28549       986.387
  -1905455.677 6  22759362.068 6  -2739819.96848  22759357.49448     -2167.900
   6589466.048 7  22867037.967 7   4980808.57148  22867035.45748     -3810.117
 05  3 15  7 21  0.0020000  0  7G 6G10G15G16G21G25G30
  -2452777.341 7  21618322.996 7  -2885151.06249  21618318.98749     -2208.296
    225673.396 4  24641792.465 4    572175.76645  24641789.54345     -1423.022
   -837854.554 5  24540588.297 5  -2224628.18046  24540583.71046      2734.644
  -3419584.038 6  23679434.723 6  -3508443.99447  23679430.04047      2005.356
 -11234199.229 7  21782887.749 7  -8699479.74349  21782882.13149       978.950
  -1872876.790 6  22765561.681 6  -2714433.85448  22765557.11648     -2176.069
   6646653.063 7  22877920.354 7   5025369.82548  22877917.91348     -3815.039
 05  3 15  7 21 15.0020000  0  7G 6G10G15G16G21G25G30
  -2419626.323 7  21624631.423 7  -2859319.11949  21624627.43249     -2211.875
    247088.118 4  24645867.734 4    588862.48845  24645864.88645     -1432.441
   -878859.975 3  24532785.394 3  -2256580.41445  24532780.54745      2732.837
  -3449649.580 5  23673713.372 5  -3531871.67947  23673708.77847      2003.369
 -11248829.698 7  21780103.644 7  -8710880.11149  21780098.10049       971.768
  -1840176.036 7  22771784.449 7  -2688952.76748  22771779.95748     -2183.975
   6703911.238 7  22888816.298 7   5069986.56148  22888813.82648     -3819.433
 05  3 15  7 21 30.0030000  0  7G 6G10G15G16G21G25G30
  -2386418.838 7  21630950.598 7  -2833443.18149  21630946.69349     -2215.781
    268647.183 3  24649970.542 3    605661.73445  24649967.67745     -1442.212
   -919839.996 4  24524987.136 4  -2288512.83745  24524982.24245      2730.513
  -3479685.738 6  23667997.644 6  -3555276.48147  23667993.12547      2000.952
 -11263352.034 7  21777340.130 7  -8722196.21649  21777334.65849       964.155
  -1807353.479 7  22778030.355 7  -2663376.78348  22778025.95848     -2192.256
   6761242.356 7  22899726.053 7   5114660.14548  22899723.57948     -3824.400
 05  3 15  7 21 45.0030000  0  7G 6G10G15G16G21G25G30
  -2353156.464 8  21637280.231 8  -2807524.46949  21637276.39849     -2219.604
    290350.619 3  24654100.492 3    622573.52745  24654097.95645     -1451.992
   -960786.186 3  24517195.271 3  -2320418.90645  24517190.38645      2728.550
  -3509685.447 6  23662288.820 6  -3578652.88947  23662284.39747      1998.599
 -11277761.397 7  21774598.092 7  -8733424.28749  21774592.70449       956.714
  -1774410.801 7  22784299.085 7  -2637707.17948  22784294.76448     -2200.483
   6818641.350 7  22910648.747 7   5159386.60748  22910646.26548     -3829.209
 05  3 15  7 22  0.0030000  0  7G 6G10G15G16G21G25G30
  -2319833.966 8  21643621.318 8  -2781558.90549  21643617.49249     -2223.389
    312203.011 3  24658259.126 3    639601.38344  24658256.54044     -1461.577
  -1001697.707 3  24509409.914 3  -2352297.96245  24509405.14945      2726.431
  -3539647.432 5  23656587.140 5  -3601999.89847  23656582.80547      1996.372
 -11292055.343 7  21771878.049 7  -8744562.41249  21771872.69049       949.229
  -1741342.876 7  22790591.686 7  -2611939.97848  22790587.35548     -2208.594
   6876115.106 7  22921585.676 7   5204171.31748  22921583.21848     -3833.921
 05  3 15  7 22 15.0030000  0  7G 6G10G15G16G21G25G30
  -2286454.820 8  21649973.185 8  -2755549.19449  21649969.30149     -2227.183
                  24662445.146 1                  24662445.8864
  -1042577.949 1  24501630.391 1  -2384152.67245  24501625.88345      2724.351
  -3569574.819 5  23650892.057 5  -3625319.92047  23650887.75847      1994.023
 -11306237.183 7  21769179.300 7  -8755613.20349  21769173.99249       941.636
  -1708153.292 7  22796907.489 7  -2586077.99748  22796903.10048     -2216.719
   6933659.935 7  22932536.128 7   5249011.40948  22932533.71148     -3838.706
 05  3 15  7 22 30.0030000  0  7G 6G10G15G16G21G25G30
  -2253018.879 8  21656335.874 8  -2729495.23249  21656331.89349     -2230.957
    356344.785 1  24666659.033 1                                     -1480.967
  -1083426.163 2  24493856.988 2  -2415982.39845  24493852.73745      2722.178
  -3599467.037 5  23645203.669 5  -3648612.55747  23645199.40447      1991.641
 -11320306.531 7  21766501.977 7  -8766576.32349  21766496.68649       934.185
  -1674841.890 7  22803246.484 7  -2560121.07848  22803242.06048     -2224.834
   6991276.107 7  22943500.143 7   5293907.09348  22943497.77948     -3843.472
 05  3 15  7 22 45.0030000  0  7G 6G10G15G16G21G25G30
  -2219528.047 8  21662708.996 8  -2703398.49449  21662704.97849     -2234.502
    378632.691 1  24670899.960 1                                     -1490.723
  -1124243.952 2  24486089.549 2  -2447788.48845  24486085.37645      2720.444
  -3629325.801 5  23639521.640 5  -3671879.12447  23639517.40147      1989.517
 -11334265.154 7  21763845.720 7  -8777453.16749  21763840.43449       926.909
  -1641410.839 7  22809608.242 7  -2534070.93248  22809603.78348     -2232.671
   7048961.576 7  22954477.326 7   5338856.77048  22954475.03248     -3848.003
 05  3 15  7 23  0.0030000  0  7G 6G10G15G16G21G25G30
  -2185979.893 8  21669093.026 8  -2677257.10149  21669089.03049     -2238.389
    401066.949 2  24675168.970 2                                     -1500.317
  -1165028.470 3  24478328.421 3  -2479568.64845  24478324.34945      2717.895
  -3659148.348 5  23633846.504 5  -3695117.46347  23633842.31047      1987.129
 -11348110.205 7  21761211.069 7  -8788241.51849  21761205.81349       919.243
  -1607857.801 7  22815993.169 7  -2507925.70748  22815988.76048     -2240.806
   7106718.671 7  22965468.154 7   5383862.27448  22965465.85948     -3852.822
 05  3 15  7 23 15.0030000  0  7G 6G10G15G16G21G25G30
  -2152376.353 7  21675487.589 7  -2651072.52749  21675483.65149     -2242.148
    423645.891 2  24679465.659 2                                     -1510.171
  -1205781.370 3  24470573.300 3  -2511324.10445  24470569.33345      2715.771
  -3688936.183 5  23628178.023 5  -3718328.74447  23628173.85247      1984.609
 -11361843.484 7  21758597.725 7  -8798942.75949  21758592.48649       911.763
  -1574184.917 7  22822400.890 7  -2481687.11448  22822396.59948     -2248.906
   7164545.532 7  22976472.289 7   5428922.13648  22976469.97448     -3857.446
 05  3 15  7 23 30.0030000  0  7G 6G10G15G16G21G25G30
  -2118714.714 7  21681893.204 7  -2624842.70049  21681889.28249     -2246.030
    446372.008 1  24683790.469 1                                     -1519.844
  -1246499.722 2  24462824.685 2  -2543052.71945  24462820.90645      2713.530
  -3718686.400 6  23622516.728 6  -3741510.72647  23622512.58047      1982.095
 -11375462.127 7  21756006.193 7  -8809554.69349  21756000.99949       904.121
  -1540389.596 7  22828831.930 7  -2455353.10948  22828827.74348     -2257.046
   7222444.584 7  22987490.184 7   5474038.23348  22987487.82648     -3862.295
 05  3 15  7 23 45.0030000  0  7G 6G10G15G16G21G25G30
  -2084997.866 7  21688309.295 7  -2598569.85449  21688305.36849     -2249.585
    469242.612 1  24688142.732 1                                     -1529.512
  -1287186.034 2  24455082.232 2  -2574756.30346  24455078.56146      2711.504
  -3748401.565 6  23616862.116 6  -3764665.40247  23616858.01247      1979.902
 -11388968.554 7  21753436.005 7  -8820079.18349  21753430.87449       896.802
  -1506474.548 7  22835285.757 7  -2428925.82948  22835281.64348     -2264.898
   7280412.926 7  22998521.255 7   5519208.33448  22998518.86448     -3866.807
 05  3 15  7 24  0.0030000  0  7G 6G10G15G16G21G25G30
  -2051224.880 7  21694736.074 7  -2572253.26449  21694732.12749     -2253.403
    492258.589 3  24692522.470 3                                     -1539.121
  -1327838.797 4  24447346.256 4  -2606433.79046  24447342.65846      2708.989
  -3778080.418 6  23611214.486 6  -3787791.78347  23611210.37147      1977.500
 -11402361.749 7  21750887.354 7  -8830515.44249  21750882.28249       889.204
  -1472439.180 7  22841762.478 7  -2402404.77948  22841758.43048     -2272.905
   7338451.438 7  23009565.660 7   5564433.11648  23009563.23948     -3871.475
 05  3 15  7 24 15.0030000  0  7G 6G10G15G16G21G25G30
  -2017396.356 7  21701173.427 7  -2545893.38149  21701169.50649     -2257.041
    515419.536 4  24696929.980 4                                     -1548.833
  -1368458.555 2  24439616.510 2  -2638085.54346  24439612.99646      2706.743
  -3807723.232 6  23605573.759 6  -3810890.06947  23605569.54147      1975.015
 -11415642.073 7  21748360.197 7  -8840863.74449  21748355.17649       881.680
  -1438284.215 7  22848261.938 7  -2375790.53948  22848257.92148     -2280.933
   7396559.447 7  23020623.270 7   5609712.07448  23020620.79648     -3876.118
 05  3 15  7 24 30.0030000  0  7G 6G10G15G16G21G25G30
  -1983510.918 7  21707621.606 7  -2519489.16049  21707617.78049     -2260.830
    538726.886 5  24701365.735 5                                     -1558.594
  -1409043.376 2  24431893.407 2  -2669710.04745  24431889.97245      2704.551
  -3837328.284 6  23599940.209 6  -3833958.93247  23599935.83847      1972.446
 -11428807.892 7  21745854.825 7  -8851122.82949  21745849.89749       874.014
  -1404008.348 6  22854784.379 6  -2349082.08248  22854780.42548     -2289.028
   7454738.300 7  23031694.343 7   5655046.22248  23031691.82048     -3880.815
 05  3 15  7 24 45.0030000  0  7G 6G10G15G16G21G25G30
  -1949569.703 7  21714080.410 7  -2493041.47249  21714076.63649     -2264.624
    562179.382 3  24705828.831 3                                     -1568.315
  -1449594.209 1  24424176.670 1  -2701308.04445  24424173.41845      2702.466
  -3866896.445 6  23594313.718 6  -3856999.05747  23594309.12047      1969.932
 -11441860.066 7  21743371.076 7  -8861293.34449  21743366.23049       866.328
  -1369613.036 6  22861329.561 6  -2322280.57648  22861325.68048     -2297.017
   7512986.742 7  23042778.701 7   5700434.57348  23042776.09448     -3885.576
 05  3 15  7 25  0.0030000  0  7G 6G10G15G16G21G25G30
  -1915573.267 7  21720549.730 7  -2466550.76549  21720545.94149     -2268.345
    585776.534 4  24710319.161 4                                     -1578.018
  -1490111.187 1  24416466.494 1  -2732879.76245  24416463.30745      2699.961
  -3896427.867 6  23588694.189 6  -3880010.54147  23588689.41747      1967.446
 -11454798.988 7  21740908.893 7  -8871375.62749  21740904.06449       858.706
  -1335098.897 6  22867897.354 6  -2295386.46148  22867893.58548     -2304.976
   7571304.061 7  23053876.139 7   5745876.61348  23053873.45148     -3890.264
 05  3 15  7 25 15.0030000  0  7G 6G10G15G16G21G25G30
  -1881519.699 7  21727029.933 7  -2440015.53249  21727026.11749     -2272.065
    609520.446 5  24714838.050 5                                     -1587.734
  -1530592.030 2  24408763.321 2  -2764423.23445  24408760.07245      2697.432
  -3925920.383 6  23583082.018 6  -3902991.70747  23583077.13747      1964.966
 -11467622.464 8  21738468.692 8  -8881367.93649  21738463.81549       851.084
  -1300464.100 6  22874488.112 6  -2268398.33648  22874484.44448     -2312.978
   7629692.094 7  23064987.058 7   5791373.73748  23064984.31348     -3894.819
 05  3 15  7 25 30.0030000  0  7G 6G10G15G16G21G25G30
  -1847410.746 7  21733520.678 7  -2413437.14449  21733516.89349     -2275.859
    633409.308 2  24719383.931 2                                     -1597.637
  -1571038.165 1  24401066.787 1  -2795939.72345  24401063.47245      2695.107
  -3955375.443 6  23577476.943 6  -3925943.68947  23577471.98347      1962.358
 -11480332.094 7  21736050.143 7  -8891271.54649  21736045.22549       843.433
  -1265710.531 7  22881101.468 7  -2241317.66348  22881097.88448     -2320.952
   7688149.097 7  23076111.131 7   5836924.61748  23076108.34048     -3899.444
 05  3 15  7 25 45.0030000  0  7G 6G10G15G16G21G25G30
  -1813246.839 7  21740021.867 7  -2386815.93949  21740018.16049     -2279.575
    657442.899 3  24723957.004 3                                     -1607.163
  -1611449.744 1  24393376.586 1  -2827429.24245  24393373.40345      2692.817
  -3984793.175 6  23571878.972 6  -3948866.57847  23571873.94847      1959.751
 -11492927.998 8  21733653.229 8  -8901086.52049  21733648.24749       835.835
  -1230838.710 6  22887737.385 6  -2214144.84548  22887733.86348     -2328.838
   7746674.656 7  23087248.225 7   5882528.92848  23087245.47548     -3904.175
 05  3 15  7 26  0.0030000  0  7G 6G10G15G16G21G25G30
  -1779028.488 7  21746533.402 7  -2360152.31449  21746529.76249     -2283.032
    681620.479 4  24728557.917 4                                     -1616.826
  -1651826.869 1  24385692.971 1  -2858891.91445  24385689.86845      2690.571
  -4014173.828 6  23566288.003 6  -3971760.58247  23566282.97247      1957.422
 -11505410.562 8  21731277.879 8  -8910813.20349  21731272.83749       828.325
  -1195849.353 6  22894395.674 6  -2186880.42448  22894392.21748     -2336.724
   7805267.965 7  23098398.189 7   5928185.98948  23098395.53548     -3908.560
 05  3 15  7 26 15.0030000  0  7G 6G10G15G16G21G25G30
  -1744754.122 7  21753055.586 7  -2333445.03049  21753052.00549     -2286.748
    705943.877 4  24733186.594 4                                     -1626.372
  -1692167.526 1  24378016.105 1  -2890326.16445  24378013.31845      2688.159
  -4043515.394 6  23560704.460 6  -3994624.12948  23560699.45748      1954.878
 -11517777.842 7  21728924.461 7  -8920450.02749  21728919.38149       820.698
  -1160740.895 6  22901076.598 6  -2159523.19948  22901073.19648     -2344.458
   7863930.716 7  23109561.390 7   5973897.19648  23109558.80048     -3913.071
 05  3 15  7 26 30.0030000  0  7G 6G10G15G16G21G25G30
  -1710423.899 7  21759588.411 7  -2306694.23249  21759584.88349     -2290.562
    730412.642 5  24737843.070 5                                     -1636.050
  -1732471.682 1  24370345.996 1  -2921731.92245  24370343.74745      2685.845
  -4072817.786 6  23555128.380 6  -4017457.16847  23555123.43147      1952.197
 -11530029.848 7  21726592.951 7  -8929997.03849  21726587.88649       813.008
  -1125513.763 7  22907780.061 7  -2132073.51448  22907776.70648     -2352.363
   7922662.428 7  23120737.725 7   6019662.13348  23120735.18348     -3917.720
 05  3 15  7 26 45.0030000  0  7G 6G10G15G16G21G25G30
  -1676037.674 8  21766131.892 8  -2279899.78049  21766128.42649     -2294.238
    755027.241 3  24742527.107 3                                     -1645.825
  -1772738.802 1  24362682.940 1  -2953108.91845  24362681.27945      2683.442
  -4102080.435 6  23549559.810 6  -4040259.22447  23549554.94847      1949.565
 -11542166.121 7  21724283.464 7  -8939453.88649  21724278.42349       805.293
  -1090167.826 7  22914506.159 7  -2104531.25448  22914502.74948     -2360.361
   7981463.508 7  23131927.227 7   6065481.11448  23131924.75948     -3922.310
 05  3 15  7 27  0.0030000  0  7G 6G10G15G16G21G25G30
  -1641596.349 7  21772685.887 7  -2253062.40349  21772682.42649     -2297.959
    779786.794 1  24747238.346 1                                     -1655.449
  -1812969.550 1  24355026.805 1  -2984457.47045  24355029.13745      2680.957
  -4131304.057 6  23543998.652 6  -4063030.86747  23543993.85847      1946.899
 -11554187.516 7  21721995.827 7  -8948821.20049  21721990.78649       797.578
  -1054704.179 7  22921254.694 7  -2076897.26248  22921251.18248     -2368.164
   8040332.698 7  23143129.731 7   6111353.18048  23143127.28248     -3926.807
 05  3 15  7 27 15.0030000  0  6G 6G15G16G21G25G30
  -1607101.337 7  21779250.107 7  -2226183.19649  21779246.60349     -2301.704
  -1853164.781 2  24347377.843 2  -3015778.45646  24347378.18646      2678.228
  -4160489.682 6  23538444.724 6  -4085772.92047  23538439.99147      1944.102
 -11566095.209 7  21719729.822 7  -8958099.92849  21719724.77749       789.790
  -1019124.579 6  22928025.272 6  -2049172.93848  22928021.70448     -2376.094
   8099268.573 7  23154344.895 7   6157277.19848  23154342.46248     -3931.548
 05  3 15  7 27 30.0030000  0  7G 6G10G15G16G21G25G30
  -1572548.448 8  21785825.347 8  -2199258.88449  21785821.81949     -2305.400
     14713.601 3  24756743.841 3                                     -1674.912
  -1893320.160 3  24339736.876 3  -3047068.29346  24339735.39646      2675.757
  -4189632.823 6  23532898.904 6  -4108481.86647  23532894.21447      1941.582
 -11577884.844 8  21717486.316 8  -8967286.65449  21717481.24949       782.134
   -983424.821 6  22934818.675 6  -2021354.95248  22934815.16448     -2383.940
   8158275.245 7  23165573.512 7   6203256.39748  23165571.17348     -3936.118
 05  3 15  7 27 45.0030000  0  7G 6G10G15G16G21G25G30
  -1537939.063 7  21792411.319 7  -2172290.55549  21792407.81749     -2309.004
     39910.848 2  24761538.264 2                                     -1684.551
  -1933436.636 2  24332103.207 2  -3078327.87246  24332100.88346      2673.223
  -4218734.507 6  23527361.008 6  -4131158.51147  23527356.31547      1938.843
 -11589557.417 7  21715265.095 7  -8976382.16649  21715259.98649       774.409
   -947606.564 7  22941634.639 7  -1993444.63748  22941631.20848     -2391.675
   8217351.272 7  23176815.323 7   6249289.63848  23176813.12348     -3940.596
 05  3 15  7 28  0.0030000  0  7G 6G10G15G16G21G25G30
  -1503276.618 7  21799007.376 7  -2145280.88449  21799003.89549     -2312.754
     65250.886 3  24766360.508 3                                     -1694.131
  -1973517.378 2  24324476.098 2  -3109559.50146  24324473.46246      2670.630
  -4247798.043 6  23521830.407 6  -4153805.42747  23521825.68547      1936.133
 -11601116.259 8  21713065.530 8  -8985389.05549  21713060.35949       766.606
   -911673.373 7  22948472.462 7  -1965444.74548  22948469.12948     -2399.595
   8276492.986 7  23188069.643 7   6295374.06448  23188067.56748     -3945.132
 05  3 15  7 28 15.0030000  0  7G 6G10G15G16G21G25G30
  -1468561.826 7  21805613.401 7  -2118230.41049  21805609.92649     -2316.089
     90733.476 4  24771209.685 4                                     -1703.545
  -2013562.496 3  24316855.816 3  -3140763.47646  24316852.77646      2668.516
  -4276823.560 6  23516307.073 6  -4176422.70347  23516302.32547      1933.760
 -11612561.679 7  21710887.545 7  -8994307.55649  21710882.33949       759.243
   -875625.925 6  22955332.061 6  -1937355.83748  22955328.75548     -2406.934
   8335699.863 7  23199336.368 7   6341509.25848  23199334.37148     -3949.331
 05  3 15  7 28 30.0030000  0  7G 6G10G15G16G21G25G30
  -1433793.597 7  21812229.584 7  -2091138.30049  21812226.12949     -2319.878
    116359.279 5  24776086.089 5   1095865.20745  24776086.84545     -1713.335
  -2053570.767 3  24309242.546 3  -3171938.73546  24309239.24746      2665.723
  -4305809.779 6  23510791.221 6  -4199009.36348  23510786.49348      1930.898
 -11623892.524 8  21708731.354 8  -9003136.79549  21708726.14949       751.313
   -839463.405 7  22962213.622 7  -1909177.28148  22962210.29348     -2414.844
   8394972.679 7  23210615.615 7   6387695.82648  23210613.66648     -3953.887
 05  3 15  7 28 45.0030000  0  7G 6G10G15G16G21G25G30
  -1398969.788 7  21818856.324 7  -2064002.88049  21818852.89849     -2323.452
    142130.683 5  24780990.318 5   1115946.74645  24780990.54345     -1723.022
  -2093539.710 3  24301636.771 3  -3203083.39846  24301633.28646      2663.193
  -4334754.206 6  23505283.272 6  -4221563.43147  23505278.68647      1928.188
 -11635106.538 7  21706597.390 7  -9011874.97849  21706592.18549       743.643
   -803183.676 7  22969117.502 7  -1880907.38548  22969114.10248     -2422.632
   8454313.609 7  23221907.809 7   6433935.48248  23221905.86248     -3958.394
 05  3 15  7 29  0.0030000  0  7G 6G10G15G16G21G25G30
  -1364090.277 7  21825493.693 7  -2036824.04749  21825490.27749     -2327.134
    168047.738 5  24785922.386 5   1136141.77045  24785921.97645     -1732.627
  -2133468.875 3  24294038.595 3  -3234196.99046  24294034.95646      2660.625
  -4363656.472 6  23499783.380 6  -4244084.67547  23499778.88347      1925.444
 -11646203.216 7  21704485.771 7  -9020521.75049  21704480.53349       735.898
   -766786.969 7  22976043.665 7  -1852546.33248  22976040.14348     -2430.317
   8513722.568 7  23233212.935 7   6480228.12548  23233210.98648     -3962.847
 05  3 15  7 29 15.0030000  0  7G 6G10G15G16G21G25G30
  -1329157.232 7  21832141.253 7  -2009603.52949  21832137.86949     -2330.742
    194108.385 3  24790881.642 3   1156448.73845  24790881.08145     -1742.002
  -2173360.049 4  24286447.685 4  -3265281.02746  24286443.92146      2658.145
  -4392518.364 6  23494291.135 6  -4266574.46747  23494286.72947      1922.739
 -11657184.488 7  21702396.136 7  -9029078.59049  21702390.85449       728.193
   -730275.356 7  22982991.679 7  -1824095.75148  22982988.05548     -2438.042
   8573197.413 7  23244530.595 7   6526572.11948  23244528.66648     -3967.339
 05  3 15  7 29 30.0030000  0  7G 6G10G15G16G21G25G30
  -1294170.743 7  21838798.999 7  -1982341.34949  21838795.59649     -2334.326
    220312.506 4  24795868.139 4   1176867.51245  24795867.64145     -1751.792
  -2213212.919 3  24278864.023 3  -3296335.19046  24278860.12046      2655.527
  -4421339.688 6  23488806.594 6  -4289032.62247  23488802.28247      1920.024
 -11668050.331 7  21700328.469 7  -9037545.47449  21700323.17049       720.435
   -693649.308 7  22989961.453 7  -1795555.98748  22989957.77948     -2445.620
   8632737.899 6  23255860.771 6   6572967.27648  23255858.85748     -3971.597
 05  3 15  7 29 45.0030000  0  7G 6G10G15G16G21G25G30
  -1259130.135 7  21845467.041 7  -1955036.99949  21845463.56649     -2337.895
    246660.673 4  24800882.046 4   1197398.46646  24800881.65646     -1761.309
  -2253026.515 3  24271287.837 3  -3327358.72846  24271283.85446      2652.974
  -4450119.342 6  23483329.973 6  -4311458.30847  23483325.75947      1917.241
 -11678800.003 7  21698282.904 7  -9045921.84849  21698277.61349       712.764
   -656908.398 7  22996953.047 7  -1766926.72448  22996949.37148     -2453.262
   8692344.698 6  23267203.526 6   6619414.09148  23267201.67948     -3976.016
 05  3 15  7 30  0.0030000  0  7G 6G10G15G16G21G25G30
  -1224034.971 7  21852145.463 7  -1927690.14649  21852141.89349     -2341.553
    273153.559 3  24805923.440 3   1218042.30145  24805923.20245     -1770.996
  -2292800.159 1  24263719.131 1  -3358351.24045  24263715.22945      2650.166
  -4478856.632 6  23477861.398 6  -4333850.99847  23477857.27247      1914.302
 -11689432.626 7  21696259.615 7  -9054207.01149  21696254.34949       704.858
   -620052.151 7  23003966.580 7  -1738207.58148  23003962.92648     -2461.011
   8752018.081 6  23278558.964 6   6665912.79048  23278557.17748     -3980.523
 05  3 15  7 30 15.0030000  0  7G 6G10G15G16G21G25G30
  -1188884.630 7  21858834.371 7  -1900300.29649  21858830.71649     -2345.093
    299791.547 3  24810992.432 3   1238799.11345  24810992.28845     -1780.562
                  24256157.917 1                  24256156.2994
  -4507550.694 6  23472401.073 6  -4356209.99648  23472396.99048      1911.665
 -11699947.466 7  21694258.727 7  -9062400.38649  21694253.49449       697.158
   -583080.133 7  23011002.156 7  -1709398.24548  23010998.57348     -2468.564
   8811758.572 6  23289927.178 6   6712463.79748  23289925.40848     -3984.824
 05  3 15  7 30 30.0030000  0  7G 6G10G15G16G21G25G30
  -1153680.854 7  21865533.456 7  -1872868.82049  21865529.72349     -2348.789
    326572.972 4  24816088.815 4   1259667.73045  24816088.53245     -1790.254
  -2372225.942 1  24248604.005 1  -3420241.32845  24248604.35045      2644.922
  -4536202.808 6  23466948.749 6  -4378536.31847  23466944.67547      1908.711
 -11710346.085 7  21692279.941 7  -9070503.20649  21692274.78149       689.233
   -545994.115 7  23018059.439 7  -1680500.08248  23018055.94548     -2476.323
   8871564.335 7  23301307.842 7   6759065.64748  23301306.04648     -3989.292
 05  3 15  7 30 45.0030000  0  7G 6G10G15G16G21G25G30
  -1118421.977 7  21872243.010 7  -1845394.38449  21872239.29349     -2352.524
    353499.547 5  24821212.796 5   1280649.48445  24821212.36945     -1800.103
  -2411877.372 1  24241058.228 1  -3451138.50445  24241057.85045      2642.144
  -4564811.079 6  23461504.782 6  -4400828.45847  23461500.70447      1905.703
 -11720626.627 7  21690323.613 7  -9078514.01949  21690318.56849       681.265
   -508792.795 7  23025138.658 7  -1651512.06448  23025135.25748     -2483.994
   8931437.022 7  23312701.239 7   6805719.64648  23312699.46448     -3993.862
 05  3 15  7 31  0.0030000  0  7G 6G10G15G16G21G25G30
  -1083107.365 7  21878963.131 7  -1817876.52549  21878959.53249     -2355.859
    380571.883 4  24826364.359 4   1301744.73845  24826363.94645     -1809.346
  -2451486.256 2  24233520.940 2  -3482002.48746  24233519.31246      2639.634
  -4593374.557 6  23456069.358 6  -4423085.71148  23456065.26048      1903.130
 -11730788.179 7  21688389.916 7  -9086432.11149  21688384.99149       673.779
   -471475.634 7  23032239.869 7  -1622433.75948  23032236.59148     -2491.338
   8991377.122 7  23324107.459 7   6852426.19048  23324105.70548     -3997.896
 05  3 15  7 31 15.0030000  0  7G 6G10G15G16G21G25G30
  -1047739.356 7  21885693.403 7  -1790317.04649  21885689.90149     -2359.526
    407787.643 4  24831543.183 4   1322951.80146  24831542.79846     -1819.121
  -2491054.619 1  24225991.478 1  -3512835.01245  24225989.26445      2636.768
  -4621895.323 7  23450642.051 7  -4445309.68348  23450637.91448      1900.064
 -11740832.915 7  21686478.460 7  -9094259.17949  21686473.61649       665.859
   -434045.314 7  23039362.668 7  -1593267.31148  23039359.40748     -2499.023
   9051382.162 6  23335526.070 6   6899183.30448  23335524.31448     -4002.358
 05  3 15  7 31 30.0030000  0  7G 6G10G15G16G21G25G30
  -1012317.165 7  21892434.007 7  -1762715.35749  21892430.58149     -2363.306
    435147.840 4  24836749.539 4   1344271.45245  24836749.18545     -1828.789
  -2530581.236 1  24218469.776 1  -3543634.89846  24218467.76746      2633.872
  -4650372.098 7  23445223.087 7  -4467499.38748  23445218.90448      1897.002
 -11750759.831 7  21684589.420 7  -9101994.44249  21684584.63249       657.842
   -396501.010 7  23046507.172 7  -1564012.03848  23046503.86048     -2506.753
   9111452.951 7  23346957.192 7   6945991.66848  23346955.40248     -4006.919
 05  3 15  7 31 45.0030000  0  7G 6G10G15G16G21G25G30
   -976839.776 7  21899185.109 7  -1735070.65549  21899181.82649     -2366.939
    462653.228 3  24841983.604 3   1365704.17645  24841983.26445     -1838.506
  -2570064.754 1  24210956.231 1  -3574401.31446  24210954.47246      2630.967
  -4678803.602 6  23439812.718 6  -4489653.80048  23439808.50248      1893.906
 -11760567.707 7  21682723.031 7  -9109636.94449  21682718.25649       649.897
   -358841.926 7  23053673.540 7  -1534667.31748  23053670.09148     -2514.468
   9171590.340 6  23358400.958 6   6992851.92148  23358399.13248     -4011.289
 05  3 15  7 32  0.0030000  0  7G 6G10G15G16G21G25G30
   -941307.602 7  21905946.654 7  -1707383.26949  21905943.48249     -2370.415
    490303.473 4  24847245.214 4   1387249.76645  24847244.82145     -1847.837
  -2609505.392 1  24203450.941 1  -3605134.23546  24203449.23946      2628.306
  -4707190.026 6  23434410.929 6  -4511773.09747  23434406.72747      1891.230
 -11770256.699 7  21680879.277 7  -9117186.80049  21680874.45349       642.251
   -321068.564 7  23060861.657 7  -1505233.57248  23060858.06648     -2521.826
   9231793.813 7  23369857.344 7   7039763.68048  23369855.42748     -4015.493
 05  3 15  7 32 15.0030000  0  7G 6G10G15G16G21G25G30
   -905723.390 7  21912718.117 7  -1679655.33549  21912714.94949     -2373.935
    518095.788 5  24852533.931 5   1408906.12545  24852533.30345     -1857.500
  -2648905.425 2  24195953.358 2  -3635835.50846  24195951.71346      2625.327
  -4735533.650 6  23429017.283 6  -4533859.03948  23429013.16048      1888.223
 -11779829.391 7  21679057.642 7  -9124646.04049  21679052.78049       634.316
   -283183.735 7  23068070.946 7  -1475712.96348  23068067.28448     -2529.292
   9292060.595 6  23381325.772 6   7086724.75848  23381323.75448     -4019.780
 05  3 15  7 32 30.0030000  0  7G 6G10G15G16G21G25G30
   -870085.308 7  21919499.817 7  -1651885.42849  21919496.58949     -2377.642
    546031.938 5  24857850.038 5   1430674.50045  24857849.13945     -1867.109
  -2688262.747 2  24188463.910 2  -3666503.50346  24188462.24346      2622.353
  -4763832.439 6  23423632.184 6  -4555910.04648  23423628.12748      1885.098
 -11789283.908 7  21677258.482 7  -9132013.20749  21677253.59849       626.460
   -245186.065 7  23075301.692 7  -1446104.39648  23075298.01548     -2536.919
   9352392.350 7  23392806.615 7   7133736.47248  23392804.43448     -4024.248
 05  3 15  7 32 45.0030000  0  7G 6G10G15G16G21G25G30
   -834396.047 7  21926291.252 7  -1624075.63649  21926287.95349     -2381.035
    574109.227 6  24863193.060 6   1452552.93746  24863191.89446     -1876.592
  -2727579.772 3  24180982.119 3  -3697140.16046  24180980.42646      2620.146
  -4792088.692 6  23418255.201 6  -4577927.90248  23418251.15048      1882.319
 -11798622.641 7  21675481.344 7  -9139290.14149  21675476.45149       618.843
   -207078.440 7  23082553.345 7  -1416410.16148  23082549.66248     -2544.062
   9412786.284 7  23404299.276 7   7180796.64548  23404296.96848     -4028.267
 05  3 15  7 33  0.0030000  0  7G 6G10G15G16G21G25G30
   -798654.711 7  21933092.572 7  -1596225.25649  21933089.24349     -2384.365
    602328.506 5  24868563.130 5   1474541.93046  24868561.79946     -1885.972
  -2766855.189 2  24173508.283 2  -3727744.33346  24173506.60646      2617.002
  -4820301.305 7  23412886.588 7  -4599911.75848  23412882.47348      1879.526
 -11807844.496 7  21673726.449 7  -9146476.00749  21673721.55649       611.055
   -168860.034 7  23089826.082 7  -1386629.59648  23089822.37448     -2551.465
   9473243.131 7  23415803.889 7   7227905.83948  23415801.47548     -4032.495
 05  3 15  7 33 15.0030000  0  7G 6G10G15G16G21G25G30
   -762860.666 7  21939903.940 7  -1568333.81349  21939900.58949     -2387.983
    630690.606 5  24873960.396 5   1496642.24246  24873958.93746     -1895.566
  -2806087.904 2  24166042.671 2  -3758315.28746  24166040.91846      2614.038
  -4848469.126 7  23407526.489 7  -4621860.71648  23407522.28148      1876.372
 -11816948.631 7  21671993.966 7  -9153570.15449  21671989.06649       603.008
   -130530.216 7  23097120.042 7  -1356762.20748  23097116.27848     -2558.989
   9533763.574 7  23427320.601 7   7275064.57348  23427318.08948     -4036.758
 05  3 15  7 33 30.0030000  0  7G 6G10G15G16G21G25G30
   -727015.543 7  21946725.038 7  -1540402.56649  21946721.66649     -2391.226
    659193.753 5  24879384.531 5   1518852.44945  24879382.93845     -1904.761
  -2845279.402 4  24158584.930 4  -3788854.12946  24158583.05146      2611.636
  -4876593.700 7  23402174.683 7  -4643775.97548  23402170.33148      1873.662
 -11825936.575 7  21670283.619 7  -9160573.75149  21670278.67449       595.483
    -92090.957 7  23104434.818 7  -1326809.57948  23104431.03648     -2566.143
   9594345.821 6  23438849.040 6   7322271.48347  23438846.44347     -4040.727
 05  3 15  7 33 45.0030000  0  7G 6G10G15G16G21G25G30
   -691116.424 7  21953556.422 7  -1512429.24649  21953553.00749     -2395.122
    687840.897 5  24884836.037 5   1541174.85245  24884834.30545     -1914.678
  -2884426.269 5  24151135.697 5  -3819358.14647  24151133.69247      2608.223
  -4904671.581 7  23396831.803 7  -4665654.83348  23396827.24148      1870.244
 -11834805.072 7  21668595.991 7  -9167484.26049  21668591.04349       587.192
    -53539.383 7  23111770.925 7  -1296769.39748  23111767.16648     -2573.857
   9654992.835 6  23450389.808 6   7369528.87047  23450387.12847     -4045.366
 05  3 15  7 34  0.0030000  0  7G 6G10G15G16G21G25G30
   -655164.016 7  21960397.993 7  -1484414.40449  21960394.49649     -2398.716
    716631.270 5  24890314.729 5   1563608.81945  24890312.93645     -1924.219
  -2923529.033 2  24143694.702 2  -3849827.82046  24143692.71046      2605.288
  -4932703.309 7  23391497.673 7  -4687497.72748  23391492.92848      1867.124
 -11843554.628 7  21666930.990 7  -9174302.11149  21666926.08049       579.150
    -14876.487 7  23119128.171 7  -1266642.50348  23119124.45148     -2581.343
   9715703.639 6  23461942.681 6   7416835.92447  23461939.99447     -4049.565
 05  3 15  7 34 15.0030000  0  7G 6G10G15G16G21G25G30
   -619157.950 7  21967249.747 7  -1456357.74549  21967246.21849     -2402.168
    745565.175 5  24895820.799 5   1586154.67845  24895818.97245     -1933.809
  -2962587.064 3  24136262.200 3  -3880262.58546  24136260.18146      2602.109
  -4960688.128 7  23386172.403 7  -4709304.07548  23386167.54548      1864.160
 -11852184.883 7  21665288.708 7  -9181026.98049  21665283.80349       571.372
     23897.810 7  23126506.633 7  -1236428.78548  23126502.94348     -2588.657
   9776478.459 6  23473507.752 6   7464192.88647  23473505.02647     -4053.769
 05  3 15  7 34 30.0030000  0  7G 6G10G15G16G21G25G30
   -583100.019 7  21974111.373 7  -1428260.68549  21974107.86049     -2405.508
    774640.772 4  24901353.850 4   1608810.98445  24901352.12545     -1943.042
  -3001601.681 3  24128838.021 3  -3910663.57046  24128835.93046      2599.629
  -4988627.446 7  23380855.801 7  -4731074.96148  23380850.82348      1861.216
 -11860697.302 7  21663668.848 7  -9187660.03249  21663663.98149       563.687
     62781.708 7  23133905.985 7  -1206129.66248  23133902.33048     -2595.845
   9837315.458 6  23485084.691 6   7511598.28947  23485081.85647     -4057.720
 05  3 15  7 34 45.0030000  0  7G 6G10G15G16G21G25G30
   -546989.824 7  21980982.951 7  -1400122.89549  21980979.48349     -2409.312
    803858.512 3  24906914.073 3   1631578.03545  24906912.45545     -1952.891
  -3040572.187 4  24121422.206 4  -3941030.16846  24121420.12046      2596.314
  -5016520.614 7  23375547.911 7  -4752809.89748  23375542.83248      1857.788
 -11869091.422 7  21662071.521 7  -9194200.91049  21662066.69649       555.444
    101775.405 7  23141326.237 7  -1175745.00148  23141322.64948     -2603.438
   9898215.009 6  23496673.553 6   7559052.44747  23496670.60847     -4062.256
 05  3 15  7 35  0.0030000  0  7G 6G10G15G16G21G25G30
   -510826.414 7  21987864.642 7  -1371943.63749  21987861.24449     -2412.578
    833219.256 1  24912501.326 1   1654456.58644  24912500.01644     -1962.173
  -3079497.203 5  24114015.140 5  -3971361.32547  24114012.93247      2593.584
  -5044366.346 7  23370248.940 7  -4774507.86147  23370243.82947      1854.878
 -11877365.987 7  21660496.962 7  -9200648.63749  21660492.17549       547.739
    140879.638 7  23148767.516 7  -1145274.19948  23148763.97948     -2610.493
   9959177.876 6  23508274.446 6   7606555.92748  23508271.43348     -4066.172
 05  3 15  7 35 15.0030000  0  7G 6G10G15G16G21G25G30
   -474610.935 7  21994756.228 7  -1343723.79949  21994752.88549     -2416.191
    862722.141 1  24918115.574 1   1677445.72344  24918114.67244     -1971.821
  -3118377.538 5  24106616.598 5  -4001657.68547  24106614.23147      2590.478
  -5072165.384 6  23364958.835 6  -4796169.44047  23364953.70947      1851.670
 -11885522.000 7  21658944.953 7  -9207003.96949  21658940.20349       539.668
    180093.005 7  23156229.581 7  -1114718.34948  23156226.04948     -2617.939
  10020202.925 6  23519887.147 6   7654107.88447  23519884.13247     -4070.498
 05  3 15  7 35 30.0030000  0  7G 6G10G15G16G21G25G30
   -438344.805 7  22001657.444 7  -1315464.49049  22001654.15049     -2419.468
                  24923756.812 1
  -3157214.420 5  24099226.376 5  -4031920.18447  24099223.88147      2587.651
  -5099918.883 6  23359677.332 6  -4817795.55147  23359672.27347      1848.701
 -11893560.775 8  21657415.272 8  -9213267.95049  21657410.49549       531.973
    219413.860 7  23163712.076 7  -1084078.74248  23163708.53748     -2625.015
  10081288.481 6  23531511.352 6   7701706.95047  23531508.42947     -4074.478
 05  3 15  7 35 45.0030000  0  7G 6G10G15G16G21G25G30
   -402025.200 7  22008568.843 7  -1287163.51449  22008565.55949     -2423.042
    922151.595 1  24929424.792 1                                     -1990.625
  -3196004.674 6  24091845.000 6  -4062146.35047  24091842.41047      2584.526
  -5127623.791 6  23354405.101 6  -4839383.77447  23354400.07247      1845.410
 -11901479.220 7  21655908.483 7  -9219438.17449  21655903.64249       523.877
    258845.006 7  23171215.572 7  -1053353.20148  23171211.99948     -2632.417
  10142437.300 6  23543147.595 6   7749355.35547  23543144.78747     -4078.657
 05  3 15  7 36  0.0030000  0  6G 6G15G16G21G25G30
   -365653.627 7  22015490.142 7  -1258822.05349  22015486.83549     -2426.567
  -3234749.477 5  24084472.235 5  -4092337.05646  24084469.56246      2581.465
  -5155281.202 6  23349141.934 6  -4860935.00147  23349136.90247      1842.236
 -11909278.648 7  21654424.333 7  -9225515.64649  21654419.41549       515.981
    298384.752 6  23178739.743 6  -1022543.04748  23178736.20048     -2639.668
  10203647.823 6  23554795.590 6   7797051.83147  23554792.84847     -4082.832
 05  3 15  7 36 15.0030000  0  6G 6G15G16G21G25G30
   -329230.965 7  22022421.169 7  -1230440.77449  22022417.83549     -2429.815
  -3273449.319 4  24077107.911 4  -4122492.78546  24077105.24046      2578.364
  -5182891.693 6  23343887.719 6  -4882449.68347  23343882.64447      1839.126
 -11916959.823 7  21652962.655 7  -9231500.98049  21652957.69949       508.115
    338032.056 6  23186284.377 6   -991649.07248  23186280.89648     -2646.753
  10264918.961 6  23566455.178 6   7844795.54647  23566452.44947     -4086.777
 05  3 15  7 36 30.0030000  0  6G 6G15G16G21G25G30
   -292756.454 7  22029362.062 7  -1202019.10649  22029358.70049     -2433.252
  -3312103.124 2  24069752.402 2  -4152612.63646  24069749.63746      2575.522
  -5210454.123 6  23338642.702 6  -4903926.88547  23338637.52347      1836.016
 -11924521.734 7  21651523.673 7  -9237393.38249  21651518.71249       500.259
    377787.357 6  23193849.539 6   -960670.95548  23193846.22748     -2653.853
  10326251.508 6  23578126.410 6   7892587.09447  23578123.75547     -4090.796
 05  3 15  7 36 45.0030000  0  6G 6G15G16G21G25G30
   -256229.430 7  22036312.919 7  -1173556.50549  22036309.55849     -2436.846
  -3350709.859 2  24062405.581 2  -4182695.72546  24062402.86646      2572.144
  -5237967.460 7  23333407.070 7  -4925365.84047  23333401.78747      1832.617
 -11931963.554 8  21650107.537 8  -9243192.20149  21650102.57149       492.139
    417651.151 6  23201435.312 6   -929608.27448  23201432.14048     -2661.230
  10387646.054 6  23589809.446 6   7940426.96448  23589806.89448     -4095.010
 05  3 15  7 37  0.0030000  0  7G 6G10G15G16G21G25G30
   -219648.900 7  22043273.966 7  -1145052.22049  22043270.62049     -2440.513
     36587.989 2  24958170.542 2                                     -2037.759
  -3389268.316 3  24055068.163 3  -4212741.22446  24055065.28946      2568.833
  -5265430.560 7  23328181.025 7  -4946765.66747  23328175.64447      1829.233
 -11939284.211 7  21648714.448 7  -9248896.60449  21648709.45849       483.994
    457624.106 6  23209041.880 6   -898460.52348  23209038.76448     -2668.496
  10449103.289 6  23601504.463 6   7988315.67348  23601501.98548     -4099.214
 05  3 15  7 37 15.0030000  0  7G 6G10G15G16G21G25G30
   -183014.658 7  22050245.237 7  -1116506.09049  22050241.92349     -2443.945
     67226.801 3  24964000.404 3                                     -2047.134
  -3427777.894 4  24047740.006 4  -4242748.67546  24047737.03546      2565.698
  -5292842.715 7  23322964.716 7  -4968125.77148  23322959.22948      1825.889
 -11946483.279 8  21647344.509 8  -9254506.27149  21647339.46749       475.972
    497706.467 6  23216669.316 6   -867227.54848  23216666.17848     -2675.645
  10510623.423 6  23613211.435 6   8036253.40348  23613209.01848     -4103.350
 05  3 15  7 37 30.0030000  0  7G 6G10G15G16G21G25G30
   -146328.245 7  22057226.442 7  -1087919.28949  22057223.17249     -2447.544
     98007.288 4  24969857.511 4                                     -2056.763
  -3466239.841 4  24040420.862 4  -4272718.99546  24040417.86046      2562.588
  -5320205.308 7  23317757.861 7  -4989447.26848  23317752.34248      1822.466
 -11953562.209 8  21645997.439 8  -9260022.32549  21645992.34449       467.861
    537896.351 7  23224317.305 7   -835910.79048  23224314.12348     -2682.998
  10572204.829 6  23624930.084 6   8084238.86648  23624927.65648     -4107.495
 05  3 15  7 37 45.0030000  0  7G 6G10G15G16G21G25G30
   -109588.908 7  22064217.705 7  -1059291.25449  22064214.51049     -2451.045
    128930.128 3  24975742.059 3                                     -2066.348
  -3504653.011 5  24033111.064 5  -4302651.29146  24033107.98146      2559.365
  -5347517.157 7  23312560.644 7  -5010729.22948  23312555.17248      1819.097
 -11960519.950 8  21644673.437 8  -9265443.95049  21644668.31149       459.834
    578194.371 7  23231985.877 7   -804509.76748  23231982.66948     -2690.083
  10633848.177 6  23636660.511 6   8132272.61248  23636658.03648     -4111.611
 05  3 15  7 38  0.0030000  0  7G 6G10G15G16G21G25G30
    -72798.696 7  22071218.650 7  -1030623.58149  22071215.49449     -2454.326
    159993.285 1  24981653.120 1                                     -2075.596
  -3543019.029 4  24025810.181 4  -4332546.90246  24025807.07946      2556.148
  -5374779.969 7  23307372.740 7  -5031972.95548  23307367.38048      1815.850
 -11967358.384 8  21643372.136 8  -9270772.58249  21643367.00449       451.958
    618598.371 7  23239674.550 7   -773026.14448  23239671.38248     -2697.065
  10695551.342 6  23648402.319 6   8180352.95048  23648399.84548     -4115.469
 05  3 15  7 38 15.0030000  0  7G 6G10G15G16G21G25G30
    -35957.199 7  22078229.388 7  -1001915.93949  22078226.18449     -2457.725
    191197.016 1  24987590.345 1                                     -2084.678
  -3581337.499 3  24018518.294 3  -4362405.40846  24018515.26546      2553.101
  -5401993.135 6  23302194.225 6  -5053178.02148  23302189.04648      1812.568
 -11974077.063 7  21642093.624 7  -9276007.91549  21642088.51049       443.960
    659108.502 7  23247383.439 7   -741459.83948  23247380.28448     -2704.126
  10757314.450 6  23660155.509 6   8228479.98848  23660153.08248     -4119.482
 05  3 15  7 38 30.0030000  0  7G 6G10G15G16G21G25G30
       934.610 7  22085249.728 7   -973169.10049  22085246.45449     -2461.274
    222540.458 1  24993554.811 1                                     -2094.268
  -3619608.895 3  24011235.390 3  -4392227.18246  24011232.43646      2549.541
  -5429157.221 7  23297025.051 7  -5074344.83148  23297020.06148      1809.165
 -11980676.698 8  21640837.749 8  -9281150.49349  21640832.65949       435.898
    699723.437 7  23255112.289 7   -709811.85448  23255109.11648     -2711.294
  10819136.475 6  23671919.908 6   8276652.95648  23671917.56348     -4123.613
 05  3 15  7 38 45.0030000  0  7G 6G10G15G16G21G25G30
     37879.123 7  22092280.097 7   -944381.18849  22092276.78849     -2464.526
    254025.789 2  24999546.286 2                                     -2103.662
  -3657830.430 5  24003962.080 5  -4422010.18546  24003959.15846      2546.807
  -5456269.508 6  23291865.728 6  -5095471.28748  23291860.96248      1805.972
 -11987154.863 7  21639604.987 7  -9286198.41749  21639599.90649       428.022
    740445.550 7  23262861.487 7   -678080.37248  23262858.42648     -2718.120
  10881019.789 6  23683695.953 6   8324873.67048  23683693.67948     -4127.329
 05  3 15  7 39  0.0030000  0  7G 6G10G15G16G21G25G30
     74874.739 7  22099320.172 7   -915553.46949  22099316.85449     -2468.169
    285651.342 2  25005564.420 2                                     -2113.091
  -3696003.373 5  23996698.119 5  -4451755.30846  23996695.11546      2543.179
  -5483331.257 7  23286716.040 7  -5116558.37748  23286711.48648      1802.354
 -11993512.863 7  21638395.092 7  -9291152.70049  21638390.03449       419.844
    781272.996 6  23270630.679 6   -646266.79248  23270627.74048     -2725.396
  10942962.562 6  23695483.331 6   8373140.73148  23695481.06148     -4131.543
 05  3 15  7 39 15.0030000  0  7G 6G10G15G16G21G25G30
    111920.571 7  22106369.803 7   -886686.61649  22106366.42149     -2471.416
    317416.263 1  25011609.086 1                                     -2122.109
  -3734128.352 6  23989443.182 6  -4481463.04046  23989440.26546      2540.029
  -5510343.092 7  23281575.876 7  -5137606.56348  23281571.46848      1799.116
 -11999751.373 8  21637207.955 8  -9296013.88849  21637202.90849       411.899
    822204.620 6  23278419.684 6   -614372.04848  23278416.83048     -2732.261
  11004963.873 6  23707281.822 6   8421453.40948  23707279.56548     -4135.386
 05  3 15  7 39 30.0030000  0  7G 6G10G15G16G21G25G30
    149017.405 7  22113429.109 7   -857779.99648  22113425.70648     -2474.849
    349321.433 1  25017680.512 1                                     -2131.768
  -3772204.133 5  23982197.573 5  -4511132.50446  23982194.70146      2536.787
  -5537303.712 7  23276445.469 7  -5158614.83948  23276441.14548      1795.645
 -12005869.423 8  21636043.741 8  -9300781.20249  21636038.70349       403.862
    863241.193 7  23286228.673 7   -582395.51348  23286225.79448     -2739.311
  11067024.475 6  23719091.555 6   8469812.26748  23719089.36548     -4139.336
 05  3 15  7 39 45.0030000  0  7G 6G10G15G16G21G25G30
    186164.313 7  22120497.910 7   -828834.37549  22120494.56349     -2478.076
    381365.614 1  25023778.439 1                                     -2140.767
  -3810231.491 5  23974961.174 5  -4540764.19046  23974958.20246      2533.633
  -5564213.923 7  23271324.689 7  -5179583.81948  23271320.41948      1792.407
 -12011867.885 8  21634902.276 8  -9305455.33749  21634897.24049       395.962
    904381.556 7  23294057.465 7   -550338.13048  23294054.49848     -2746.128
  11129143.210 6  23730912.362 6   8518216.44048  23730910.23648     -4143.111
 05  3 15  7 40  0.0030000  0  6G 6G15G16G21G25G30
    223362.079 7  22127576.388 7   -799849.12249  22127573.09849     -2481.699
  -3848209.254 5  23967734.219 5  -4570357.25446  23967731.18946      2530.064
  -5591072.586 7  23266213.733 7  -5200512.65248  23266209.42648      1788.813
 -12017745.863 8  21633783.741 8  -9310035.57749  21633778.70149       387.690
    945626.101 7  23301906.081 7   -518199.55448  23301903.01748     -2753.262
  11191320.742 6  23742744.357 6   8566666.40048  23742742.33248     -4147.349
 05  3 15  7 40 15.0030000  0  6G 6G15G16G21G25G30
    260611.345 7  22134664.660 7   -770823.73748  22134661.42648     -2485.010
  -3886136.382 5  23960516.882 5  -4599910.84046  23960513.85046      2526.753
  -5617878.595 7  23261112.786 7  -5221400.46148  23261108.37048      1785.273
 -12023502.463 7  21632688.288 7  -9314521.24549  21632683.24349       379.712
    986975.335 7  23309774.632 7   -485979.40948  23309771.51448     -2760.151
  11253557.694 6  23754587.649 6   8615162.67948  23754585.68548     -4151.201
 05  3 15  7 40 30.0030000  0  6G 6G15G16G21G25G30
    297912.348 7  22141762.795 7   -741758.05048  22141759.57948     -2488.364
  -3924012.447 5  23953309.238 5  -4629424.63046  23953306.19446      2523.374
  -5644631.545 7  23256021.917 7  -5242246.91548  23256017.35448      1781.768
 -12029137.315 8  21631616.014 8  -9318912.04649  21631610.94349       371.631
   1028429.194 7  23317663.058 7   -453677.73948  23317659.98948     -2767.075
  11315854.034 6  23766442.266 6   8663705.24648  23766440.30148     -4155.064
 05  3 15  7 40 45.0030000  0  6G 6G15G16G21G25G30
    335263.431 7  22148870.483 7   -712653.32949  22148867.26149     -2491.870
  -3961838.631 5  23946111.138 5  -4658899.55546  23946108.14646      2520.049
  -5671332.720 7  23250940.883 7  -5263053.02048  23250936.18548      1778.232
 -12034651.895 7  21630566.625 7  -9323209.12449  21630561.55249       363.584
   1069986.020 7  23325571.085 7   -421295.83748  23325568.10048     -2773.994
  11378208.243 6  23778307.962 6   8712292.89348  23778305.90448     -4159.004
 05  3 15  7 41  0.0030000  0  6G 6G15G16G21G25G30
    372662.330 7  22155987.294 7   -683511.35249  22155984.09049     -2495.024
  -3999616.990 5  23938922.138 5  -4688337.21346  23938919.24146      2516.724
  -5697983.991 7  23245869.288 7  -5283820.22148  23245864.56148      1774.912
 -12040048.431 7  21629539.688 7  -9327414.21949  21629534.62049       355.698
   1111643.248 7  23333498.240 7   -388835.68048  23333495.29848     -2780.571
  11440617.650 6  23790184.078 6   8760923.55247  23790182.00847     -4162.564
 05  3 15  7 41 15.0030000  0  6G 6G15G16G21G25G30
    410112.779 7  22163113.930 7   -654329.20949  22163110.71249     -2498.394
  -4037343.400 5  23931743.038 5  -4717734.40146  23931740.14646      2513.379
  -5724581.386 7  23240807.928 7  -5304545.45448  23240803.25048      1771.323
 -12045323.070 7  21628535.942 7  -9331524.32849  21628530.88849       347.612
   1153404.393 7  23341445.193 7   -356294.54648  23341442.23648     -2787.524
  11503086.052 6  23802071.408 6   8809600.17247  23802069.35447     -4166.582
 05  3 15  7 41 30.0030000  0  6G 6G15G16G21G25G30
    447612.580 7  22170249.955 7   -625108.59749  22170246.68549     -2501.606
  -4075019.751 4  23924573.374 4  -4747092.58046  23924570.51046      2510.049
  -5751126.769 7  23235756.416 7  -5325230.15048  23235751.87948      1767.949
 -12050477.850 7  21627554.989 7  -9335541.04049  21627549.96349       339.712
   1195266.973 7  23349411.460 7   -323674.37848  23349408.35748     -2794.233
  11565611.062 6  23813969.502 6   8858320.90947  23813967.44547     -4170.195
 05  3 15  7 41 45.0030000  0  6G 6G15G16G21G25G30
    485162.791 7  22177395.560 7   -595848.71349  22177392.26049     -2505.049
  -4112644.697 3  23917413.472 3  -4776410.71246  23917410.70946      2506.641
  -5777618.702 6  23230715.080 6  -5345873.20048  23230710.70448      1764.282
 -12055511.384 7  21626597.117 7  -9339463.27449  21626592.11749       331.489
   1237231.965 7  23357397.179 7   -290974.42048  23357393.94648     -2801.099
  11628193.628 6  23825878.541 6   8907086.49647  23825876.50447     -4174.102
 05  3 15  7 42  0.0030000  0  6G 6G15G16G21G25G30
    522762.597 7  22184550.559 7   -566550.17848  22184547.29948     -2508.379
  -4150218.764 4  23910263.254 4  -4805689.19346  23910260.61846      2503.286
  -5804057.715 6  23225683.813 6  -5366475.02748  23225679.58848      1760.757
 -12060424.473 7  21625662.183 7  -9343291.65149  21625657.21449       323.413
   1279298.289 7  23365402.156 7   -258195.48948  23365398.78148     -2807.890
  11690832.875 6  23837798.380 6   8955896.23947  23837796.39347     -4177.954
 05  3 15  7 42 15.0030000  0  6G 6G15G16G21G25G30
    560414.995 7  22191715.554 7   -537210.67348  22191712.31448     -2511.929
  -4187738.536 3  23903123.362 3  -4834925.32246  23903120.89046      2499.507
  -5830440.407 7  23220663.322 7  -5387032.97648  23220659.13548      1756.929
 -12065213.912 7  21624750.789 7  -9347023.68349  21624745.83749       315.132
   1321468.824 7  23373426.950 7   -225335.35948  23373423.47548     -2814.937
  11753531.567 6  23849729.565 6   9004752.33347  23849727.62147     -4181.968
 05  3 15  7 42 30.0030000  0  6G 6G15G16G21G25G30
    598118.239 7  22198890.229 7   -507831.54648  22198886.96548     -2515.234
  -4225205.553 4  23895993.659 4  -4864120.42546  23895991.23146      2496.060
  -5856768.345 7  23215653.265 7  -5407548.25948  23215649.06048      1753.354
 -12069881.338 7  21623862.610 7  -9350660.64649  21623857.65749       307.061
   1363741.398 7  23381471.151 7   -192395.70348  23381467.66048     -2821.582
  11816287.886 6  23861671.714 6   9053653.30747  23861669.89047     -4185.669
 05  3 15  7 42 45.0030000  0  6G 6G15G16G21G25G30
    635872.638 7  22206074.669 7   -478412.56149  22206071.33849     -2518.652
  -4262619.154 5  23888874.184 5  -4893273.86846  23888871.76046      2492.461
  -5883040.827 7  23210653.792 7  -5428020.32048  23210649.53648      1749.746
 -12074426.248 7  21622997.741 7  -9354202.14549  21622992.76749       298.940
   1406116.243 7  23389534.858 7   -159376.35848  23389531.35648     -2828.394
  11879102.115 6  23873624.814 6   9102599.42547  23873623.15847     -4189.619
 05  3 15  7 43  0.0030000  0  7G 6G10G15G16G21G25G30
    673676.458 7  22213268.531 7   -448955.06349  22213265.15449     -2522.002
    111832.465 2  25105465.651 2                                     -2261.514
  -4299980.714 5  23881764.573 5  -4922386.82046  23881762.18346      2488.989
  -5909259.173 7  23205664.694 7  -5448450.20048  23205660.30948      1746.020
 -12078850.365 7  21622155.862 7  -9357649.50649  21622150.85549       290.830
   1448591.318 7  23397617.669 7   -126278.92748  23397614.16048     -2835.107
  11941972.379 6  23885588.598 6   9151589.18147  23885587.05447     -4193.203
 05  3 15  7 43 15.0030000  0  7G 6G10G15G16G21G25G30
    711531.307 7  22220472.109 7   -419457.80349  22220468.72449     -2525.317
    145823.574 1  25111934.176 1                                     -2270.561
  -4337288.338 5  23874665.205 5  -4951457.71046  23874662.86246      2485.400
  -5935421.584 7  23200686.193 7  -5468836.48248  23200681.71048      1742.310
 -12083151.779 8  21621337.344 8  -9361001.26349  21621332.31449       282.710
   1491168.005 7  23405719.817 7    -93102.31048  23405716.31248     -2841.782
  12004900.046 6  23897563.339 6   9200623.69047  23897561.81947     -4196.987
 05  3 15  7 43 30.0030000  0  7G 6G10G15G16G21G25G30
    749436.153 7  22227685.199 7   -389921.58249  22227681.77249     -2528.652
                  25118427.478 1
  -4374542.756 5  23867575.939 5  -4980487.10446  23867573.68046      2481.860
  -5961528.763 7  23195718.202 7  -5489179.73748  23195713.58948      1738.574
 -12087331.466 7  21620541.988 7  -9364258.16149  21620536.96349       274.600
   1533845.176 7  23413841.042 7    -59847.40448  23413837.55748     -2848.501
  12067884.093 6  23909548.824 6   9249702.10747  23909547.26847     -4200.801
 05  3 15  7 43 45.0030000  0  6G 6G15G16G21G25G30
    787390.149 7  22234907.645 7   -360347.05948  22234904.12248     -2532.251
  -4411744.555 4  23860496.680 4  -5009475.50046  23860494.49246      2477.998
  -5987581.167 7  23190760.665 7  -5509480.29648  23190755.85548      1734.614
 -12091390.108 7  21619769.662 7  -9367420.74449  21619764.69549       266.118
   1576621.698 7  23421981.139 7    -26515.07248  23421977.72048     -2855.420
  12130923.393 6  23921544.862 6   9298823.61647  23921543.23547     -4204.800
 05  3 15  7 44  0.0030000  0  6G 6G15G16G21G25G30
    825394.299 7  22242139.625 7   -330733.46649  22242136.03649     -2535.298
  -4448892.360 4  23853427.648 4  -5038421.78346  23853425.57946      2474.565
  -6013577.479 7  23185813.768 7  -5529737.16648  23185808.82848      1731.211
 -12095326.596 8  21619020.592 8  -9370488.14849  21619015.67949       258.394
   1619498.220 7  23430140.273 7      6895.17448  23430136.79948     -2861.777
  12194018.937 5  23933551.592 5   9347988.92547  23933549.98847     -4208.232
 05  3 15  7 44 15.0030000  0  6G 6G15G16G21G25G30
    863449.015 7  22249381.207 7   -301080.46549  22249377.61249     -2538.594
  -4485985.291 5  23846369.118 5  -5067325.32046  23846367.16146      2471.079
  -6039516.725 7  23180877.685 7  -5549949.56048  23180872.69348      1727.417
 -12099140.197 8  21618294.910 8  -9373459.78749  21618289.99249       250.186
   1662475.148 7  23438318.566 7     40383.66648  23438314.97948     -2868.374
  12257171.204 5  23945569.109 5   9397198.45547  23945567.53847     -4212.051
 05  3 15  7 44 30.0030000  0  6G 6G15G16G21G25G30
    901552.259 7  22256632.019 7   -271389.64149  22256628.45749     -2541.782
  -4523025.175 5  23839320.771 5  -5096187.54946  23839318.84046      2467.661
  -6065400.873 7  23175952.074 7  -5570119.02948  23175947.09048      1723.779
 -12102833.127 8  21617592.205 8  -9376337.41249  21617587.22949       242.202
   1705550.060 7  23446515.512 7     73948.51848  23446511.79948     -2874.868
  12320377.718 6  23957596.956 6   9446450.25347  23957595.43947     -4215.522
 05  3 15  7 44 45.0030000  0  6G 6G15G16G21G25G30
    939705.216 7  22263892.278 7   -241660.08249  22263888.79849     -2545.264
  -4560010.433 6  23832282.843 6  -5125007.25247  23832280.88247      2463.779
  -6091228.338 7  23171037.199 7  -5590244.33248  23171032.27748      1719.858
 -12106403.833 8  21616912.764 8  -9379119.78949  21616907.66849       233.887
   1748724.045 7  23454731.277 7    107590.54848  23454727.59848     -2881.636
  12383639.764 6  23969635.318 6   9495745.27747  23969633.86847     -4219.394
 05  3 15  7 45  0.0030000  0  6G 6G15G16G21G25G30
    977908.732 7  22271162.170 7   -211891.13249  22271158.79449     -2548.716
  -4596940.092 5  23825255.476 5  -5153783.59147  23825253.52147      2459.922
  -6116998.106 7  23166133.330 7  -5610324.65448  23166128.43148      1715.884
 -12109851.462 7  21616256.719 7  -9381806.25349  21616251.50249       225.518
   1791997.614 7  23462965.970 7    141310.19848  23462962.33348     -2888.418
  12446957.863 6  23981684.390 6   9545084.02547  23981682.92347     -4223.208
 05  3 15  7 45 15.0030000  0  6G 6G15G16G21G25G30
   1016163.902 7  22278441.868 7   -182081.93749  22278438.62949     -2551.938
  -4633812.694 5  23818238.905 5  -5182515.48047  23818237.02047      2456.597
  -6142708.625 7  23161240.751 7  -5630358.82948  23161235.89148      1712.226
 -12113174.689 8  21615624.320 8  -9384395.78649  21615619.02149       217.607
   1835371.641 7  23471219.768 7    175108.11848  23471216.22148     -2894.795
  12510333.088 6  23993744.354 6   9594467.24847  23993742.83647     -4226.724
 05  3 15  7 45 30.0030000  0  6G 6G15G16G21G25G30
   1054467.896 7  22285730.884 7   -152234.69049  22285727.76349     -2555.312
  -4670630.722 5  23811232.710 5  -5211204.82447  23811230.86047      2452.627
  -6168362.284 7  23156358.981 7  -5650348.69048  23156354.21048      1708.301
 -12116376.247 8  21615015.075 8  -9386890.51349  21615009.72849       209.316
   1878843.174 7  23479492.167 7    208982.01648  23479488.62048     -2901.411
  12573762.489 6  24005814.626 6   9643892.74547  24005813.06547     -4230.493
 05  3 15  7 45 45.0030000  0  6G 6G15G16G21G25G30
   1092819.338 7  22293028.913 7   -122350.47048  22293025.90548     -2558.355
  -4707395.432 5  23804236.574 5  -5239852.60747  23804234.81947      2449.258
  -6193960.330 7  23151487.815 7  -5670295.21048  23151483.13548      1704.663
 -12119457.601 8  21614428.697 8  -9389291.57049  21614423.35049       201.484
   1922410.464 7  23487782.779 7    242930.50848  23487779.28448     -2907.617
  12637244.456 6  24017894.928 6   9693359.17547  24017893.35247     -4233.867
 05  3 15  7 46  0.0030000  0  6G 6G15G16G21G25G30
   1131220.377 7  22300336.386 7    -92427.59949  22300333.42649     -2561.548
  -4744104.085 5  23797251.084 5  -5268456.71547  23797249.39547      2445.552
  -6219500.218 7  23146627.751 7  -5690196.41648  23146623.13348      1700.850
 -12122416.165 7  21613865.658 7  -9391596.93649  21613860.36849       193.281
   1966075.612 6  23496091.992 6    276955.26748  23496088.57148     -2914.131
  12700781.096 6  24029985.605 6   9742868.21247  24029984.16247     -4237.393
 05  3 15  7 46 15.0030000  0  6G 6G15G16G21G25G30
   1169668.765 7  22307652.883 7    -62467.85248  22307649.93748     -2564.834
  -4780758.631 5  23790275.931 5  -5297018.68047  23790274.22947      2441.855
  -6244983.797 7  23141778.412 7  -5710053.75848  23141773.85148      1696.982
 -12125254.041 7  21613325.612 7  -9393808.27449  21613320.38149       185.093
   2009835.940 6  23504419.244 6    311054.18848  23504415.97248     -2920.454
  12764370.233 6  24042086.273 6   9792418.14447  24042084.95847     -4241.074
 05  3 15  7 46 30.0030000  0  6G 6G15G16G21G25G30
   1208165.365 7  22314978.529 7    -32470.52648  22314975.59848     -2568.013
  -4817357.974 5  23783311.231 5  -5325537.61646  23783309.55846      2438.106
  -6270409.924 7  23136940.002 7  -5729866.31948  23136935.48948      1693.223
 -12127970.577 8  21612808.658 8  -9395925.04949  21612803.49749       177.061
   2053692.082 6  23512764.694 6    345227.77747  23512761.55847     -2926.831
  12828012.254 6  24054197.014 6   9842009.28347  24054195.77147     -4244.575
 05  3 15  7 46 45.0030000  0  6G 6G15G16G21G25G30
   1246708.399 7  22322313.042 7     -2437.00948  22322310.08648     -2570.986
  -4853903.510 5  23776356.732 5  -5354014.70546  23776355.12946      2434.736
  -6295779.993 7  23132112.271 7  -5749635.19448  23132107.74348      1689.570
 -12130567.219 7  21612314.535 7  -9397948.40249  21612309.42749       169.209
   2097642.272 6  23521128.082 6    379474.62847  23521125.00147     -2933.022
  12891705.450 6  24066317.498 6   9891640.31647  24066316.28247     -4247.759
 05  3 15  7 47  0.0030000  0  6G 6G15G16G21G25G30
   1285300.457 7  22329656.872 7     27634.70948  22329653.87448     -2574.546
  -4890392.401 5  23769413.006 5  -5382447.56946  23769411.39246      2430.586
  -6321091.174 7  23127295.695 7  -5769358.20448  23127291.18448      1685.322
 -12133041.366 8  21611843.746 8  -9399876.31749  21611838.64649       160.811
   2141688.609 6  23529509.864 6    413796.40148  23529506.74148     -2939.668
  12955452.296 6  24078448.269 6   9941313.12447  24078446.97747     -4251.641
 05  3 15  7 47 15.0030000  0  6G 6G15G16G21G25G30
   1323940.399 7  22337009.826 7     57743.71848  22337006.79948     -2577.773
  -4926825.486 5  23762479.990 5  -5410837.00146  23762478.30446      2426.660
  -6346344.323 7  23122490.182 7  -5789035.97848  23122485.69948      1681.348
 -12135393.851 8  21611396.126 8  -9401709.43049  21611390.99949       152.578
   2185829.732 6  23537909.648 6    448192.04047  23537906.55047     -2946.118
  13019251.480 6  24090588.918 6   9991026.73847  24090587.62847     -4255.264
 05  3 15  7 47 30.0030000  0  6G 6G15G16G21G25G30
   1362630.093 7  22344372.267 7     87891.52148  22344369.21048     -2580.845
  -4963200.470 5  23755558.052 5  -5439181.14446  23755556.35146      2423.228
  -6371537.088 7  23117696.150 7  -5808666.69848  23117691.75748      1677.598
 -12137622.731 8  21610972.014 8  -9403446.21449  21610966.85649       144.629
   2230067.520 6  23546327.847 6    482663.01047  23546324.74447     -2952.261
  13083104.673 6  24102739.846 6  10040782.41247  24102738.54447     -4258.604
 05  3 15  7 47 45.0030000  0  6G 6G15G16G21G25G30
   1401368.034 7  22351743.876 7    118076.91348  22351740.85248     -2584.019
  -4999518.673 5  23748646.908 5  -5467481.03746  23748645.21946      2419.351
  -6396670.799 7  23112913.325 7  -5828251.40848  23112909.03548      1673.721
 -12139729.481 7  21610571.120 7  -9405087.85549  21610565.95949       136.504
   2274400.059 6  23554764.036 6    517207.80048  23554760.96848     -2958.520
  13147010.398 5  24114900.744 5  10090579.01247  24114899.45547     -4261.953
 05  3 15  7 48  0.0030000  0  6G 6G15G16G21G25G30
   1440153.701 7  22359124.586 7    148299.48248  22359121.62948     -2587.104
  -5035780.296 4  23741746.382 4  -5495736.75846  23741744.86946      2415.855
  -6421745.606 7  23108141.709 7  -5847790.21048  23108137.46048      1669.858
 -12141714.671 8  21610193.362 8  -9406634.76149  21610188.19149       128.447
   2318826.527 6  23563218.140 6    551825.77748  23563215.02148     -2964.775
  13210967.835 6  24127071.513 6  10140415.95147  24127070.21647     -4265.298
 05  3 15  7 48 15.0030000  0  6G 6G15G16G21G25G30
   1478988.504 7  22366514.655 7    178560.33448  22366511.73548     -2590.581
  -5071983.415 4  23734857.042 4  -5523946.97646  23734855.62146      2411.553
  -6446759.582 7  23103381.686 7  -5867281.63348  23103377.44248      1665.640
 -12143576.339 7  21609839.101 7  -9408085.41549  21609833.94649       120.029
   2363348.211 6  23571690.387 6    586517.99148  23571687.22248     -2971.221
  13274978.494 6  24139252.431 6  10190294.31947  24139251.12047     -4269.067
 05  3 15  7 48 30.0030000  0  6G 6G15G16G21G25G30
   1517870.212 7  22373913.639 7    208857.75248  22373910.72448     -2593.809
  -5108130.343 2  23727978.385 2  -5552113.40246  23727977.00946      2407.759
  -6471714.845 7  23098632.870 7  -5886727.28948  23098628.58548      1661.528
 -12145316.827 7  21609507.901 7  -9409441.63849  21609502.77449       111.812
   2407962.584 6  23580180.240 6    621282.41148  23580177.09348     -2977.608
  13339039.696 5  24151442.939 5  10240212.09047  24151441.61147     -4272.676
 05  3 15  7 48 45.0040000  0  6G 6G15G16G21G25G30
   1556801.815 7  22381322.080 7    239194.04648  22381319.17548     -2596.684
  -5144222.548 4  23721110.138 4  -5580237.21746  23721108.84546      2404.199
  -6496612.314 7  23093895.048 7  -5906127.91548  23093890.76148      1657.876
 -12146935.645 7  21609199.854 7  -9410703.05749  21609194.75749       103.965
   2452672.760 6  23588688.255 6    656121.50547  23588685.23247     -2983.433
  13403156.178 5  24163643.896 5  10290172.93447  24163642.62747     -4275.689
 05  3 15  7 49  0.0040000  0  6G 6G15G16G21G25G30
   1595779.161 7  22388739.243 7    269565.98248  22388736.32448     -2600.112
  -5180253.851 4  23714253.548 4  -5608313.57846  23714252.33546      2400.151
  -6521447.219 7  23089169.146 7  -5925479.79248  23089164.85548      1653.564
 -12148431.547 7  21608915.169 7  -9411868.69249  21608910.12349        95.620
   2497473.607 6  23597213.519 6    691031.22648  23597210.62248     -2989.824
  13467320.247 6  24175853.971 6  10340170.86647  24175852.69847     -4279.321
 05  3 15  7 49 15.0040000  0  6G 6G15G16G21G25G30
   1634804.503 7  22396165.535 7    299975.32748  22396162.56648     -2603.149
  -5216226.940 4  23707408.022 4  -5636344.51146  23707406.87546      2396.499
  -6546221.383 7  23084454.830 7  -5944784.33248  23084450.44948      1649.727
 -12149805.016 7  21608653.781 7  -9412938.93849  21608648.77849        87.588
   2542367.408 6  23605756.453 6    726013.36548  23605753.70748     -2995.982
  13531535.610 6  24188073.793 6  10390208.77547  24188072.59947     -4282.652
 05  3 15  7 49 30.0040000  0  6G 6G15G16G21G25G30
   1673876.787 7  22403600.761 7    330421.24348  22403597.74348     -2606.357
  -5252142.269 5  23700573.541 5  -5664330.45446  23700572.35846      2392.446
  -6570935.361 7  23079751.962 7  -5964041.99248  23079747.43448      1645.610
 -12151056.783 7  21608415.555 7  -9413914.34649  21608410.59949        79.409
   2587353.025 6  23614316.951 6    761067.06748  23614314.23748     -3002.065
  13595801.358 5  24200303.162 5  10440285.88847  24200302.08547     -4286.104
 05  3 15  7 49 45.0040000  0  6G 6G15G16G21G25G30
   1712996.768 7  22411045.060 7    360904.30748  22411041.99548     -2609.565
  -5287998.951 5  23693750.195 5  -5692270.77346  23693748.96746      2388.472
  -6595588.234 7  23075060.714 7  -5983252.02348  23075056.01548      1641.494
 -12152186.082 7  21608200.650 7  -9414794.31649  21608195.69349        71.230
   2632430.804 6  23622894.998 6    796192.57048  23622892.28648     -3008.198
  13660117.780 5  24212542.131 5  10490402.53147  24212541.11947     -4289.429
 05  3 15  7 50  0.0040000  0  6G 6G15G16G21G25G30
   1752164.353 7  22418498.420 7    391424.49348  22418495.27448     -2612.925
  -5323796.809 6  23686938.110 6  -5720165.18046  23686936.68846      2384.380
  -6620179.699 7  23070381.131 7  -6002414.19448  23070376.25048      1637.202
 -12153193.202 7  21608009.025 7  -9415579.09049  21608004.03149        62.998
   2677600.432 6  23631490.530 6    831389.66248  23631487.81048     -3014.551
  13724484.811 5  24224790.772 5  10540558.61547  24224789.73847     -4292.974
 05  3 15  7 50 15.0040000  0  6G 6G15G16G21G25G30
   1791383.042 7  22425961.523 7    421984.48848  22425958.24948     -2616.089
  -5359531.872 5  23680138.082 5  -5748010.67846  23680136.40846      2380.356
  -6644705.729 7  23065713.973 7  -6021525.37748  23065708.92548      1633.086
 -12154073.884 7  21607841.461 7  -9416265.34349  21607836.46549        54.658
   2722865.298 6  23640104.108 6    866660.94648  23640101.46048     -3020.601
  13788905.792 5  24237049.686 5  10590756.74546  24237048.57246     -4296.406
 05  3 15  7 50 30.0040000  0  6G 6G15G16G21G25G30
   1830648.696 7  22433433.559 7    452581.06648  22433430.24248     -2619.194
  -5395208.006 5  23673349.103 5  -5775810.23946  23673347.33446      2376.299
  -6669170.241 7  23061058.511 7  -6040588.63048  23061053.29048      1628.926
 -12154832.414 7  21607697.126 7  -9416856.41349  21607692.19449        46.553
   2768220.864 6  23648734.971 6    902002.92247  23648732.40247     -3026.748
  13853376.527 5  24249318.087 5  10640993.64146  24249316.85546     -4299.668
 05  3 15  7 50 45.0040000  0  6G 6G15G16G21G25G30
   1869960.497 7  22440914.388 7    483213.61348  22440911.03348     -2622.500
  -5430825.787 5  23666571.228 5  -5803564.36046  23666569.36946      2372.559
  -6693573.855 7  23056414.619 7  -6059604.42548  23056409.30148      1624.770
 -12155469.438 7  21607575.915 7  -9417352.79449  21607571.03149        38.325
   2813666.196 6  23657382.912 6    937414.83947  23657380.39247     -3032.803
  13917896.026 5  24261595.814 5  10691268.51847  24261594.44847     -4303.052
 05  3 15  7 51  0.0040000  0  6G 6G15G16G21G25G30
   1909318.166 7  22448403.932 7    513881.90248  22448400.52848     -2625.405
  -5466385.098 5  23659804.513 5  -5831272.89946  23659802.55646      2368.467
  -6717916.456 7  23051782.339 7  -6078572.68448  23051777.02348      1620.723
 -12155985.254 7  21607477.750 7  -9417754.74149  21607472.88849        30.313
   2859200.780 6  23666047.848 6    972896.30747  23666045.42147     -3038.652
  13982463.859 5  24273882.839 5  10741581.07546  24273881.30346     -4306.211
 05  3 15  7 51 15.0040000  0  6G 6G15G16G21G25G30
   1948721.882 7  22455902.247 7    544586.07548  22455898.83648     -2628.364
  -5501885.625 5  23653049.010 5  -5858935.66347  23653047.04447      2364.868
  -6742197.590 7  23047161.764 7  -6097493.03748  23047156.47448      1616.782
 -12156379.690 7  21607402.697 7  -9418062.09549  21607397.79349        22.329
   2904824.423 6  23674729.762 6   1008447.15947  23674727.34047     -3044.492
  14047080.001 5  24286178.956 5  10791931.30547  24286177.39847     -4309.233
 05  3 15  7 51 30.0040000  0  6G 6G15G16G21G25G30
   1988174.885 7  22463409.936 7    575328.64548  22463406.59048     -2631.821
  -5537323.741 5  23646305.370 5  -5886549.76846  23646303.43046      2360.347
  -6766413.663 7  23042553.576 7  -6116362.70648  23042548.32948      1612.173
 -12156649.320 7  21607351.411 7  -9418272.21249  21607346.44449        13.823
   2950540.130 6  23683429.186 6   1044069.74747  23683426.80047     -3050.830
  14111747.570 5  24298484.790 5  10842321.53246  24298483.32646     -4312.998
 05  3 15  7 51 45.0040000  0  6G 6G15G16G21G25G30
   2027677.353 7  22470927.039 7    606109.76249  22470923.79549     -2635.137
  -5572698.924 5  23639573.746 5  -5914114.83946  23639571.78946      2356.211
  -6790564.089 7  23037957.895 7  -6135181.22548  23037952.73848      1607.852
 -12156793.895 7  21607323.926 7  -9418384.87349  21607318.88649         5.454
   2996347.995 6  23692146.184 6   1079764.15547  23692143.76247     -3056.943
  14176466.672 5  24310800.475 5  10892751.92746  24310799.02146     -4316.148
 05  3 15  7 52  0.0040000  0  6G 6G15G16G21G25G30
   2067223.333 7  22478452.403 7    636924.78849  22478449.25149     -2637.788
  -5608016.864 5  23632852.897 5  -5941635.31746  23632850.95746      2352.725
  -6814654.516 7  23033373.675 7  -6153952.97548  23033368.63248      1604.097
 -12156819.327 7  21607319.128 7  -9418404.69649  21607314.02149        -2.197
   3042241.612 6  23700879.479 6   1115525.40347  23700876.96747     -3062.305
  14241231.277 5  24323124.819 5  10943217.84146  24323123.33346     -4319.141
 05  3 15  7 52 15.0040000  0  6G 6G15G16G21G25G30
   2106812.140 7  22485985.928 7    667773.18149  22485982.85549     -2640.801
  -5643278.005 5  23626142.812 5  -5969111.55446  23626140.93446      2348.770
  -6838685.391 7  23028800.760 7  -6172678.33748  23028795.86648      1599.966
 -12156726.219 7  21607336.879 7  -9418332.14349  21607331.76749       -10.303
   3088220.052 6  23709628.884 6   1151352.72847  23709626.31347     -3068.091
  14306040.352 5  24335457.659 5  10993718.30746  24335456.07246     -4322.148
 05  3 15  7 52 30.0040000  0  6G 6G15G16G21G25G30
   2146448.529 7  22493528.487 7    698658.66248  22493525.45448     -2643.872
  -5678477.064 5  23619444.574 5  -5996539.33346  23619442.72646      2344.673
  -6862651.447 7  23024240.176 7  -6191353.18748  23024235.42048      1595.737
 -12156509.614 8  21607378.123 8  -9418163.36849  21607373.05049       -18.398
   3134288.003 6  23718395.284 6   1187249.83147  23718392.64447     -3073.960
  14370898.724 6  24347799.936 6  11044257.24646  24347798.13746     -4325.400
 05  3 15  7 52 45.0040000  0  6G 6G15G16G21G25G30
   2186131.136 7  22501079.850 7    729580.15749  22501076.79649     -2647.021
  -5713615.418 5  23612757.906 5  -6023919.87546  23612756.06146      2340.561
  -6886553.843 7  23019691.709 7  -6209978.41148  23019687.05548      1591.377
 -12156170.921 7  21607442.589 7  -9417899.45449  21607437.56149       -26.626
   3180443.601 6  23727178.445 6   1223215.19647  23727175.75147     -3079.907
  14435804.708 6  24360151.297 6  11094833.28747  24360149.27047     -4328.564
 05  3 15  7 53  0.0040000  0  6G 6G15G16G21G25G30
   2225859.699 7  22508639.974 7    760537.45148  22508636.89248     -2650.127
  -5748692.929 5  23606082.799 5  -6051253.00846  23606081.04746      2336.416
  -6910392.534 7  23015155.395 7  -6228554.02448  23015150.80748      1587.100
 -12155710.033 7  21607530.299 7  -9417540.32849  21607525.31449       -34.883
   3226686.504 6  23735978.252 6   1259248.56947  23735975.46547     -3085.737
  14500758.005 6  24372511.601 6  11145446.17447  24372509.50247     -4331.846
 05  3 15  7 53 15.0040000  0  6G 6G15G16G21G25G30
   2265634.448 7  22516208.879 7    791530.73048  22516205.78748     -2653.208
  -5783708.966 5  23599419.519 5  -6078538.25646  23599417.67846      2332.222
  -6934166.827 7  23010631.377 7  -6247079.45748  23010626.82648      1582.690
 -12155126.709 8  21607641.326 8  -9417085.79349  21607636.35849       -43.071
   3273016.741 6  23744794.659 6   1295350.01547  23744791.71747     -3091.621
  14565758.742 6  24384880.846 6  11196096.05047  24384878.83547     -4335.010
 05  3 15  7 53 30.0040000  0  6G 6G15G16G21G25G30
   2305458.477 7  22523787.185 7    822562.41348  22523784.04748     -2656.523
  -5818660.289 6  23592768.515 6  -6105773.06346  23592766.62846      2328.047
  -6957873.470 7  23006120.197 7  -6265552.16348  23006115.72348      1578.257
 -12154417.873 7  21607776.229 7  -9416533.44849  21607771.27949       -51.362
   3319437.082 6  23753628.161 6   1331521.70747  23753625.03347     -3097.617
  14630809.790 6  24397259.656 6  11246785.10447  24397257.78447     -4338.398
 05  3 15  7 53 45.0040000  0  6G 6G15G16G21G25G30
   2345327.211 7  22531373.958 7    853628.94448  22531370.77348     -2659.297
  -5853551.088 5  23586129.033 5  -6132960.66846  23586127.09746      2324.233
  -6981516.593 7  23001621.058 7  -6283975.36948  23001616.65848      1574.175
 -12153587.900 7  21607934.170 7  -9415886.72649  21607929.24249       -59.272
   3365942.604 6  23762477.866 6   1367759.71547  23762474.66447     -3103.106
  14695906.421 6  24409647.176 6  11297509.69347  24409645.36047     -4341.177
 05  3 15  7 54  0.0040000  0  6G 6G15G16G21G25G30
   2385241.158 7  22538969.344 7    884730.69748  22538966.09148     -2662.378
  -5888380.503 5  23579501.236 5  -6160100.51446  23579499.27146      2319.814
  -7005095.433 7  22997134.135 7  -6302348.48948  22997129.75248      1569.824
 -12152636.219 7  21608115.255 7  -9415145.16349  21608110.35649       -67.495
   3412533.532 6  23771343.826 6   1404064.33447  23771340.62547     -3108.745
  14761049.145 6  24422043.437 6  11348270.18147  24422041.65847     -4344.380
 05  3 15  7 54 15.0040000  0  6G 6G15G16G21G25G30
   2425200.680 7  22546573.385 7    915867.96448  22546570.13648     -2665.376
  -5923147.929 4  23572885.237 4  -6187191.97246  23572883.23746      2315.864
  -7028609.282 7  22992659.576 7  -6320670.96948  22992655.19648      1565.454
 -12151562.353 7  21608319.586 7  -9414308.37949  21608314.69849       -75.610
   3459210.084 6  23780226.171 6   1440435.65347  23780222.97347     -3114.585
  14826238.046 6  24434448.519 6  11399066.65947  24434446.75347     -4347.402
 05  3 15  7 54 30.0040000  0  6G 6G15G16G21G25G30
   2465207.863 7  22554186.488 7    947042.36248  22554183.28848     -2668.657
  -5957851.025 3  23566281.430 3  -6214233.29346  23566279.46046      2311.548
  -7052055.720 7  22988197.851 7  -6338940.91248  22988193.45548      1560.962
 -12150364.289 7  21608547.559 7  -9413374.82949  21608542.63849       -83.857
   3505974.120 6  23789125.151 6   1476875.13247  23789122.08247     -3120.415
  14891475.098 6  24446862.823 6  11449900.67347  24446861.02647     -4350.620
 05  3 15  7 54 45.0040000  0  6G 6G15G16G21G25G30
   2505262.020 7  22561808.527 7    978253.37448  22561805.37648     -2671.860
  -5992490.156 5  23559689.778 5  -6241224.86646  23559687.87446      2307.197
  -7075435.144 7  22983748.876 7  -6357158.64748  22983744.45848      1556.299
 -12149042.603 7  21608799.082 7  -9412344.94449  21608794.05649       -92.324
   3552824.437 6  23798040.533 6   1513381.84048  23798037.60248     -3126.284
  14956759.476 6  24459286.085 6  11500771.52747  24459284.41047     -4354.023
 05  3 15  7 55  0.0040000  0  6G 6G15G16G21G25G30
   2545364.337 7  22569439.750 7   1009501.91948  22569436.64948     -2674.976
  -6027063.763 6  23553110.649 6  -6268165.31946  23553108.78146      2302.852
  -7098745.981 7  22979312.940 7  -6375322.92448  22979308.48748      1551.812
 -12147595.845 7  21609074.393 7  -9411217.59749  21609069.27749      -100.581
   3599762.082 6  23806972.516 6   1549956.60548  23806969.66748     -3131.963
  15022092.247 6  24471718.485 6  11551680.14047  24471717.01447     -4357.114
 05  3 15  7 55 15.0040000  0  6G 6G15G16G21G25G30
   2585513.985 7  22577079.985 7   1040787.33048  22577076.98748     -2678.276
  -6061572.408 5  23546543.881 5  -6295055.15146  23546541.99546      2298.306
  -7121988.659 7  22974889.973 7  -6393434.10448  22974885.50848      1547.187
 -12146024.872 7  21609373.329 7  -9409993.46949  21609368.15449      -108.906
   3646786.080 6  23815920.923 6   1586598.63748  23815918.14748     -3137.754
  15087472.446 5  24484159.851 5  11602625.67147  24484158.65447     -4360.264
 05  3 15  7 55 30.0040000  0  6G 6G15G16G21G25G30
   2625711.192 7  22584729.286 7   1072109.80348  22584726.33248     -2681.616
  -6096015.702 5  23539989.548 5  -6321894.04046  23539987.66546      2293.857
  -7145162.825 7  22970480.059 7  -6411491.87548  22970475.59048      1542.495
 -12144329.490 7  21609695.938 7  -9408672.39649  21609690.72149      -117.290
   3693896.305 6  23824885.754 6   1623307.87248  23824882.90048     -3143.608
  15152899.986 6  24496610.210 6  11653608.11647  24496609.29347     -4363.501
 05  3 15  7 55 45.0040000  0  6G 6G15G16G21G25G30
   2665954.899 7  22592387.449 7   1103468.51048  22592384.50148     -2684.399
  -6130394.329 5  23533447.474 5  -6348682.54146  23533445.64946      2289.805
  -7168269.080 7  22966083.072 7  -6429496.75248  22966078.61848      1538.193
 -12142510.666 7  21610042.042 7  -9407255.14449  21610036.81249      -125.352
   3741091.491 6  23833866.737 6   1660083.32348  23833863.83748     -3149.145
  15218373.817 6  24509069.395 6  11704626.60347  24509068.71047     -4366.470
 05  3 15  7 56  0.0040000  0  6G 6G15G16G21G25G30
   2706244.485 7  22600054.347 7   1134862.98148  22600051.38048     -2687.534
  -6164708.496 6  23526917.692 6  -6375420.79446  23526915.92746      2285.454
  -7191307.621 7  22961698.954 7  -6447448.86448  22961694.56148      1533.569
 -12140568.838 7  21610411.553 7  -9405742.03549  21610406.36249      -133.555
   3788370.781 7  23842863.758 7   1696924.27248  23842860.76248     -3154.717
  15283893.220 6  24521537.316 6  11755680.63647  24521536.72147     -4369.473
 05  3 15  7 56 15.0040000  0  6G 6G15G16G21G25G30
   2746579.703 7  22607729.915 7   1166292.98448  22607726.98348     -2690.430
  -6198958.345 5  23520400.168 5  -6402108.98446  23520398.51246      2281.343
  -7214278.535 7  22957327.698 7  -6465348.27248  22957323.42148      1529.233
 -12138504.202 7  21610804.433 7  -9404133.23349  21610799.33549      -141.680
   3835733.456 6  23851876.629 6   1733830.22848  23851873.58248     -3160.274
  15349457.677 5  24534013.823 5  11806769.74146  24534013.24846     -4372.412
 05  3 15  7 56 30.0040000  0  6G 6G15G16G21G25G30
   2786960.335 7  22615414.120 7   1197758.39148  22615411.17948     -2693.525
  -6233143.619 5  23513894.880 5  -6428746.84546  23513893.27946      2276.836
  -7237181.595 7  22952969.355 7  -6483194.79548  22952965.21248      1524.590
 -12136316.980 7  21611220.637 7  -9402428.90649  21611215.66049      -149.966
   3883179.173 7  23860905.320 7   1770800.86548  23860902.27048     -3165.874
  15415066.946 5  24546498.874 5  11857893.81146  24546498.26446     -4375.464
 05  3 15  7 56 45.0040000  0  6G 6G15G16G21G25G30
   2827386.054 7  22623106.887 7   1229258.92848  22623103.91148     -2696.465
  -6267264.475 5  23507401.820 5  -6455334.52746  23507400.23546      2272.603
  -7260016.856 7  22948623.922 7  -6500988.50748  22948619.90648      1520.147
 -12134007.401 7  21611660.112 7  -9400629.23449  21611655.24549      -158.008
   3930707.367 6  23869949.679 6   1807835.80048  23869946.59748     -3171.255
  15480720.405 5  24558992.374 5  11909052.29746  24558991.63246     -4378.296
 05  3 15  7 57  0.0040000  0  6G 6G15G16G21G25G30
   2867857.592 7  22630808.398 7   1260795.15948  22630805.32448     -2699.604
  -6301319.971 5  23500921.284 5  -6481871.29646  23500919.62646      2268.184
  -7282783.281 7  22944291.585 7  -6518728.58348  22944287.72148      1515.474
 -12131574.655 7  21612123.040 7  -9398733.59249  21612118.22349      -166.284
   3978318.439 6  23879009.811 6   1844935.30048  23879006.73748     -3176.782
  15546418.667 5  24571494.417 5  11960245.68446  24571493.51946     -4381.426
 05  3 15  7 57 15.0040000  0  6G 6G15G16G21G25G30
   2908374.216 7  22638518.493 7   1292366.52848  22638515.29648     -2702.534
  -6335310.503 5  23494453.148 5  -6508357.39346  23494451.33746      2263.940
  -7305481.368 7  22939972.271 7  -6536415.39748  22939968.50848      1511.040
 -12129019.403 7  21612609.288 7  -9396742.48749  21612604.47449      -174.351
   4026011.402 6  23888085.504 6   1882098.60448  23888082.43748     -3182.109
  15612160.965 5  24584004.761 5  12011473.37546  24584003.81346     -4384.263
 05  3 15  7 57 30.0040000  0  6G 6G15G16G21G25G30
   2948937.691 7  22646237.521 7   1323974.40048  22646234.21248     -2705.771
  -6369234.001 6  23487997.804 6  -6534791.26346  23487995.88946      2259.429
  -7328108.913 7  22935666.401 7  -6554047.26648  22935662.67148      1506.240
 -12126339.872 7  21613119.194 7  -9394654.55449  21613114.34149      -182.749
   4073787.731 6  23897177.064 6   1919326.86548  23897173.92048     -3187.759
  15677948.832 5  24596523.782 5  12062736.60546  24596522.73646     -4387.231
 05  3 15  7 57 45.0040000  0  6G 6G15G16G21G25G30
   2989547.536 7  22653965.377 7   1355618.41348  22653961.93848     -2708.911
  -6403090.603 5  23481555.105 5  -6561173.03546  23481553.19246      2254.888
  -7350666.046 7  22931373.928 7  -6571624.26448  22931370.20848      1501.396
 -12123536.389 7  21613652.697 7  -9392470.02849  21613647.76749      -191.030
   4121646.627 6  23906284.359 6   1956619.44248  23906281.24948     -3193.374
  15743781.600 5  24609051.378 5  12114034.74746  24609050.15346     -4390.371
 05  3 15  7 58  0.0040000  0  6G 6G15G16G21G25G30
   3030200.683 7  22661701.456 7   1387296.18248  22661697.84048     -2711.650
  -6436883.127 5  23475124.585 5  -6587504.83646  23475122.65446      2250.757
  -7373155.510 7  22927094.346 7  -6589148.52048  22927090.62248      1497.119
 -12120611.974 7  21614209.212 7  -9390191.26949  21614204.19349      -198.848
   4169584.714 6  23915406.734 6   1993973.77648  23915403.62748     -3198.520
  15809655.967 5  24621586.848 5  12165365.38446  24621585.45446     -4392.964
 05  3 15  7 58 15.0040000  0  6G 6G15G16G21G25G30
   3070899.404 7  22669446.172 7   1419009.44348  22669442.43748     -2714.746
  -6470608.859 5  23468706.710 5  -6613784.64946  23468704.81046      2246.128
  -7395574.588 7  22922828.137 7  -6606617.92848  22922824.39248      1492.280
 -12117564.218 7  21614789.186 7  -9387816.39749  21614784.09649      -207.261
   4217604.212 6  23924544.604 6   2031391.52148  23924541.53248     -3204.097
  15875574.422 4  24634130.663 4  12216730.30346  24634129.23946     -4396.113
 05  3 15  7 58 30.0040000  0  7G 6G15G16G18G21G25G30
   3111643.099 7  22677199.452 7   1450757.74348  22677195.59648     -2717.788
  -6504268.216 5  23462301.525 5  -6640012.72246  23462299.48246      2241.714
  -7417923.696 7  22918575.252 7  -6624032.81948  22918571.42548      1487.544
    -31021.935 1  25513376.898 1                                      2310.635
 -12114393.693 7  21615392.512 7  -9385345.87349  21615387.38549      -215.542
   4265704.229 6  23933697.786 6   2068872.03148  23933694.81048     -3209.429
  15941535.917 5  24646682.743 5  12268128.85346  24646681.31146     -4398.984
 05  3 15  7 58 45.0040000  0  7G 6G15G16G18G21G25G30
   3152431.010 7  22684961.144 7   1482540.51448  22684957.19848     -2720.664
  -6537861.756 5  23455908.857 5  -6666189.51146  23455906.59846      2237.358
  -7440203.294 7  22914335.590 7  -6641393.54448  22914331.64648      1483.018
    -65683.244 2  25506781.481 2                                      2310.620
 -12111101.089 7  21616019.074 7  -9382780.20949  21616013.94549      -223.623
   4313883.622 6  23942866.071 6   2106414.37948  23942863.04048     -3214.644
  16007539.685 5  24659242.904 5  12319560.30346  24659241.47046     -4401.685
 05  3 15  7 59  0.0040000  0  7G 6G15G16G18G21G25G30
   3193262.363 7  22692731.093 7   1514357.13448  22692727.07848     -2723.594
  -6571389.931 5  23449528.731 5  -6692315.35246  23449526.15046      2232.949
  -7462413.824 7  22910109.066 7  -6658700.44348  22910105.00848      1478.267
   -100340.772 2  25500186.372 2                                      2310.195
 -12107687.151 7  21616668.735 7  -9380120.00749  21616663.63949      -231.782
   4362141.289 6  23952049.266 6   2144017.70648  23952046.22748     -3219.888
  16073584.646 5  24671810.879 5  12371023.82346  24671809.45246     -4404.531
 05  3 15  7 59 15.0040000  0  7G 6G15G16G18G21G25G30
   3234139.976 7  22700509.848 7   1546209.79148  22700505.85148     -2726.719
  -6604849.662 5  23443161.631 5  -6718387.84846  23443158.91346      2228.345
  -7484552.015 7  22905896.297 7  -6675950.97048  22905892.14448      1473.447
   -134991.492 3  25493592.065 3    -94784.57955  25493593.81345      2309.751
 -12104148.982 7  21617342.035 7  -9377362.99449  21617336.97249      -239.951
   4410479.854 6  23961247.821 6   2181684.07048  23961244.83948     -3225.239
  16139673.540 5  24684387.215 5  12422521.60046  24684385.74046     -4407.412
 05  3 15  7 59 30.0040000  0  7G 6G15G16G18G21G25G30
   3275062.798 7  22708297.242 7   1578097.67248  22708293.27248     -2729.624
  -6638241.776 5  23436807.451 5  -6744407.69547  23436804.67847      2223.940
  -7506618.715 7  22901697.121 7  -6693145.79548  22901692.89448      1468.794
   -169636.100 2  25486998.887 2   -121780.41844  25487000.88744      2309.458
 -12100487.408 7  21618038.826 7  -9374509.81949  21618033.77649      -248.140
   4458897.952 6  23970461.461 6   2219412.42048  23970458.50748     -3230.381
  16205805.180 4  24696971.660 4  12474052.66846  24696970.12046     -4410.044
 05  3 15  7 59 45.0040000  0  7G 6G15G16G18G21G25G30
   3316031.974 7  22716093.483 7   1610021.66948  22716089.52548     -2732.769
  -6671564.836 5  23430466.389 5  -6770373.67147  23430463.61647      2219.165
  -7528612.431 7  22897511.843 7  -6710283.74948  22897507.57448      1463.872
   -204272.872 3  25480407.586 3   -148770.03545  25480408.59945      2308.848
 -12096701.464 7  21618759.292 7  -9371559.73549  21618754.22149      -256.519
   4507396.446 6  23979690.375 6   2257203.41447  23979687.54647     -3235.918
  16271980.576 5  24709564.489 5  12525617.86046  24709562.78946     -4413.096
 05  3 15  8  0  0.0040000  0  7G 6G15G16G18G21G25G30
   3357045.280 7  22723898.119 7   1641980.08248  22723894.15548     -2735.503
  -6704820.632 5  23424138.104 5  -6796287.26646  23424135.42346      2214.932
  -7550535.019 7  22893340.079 7  -6727366.27748  22893335.83148      1459.272
   -238903.623 4  25473817.378 4   -175755.07246  25473818.11046      2308.623
 -12092792.869 7  21619503.068 7  -9368514.07349  21619497.97149      -264.458
   4555972.827 6  23988934.153 6   2295055.09747  23988931.38347     -3240.879
  16338197.335 5  24722165.177 5  12577215.20246  24722163.38946     -4415.766
 05  3 15  8  0 15.0040000  0  7G 6G15G16G18G21G25G30
   3398102.835 7  22731711.183 7   1673972.95448  22731707.20148     -2738.603
  -6738008.880 5  23417822.597 5  -6822148.26846  23417820.08946      2210.298
  -7572386.083 7  22889181.955 7  -6744393.06748  22889177.71748      1454.336
   -273527.860 4  25467228.348 4   -202734.96446  25467229.07546      2308.086
 -12088762.765 7  21620269.962 7  -9365373.73749  21620264.83949      -272.676
   4604626.929 6  23998192.805 6   2332967.35048  23998189.97548     -3246.157
  16404455.307 5  24734773.756 5  12628844.77746  24734771.86246     -4418.618
 05  3 15  8  0 30.0040000  0  7G 6G15G16G18G21G25G30
   3439204.824 7  22739532.710 7   1706000.45848  22739528.74648     -2741.538
  -6771129.041 5  23411520.006 5  -6847956.19747  23411517.59947      2205.864
  -7594165.091 7  22885037.555 7  -6761363.72248  22885033.32548      1449.668
   -308145.006 4  25460640.737 4   -229709.28646  25460641.33746      2307.661
 -12084610.026 7  21621060.191 7  -9362137.83549  21621055.04149      -280.825
   4653358.616 6  24007466.234 6   2370940.03148  24007463.42648     -3251.260
  16470754.712 6  24747390.292 6  12680506.58746  24747388.29146     -4421.279
 05  3 15  8  0 45.0040000  0  7G 6G15G16G18G21G25G30
   3480350.113 7  22747362.406 7   1738061.68248  22747358.52948     -2744.512
  -6804182.031 6  23405230.192 6  -6873711.75847  23405227.87347      2201.235
  -7615872.875 7  22880906.704 7  -6778278.89148  22880902.49048      1444.795
   -342755.661 5  25454054.346 5   -256678.63946  25454054.90046      2307.080
 -12080335.752 7  21621873.563 7  -9358807.24049  21621868.40749      -289.043
   4702166.482 6  24016754.080 6   2408972.11147  24016751.27747     -3256.357
  16537094.202 6  24760014.489 6  12732199.59546  24760012.34346     -4424.087
 05  3 15  8  1  0.0040000  0  7G 6G15G16G18G21G25G30
   3521542.901 7  22755201.132 7   1770159.94648  22755197.33148     -2747.573
  -6837163.379 6  23398954.068 6  -6899411.53247  23398951.80347      2196.631
  -7637504.950 7  22876790.288 7  -6795135.05948  22876786.02648      1439.878
   -377355.327 6  25447470.086 6   -283639.40546  25447470.53246      2306.470
 -12075935.445 7  21622710.922 7  -9355378.42749  21622705.77349      -297.363
   4751054.496 5  24026057.105 5   2447066.62147  24026054.39947     -3261.694
  16603477.751 6  24772647.003 6  12783927.00546  24772644.77646     -4426.831
 05  3 15  8  1 15.0040000  0  7G 6G15G16G18G21G25G30
   3562778.989 7  22763048.098 7   1802291.93548  22763044.39548     -2750.435
  -6870076.879 6  23392690.902 6  -6925058.38947  23392688.65947      2191.958
  -7659065.000 7  22872687.582 7  -6811935.10148  22872683.26048      1434.990
   -411947.810 6  25440887.159 6   -310594.48147  25440887.48347      2305.898
 -12071413.225 7  21623571.484 7  -9351854.61849  21623566.36549      -305.557
   4800018.283 5  24035374.557 5   2485220.18347  24035372.02847     -3266.694
  16669901.077 6  24785287.167 6  12835685.41346  24785284.81446     -4429.600
 05  3 15  8  1 30.0040000  0  7G 6G15G16G18G21G25G30
   3604058.970 7  22770903.409 7   1834458.12448  22770899.81748     -2753.579
  -6902921.787 6  23386440.810 6  -6950651.82347  23386438.54947      2187.378
  -7680552.297 7  22868598.721 7  -6828678.45548  22868594.34448      1430.000
   -446532.149 5  25434305.766 5   -337543.28747  25434305.97347      2305.254
 -12066768.772 7  21624455.299 7  -9348235.56549  21624450.22549      -313.833
   4849058.001 6  24044706.514 6   2523432.91847  24044704.04047     -3271.899
  16736364.528 6  24797934.932 6  12887475.05846  24797932.54746     -4432.280
 05  3 15  8  1 45.0040000  0  7G 6G15G16G18G21G25G30
   3645384.695 7  22778767.432 7   1866659.96448  22778763.84848     -2756.650
  -6935695.798 6  23380204.146 6  -6976190.03047  23380201.87347      2182.490
  -7701964.544 7  22864524.124 7  -6845363.33048  22864519.69148      1424.839
   -481105.994 5  25427726.372 5   -364483.87447  25427726.44047      2304.394
 -12062000.025 7  21625362.764 7  -9344519.66449  21625357.73049      -322.168
   4898175.313 6  24054053.235 6   2561706.09147  24054050.84647     -3277.246
  16802869.917 6  24810590.599 6  12939297.38546  24810588.30646     -4435.190
 05  3 15  8  2  0.0040000  0  7G 6G15G16G18G21G25G30
   3686755.106 7  22786639.957 7   1898896.63448  22786636.31048     -2759.443
  -6968399.869 6  23373980.780 6  -7001673.71947  23373978.41647      2177.998
  -7723302.502 7  22860463.655 7  -6861990.29648  22860459.13848      1420.127
   -515670.077 5  25421148.852 5   -391416.87747  25421148.77447      2303.984
 -12057108.224 7  21626293.649 7  -9340707.88049  21626288.61949      -330.205
   4947368.860 6  24063414.428 6   2600038.70147  24063412.17047     -3282.031
  16869415.956 6  24823253.934 6  12991151.37646  24823251.82946     -4437.676
 05  3 15  8  2 15.0040000  0  7G 6G15G16G18G21G25G30
   3728167.017 7  22794520.379 7   1931165.62048  22794516.70448     -2762.105
  -7001036.925 6  23367770.148 6  -7027105.18147  23367767.70247      2173.594
  -7744569.115 7  22856416.750 7  -6878561.68148  22856412.13748      1415.415
   -550227.103 5  25414572.686 5   -418344.33847  25414572.43047      2303.594
 -12052096.437 7  21627247.378 7  -9336802.58949  21627242.30949      -338.076
   4996635.084 6  24072789.467 6   2638427.94947  24072787.22647     -3286.758
  16935999.276 6  24835924.352 6  13043034.41246  24835922.42846     -4439.990
 05  3 15  8  2 30.0040000  0  7G 6G15G16G18G21G25G30
   3769621.797 7  22802408.968 7   1963468.00248  22802405.28648     -2765.176
  -7033605.094 6  23361572.579 6  -7052482.98447  23361570.05747      2168.945
  -7765762.557 7  22852383.793 7  -6895076.04048  22852379.04648      1410.376
   -584775.233 5  25407998.206 5   -445264.93946  25407997.81346      2302.842
 -12046963.079 7  21628224.221 7  -9332802.56549  21628219.10849      -346.333
   5045975.079 6  24082178.539 6   2676874.64147  24082176.29647     -3291.836
  17002621.252 6  24848602.124 6  13094947.56246  24848600.41346     -4442.778
 05  3 15  8  2 45.0040000  0  7G 6G15G16G18G21G25G30
   3811122.430 7  22810306.322 7   1995806.12948  22810302.52748     -2768.276
  -7066101.288 6  23355388.769 6  -7077804.71646  23355386.04546      2163.999
  -7786879.609 7  22848365.371 7  -6911530.88348  22848360.49548      1405.317
   -619311.167 5  25401426.046 5   -472176.03247  25401425.54847      2301.987
 -12041705.464 7  21629224.703 7  -9328705.73349  21629219.54649      -354.653
   5095391.652 6  24091582.216 6   2715381.02747  24091579.99447     -3297.012
  17069284.481 5  24861287.780 5  13146892.90146  24861286.26546     -4445.508
 05  3 15  8  3  0.0040000  0  7G 6G15G16G18G21G25G30
   3852670.422 7  22818212.646 7   2028181.16148  22818208.74348     -2771.445
  -7098523.713 6  23349218.980 6  -7103068.90946  23349216.11246      2159.028
  -7807918.351 7  22844361.833 7  -6927924.70348  22844356.89348      1399.936
   -653833.036 5  25394856.667 5   -499076.11147  25394856.01247      2300.913
 -12036321.671 7  21630249.204 7  -9324510.58049  21630243.99749      -363.115
   5144886.017 6  24101000.708 6   2753948.02847  24100998.46247     -3302.295
  17135990.470 4  24873981.416 4  13198871.44846  24873980.30746     -4448.447
 05  3 15  8  3 15.0040000  0  7G 6G15G16G18G21G25G30
   3894260.922 7  22826127.071 7   2060589.31348  22826123.06248     -2774.189
  -7130876.932 6  23343062.332 6  -7128279.23046  23343059.39846      2154.531
  -7828883.386 7  22840372.337 7  -6944261.08448  22840367.36348      1395.176
   -688345.212 5  25388289.103 5   -525968.65547  25388288.37547      2300.498
 -12030816.600 7  21631296.793 7  -9320220.92249  21631291.55349      -371.123
   5194452.950 6  24110433.036 6   2792571.56647  24110430.73647     -3306.909
  17202734.122 3  24886682.113 3  13250879.37845  24886681.51345     -4450.933
 05  3 15  8  3 30.0040000  0  7G 6G15G16G18G21G25G30
   3935895.821 7  22834049.939 7   2093032.07048  22834045.89348     -2777.036
  -7163158.861 6  23336919.209 6  -7153433.96646  23336916.26046      2149.878
  -7849772.578 7  22836397.250 7  -6960538.37248  22836392.26248      1390.205
   -722845.395 6  25381723.789 6   -552851.89347  25381723.04947      2299.712
 -12025188.425 7  21632367.813 7  -9315835.33449  21632362.57449      -379.229
   5244094.151 6  24119879.445 6   2831253.00547  24119877.14647     -3311.821
  17269517.228 3  24899390.504 3  13302918.09445  24899390.19145     -4453.603
 05  3 15  8  3 45.0040000  0  7G 6G15G16G18G21G25G30
   3977574.359 7  22841981.116 7   2125508.82048  22841977.14948     -2779.980
  -7195369.862 6  23330789.644 6  -7178533.40446  23330786.63046      2145.064
  -7870586.221 7  22832436.544 7  -6976756.79948  22832431.53748      1385.122
   -757333.990 5  25375160.710 5   -579726.05147  25375159.93247      2298.916
 -12019437.760 7  21633462.157 7  -9311354.29549  21633456.92249      -387.422
   5293808.542 6  24129339.816 6   2869991.49547  24129337.33447     -3316.655
  17336338.907 3  24912106.237 3  13354986.84845  24912106.13145     -4456.035
 05  3 15  8  4  0.0040000  0  7G 6G15G16G18G21G25G30
   4019296.508 7  22849920.565 7   2158019.56948  22849916.72748     -2783.027
  -7227509.764 6  23324673.549 6  -7203577.48746  23324670.58846      2140.254
  -7891324.041 7  22828490.254 7  -6992916.14448  22828485.27448      1379.888
   -791810.386 5  25368599.919 5   -606590.75346  25368599.16646      2297.773
 -12013564.813 7  21634579.754 7  -9306777.97949  21634574.55249      -395.747
   5343595.740 6  24138814.064 6   2908786.69347  24138811.35647     -3321.621
  17403198.974 3  24924829.263 3  13407085.49245  24924829.35745     -4458.799
 05  3 15  8  4 15.0040000  0  7G 6G15G16G18G21G25G30
   4061062.594 7  22857868.377 7   2190564.53848  22857864.64348     -2786.035
  -7259578.051 6  23318571.143 6  -7228565.75047  23318568.33647      2135.322
  -7911985.429 7  22824558.527 7  -7009015.92848  22824553.56748      1374.736
   -826274.108 4  25362041.526 4   -633445.54646  25362040.85146      2297.026
 -12007568.949 7  21635720.734 7  -9302105.88749  21635715.56549      -403.960
   5393455.740 6  24148302.169 6   2947638.59847  24148299.31147     -3326.558
  17470097.459 3  24937559.670 3  13459214.04645  24937559.87345     -4461.323
 05  3 15  8  4 30.0040000  0  7G 6G15G16G18G21G25G30
   4102873.289 7  22865824.704 7   2223144.28448  22865821.08848     -2788.809
  -7291573.662 6  23312482.563 6  -7253497.39846  23312479.90546      2130.689
  -7932569.394 7  22820641.557 7  -7025055.38048  22820636.56748      1369.722
   -860724.061 4  25355485.728 4   -660289.58946  25355485.14546      2296.226
 -12001449.629 7  21636885.188 7  -9297337.58049  21636880.03649      -411.968
   5443388.930 6  24157804.156 6   2986547.52247  24157801.22247     -3331.231
  17537034.841 4  24950297.580 4  13511373.04345  24950297.75545     -4463.760
 05  3 15  8  4 45.0040000  0  7G 6G15G16G18G21G25G30
   4144726.686 7  22873789.162 7   2255757.29848  22873785.68448     -2791.714
  -7323498.289 6  23306407.481 6  -7278373.72446  23306404.93546      2125.918
  -7953077.510 7  22816739.060 7  -7041035.73448  22816733.97848      1364.590
   -895161.672 5  25348932.370 5   -687124.08246  25348931.77446      2295.425
 -11995208.667 7  21638072.768 7  -9292474.49549  21638067.63849      -420.151
   5493393.206 6  24167319.677 6   3025511.85047  24167316.75047     -3336.108
  17604009.142 4  24963042.511 4  13563560.74645  24963042.69045     -4466.177
 05  3 15  8  5  0.0040000  0  7G 6G15G16G18G21G25G30
   4186625.661 7  22881762.276 7   2288405.82748  22881758.95448     -2794.893
  -7355348.780 6  23300346.484 6  -7303192.25846  23300344.02546      2120.776
  -7973506.542 7  22812851.568 7  -7056954.46448  22812846.44848      1359.155
   -929583.640 5  25342382.022 5   -713946.40046  25342381.33846      2294.004
 -11988843.238 7  21639284.036 7  -9287514.43849  21639278.92849      -428.652
   5543471.080 6  24176849.263 6   3064533.53947  24176846.30447     -3341.147
  17671023.164 2  24975794.844 2  13615779.39845  24975795.23345     -4469.067
 05  3 15  8  5 15.0040000  0  7G 6G15G16G18G21G25G30
   4228570.156 7  22889744.044 7   2321089.83548  22889740.78648     -2797.720
  -7387124.800 6  23294299.682 6  -7327952.76646  23294297.27146      2116.025
  -7993856.167 7  22808979.186 7  -7072811.31348  22808974.08048      1354.121
   -963989.568 5  25335834.770 5   -740756.11846  25335833.93146      2293.315
 -11982353.269 7  21640519.018 7  -9282457.32149  21640513.91949      -436.680
   5593622.340 6  24186392.813 6   3103612.41247  24186389.79947     -3345.635
  17738076.653 4  24988554.728 4  13668028.83645  24988555.29445     -4471.397
 05  3 15  8  5 30.0040000  0  7G 6G15G16G18G21G25G30
   4270557.487 7  22897733.982 7   2353807.20448  22897730.74548     -2800.449
  -7418828.972 6  23288266.569 6  -7352657.25846  23288264.18146      2111.401
  -8014128.841 7  22805121.440 7  -7088608.20048  22805116.42848      1349.092
   -998381.868 5  25329290.136 5   -767555.24946  25329289.16746      2292.515
 -11975741.482 7  21641777.212 7  -9277305.29049  21641772.09449      -444.761
   5643843.908 6  24195949.746 6   3142746.07947  24195946.74647     -3350.317
  17805166.779 4  25001321.603 4  13720306.74645  25001322.37145     -4473.980
 05  3 15  8  5 45.0040000  0  7G 6G15G16G18G21G25G30
   4312587.654 7  22905732.104 7   2386557.96348  22905728.84548     -2803.418
  -7450460.771 6  23282247.284 6  -7377305.41746  23282244.80346      2106.372
  -8034324.139 7  22801278.410 7  -7104344.78748  22801273.52148      1343.740
  -1032759.989 6  25322748.314 6   -794343.34846  25322747.12846      2291.396
 -11969007.726 7  21643058.626 7  -9272058.21049  21643053.48549      -453.003
   5694135.479 6  24205519.925 6   3181934.28447  24205517.03447     -3355.098
  17872293.290 4  25014095.469 4  13772613.07645  25014096.35845     -4476.401
 05  3 15  8  6  0.0040000  0  7G 6G15G16G18G21G25G30
   4354660.098 7  22913738.244 7   2419341.65848  22913734.98848     -2806.260
  -7482020.708 6  23276241.676 6  -7401897.54346  23276239.09946      2101.523
  -8054442.524 7  22797449.989 7  -7120021.44348  22797445.23448      1338.594
  -1067124.254 6  25316209.091 6   -821120.62646  25316207.81346      2290.449
 -11962152.594 8  21644363.142 8  -9266716.56349  21644357.98549      -461.089
   5744496.078 6  24215103.260 6   3221176.26647  24215100.41547     -3359.692
  17939455.355 4  25026876.104 4  13824947.12246  25026877.11846     -4478.667
 05  3 15  8  6 15.0040000  0  7G 6G15G16G18G21G25G30
   4396777.820 7  22921753.004 7   2452160.64048  22921749.69648     -2809.253
  -7513505.366 6  23270250.448 6  -7426431.06346  23270247.63446      2096.636
  -8074480.557 7  22793636.860 7  -7135635.49948  22793632.17548      1333.301
  -1101471.198 5  25309673.142 5   -847884.40546  25309671.89546      2289.326
 -11955173.174 7  21645691.314 7  -9261278.05049  21645686.13149      -469.307
   5794928.539 6  24224700.293 6   3260474.26247  24224697.46347     -3364.370
  18006656.010 5  25039664.090 5  13877311.16446  25039665.28146     -4481.147
 05  3 15  8  6 30.0040000  0  7G 6G15G16G18G21G25G30
   4438939.585 7  22929776.147 7   2485013.92948  22929772.75848     -2812.231
  -7544915.827 6  23264273.326 6  -7450906.73046  23264270.26446      2091.597
  -8094439.072 7  22789838.837 7  -7151187.58448  22789834.20948      1327.939
  -1135801.542 4  25303140.341 4   -874635.25846  25303139.15846      2288.032
 -11948070.686 7  21647042.892 7  -9255743.64249  21647037.70949      -477.559
   5845431.327 6  24234310.752 6   3299827.00647  24234307.93147     -3369.126
  18073893.805 3  25052459.170 3  13929704.19146  25052460.55546     -4483.711
 05  3 15  8  6 45.0040000  0  7G 6G15G16G18G21G25G30
   4481143.507 7  22937807.298 7   2517900.07048  22937803.85448     -2814.883
  -7576253.577 6  23258309.960 6  -7475325.76046  23258306.64346      2086.758
  -8114319.623 7  22786055.628 7  -7166678.92548  22786051.02548      1322.852
  -1170116.830 6  25296610.319 6   -901374.48546  25296609.26946      2287.310
 -11940846.750 8  21648417.569 8  -9250114.60849  21648412.40949      -485.552
   5896002.375 6  24243934.121 6   3339232.97047  24243931.35347     -3373.628
  18141166.737 2  25065260.763 2  13982124.57445  25065262.57545     -4486.157
